<?xml version='1.0' encoding='UTF-8'?>
<gpx version="1.1" creator="https://www.komoot.de" xmlns="http://www.topografix.com/GPX/1/1" xmlns:xsi="http://www.w3.org/2001/XMLSchema-instance" xsi:schemaLocation="http://www.topografix.com/GPX/1/1 http://www.topografix.com/GPX/1/1/gpx.xsd">
  <metadata>
    <name>80_1130HogschuerHuetten</name>
    <author>
      <link href="https://www.komoot.de">
        <text>komoot</text>
        <type>text/html</type>
      </link>
    </author>
  </metadata>
  <trk>
    <name>80_1130HogschuerHuetten</name>
    <trkseg>
      <trkpt lat="47.541474" lon="7.870742">
        <ele>341.208289</ele>
        <time>2021-11-21T22:30:45.071Z</time>
      </trkpt>
      <trkpt lat="47.541576" lon="7.870664">
        <ele>341.208289</ele>
        <time>2021-11-21T22:30:47.694Z</time>
      </trkpt>
      <trkpt lat="47.541796" lon="7.871042">
        <ele>341.208289</ele>
        <time>2021-11-21T22:30:54.962Z</time>
      </trkpt>
      <trkpt lat="47.541953" lon="7.871286">
        <ele>341.208289</ele>
        <time>2021-11-21T22:30:59.882Z</time>
      </trkpt>
      <trkpt lat="47.542039" lon="7.871556">
        <ele>341.208289</ele>
        <time>2021-11-21T22:31:04.345Z</time>
      </trkpt>
      <trkpt lat="47.542067" lon="7.871664">
        <ele>341.450425</ele>
        <time>2021-11-21T22:31:06.035Z</time>
      </trkpt>
      <trkpt lat="47.542091" lon="7.871721">
        <ele>341.634775</ele>
        <time>2021-11-21T22:31:06.654Z</time>
      </trkpt>
      <trkpt lat="47.542218" lon="7.871866">
        <ele>342.286590</ele>
        <time>2021-11-21T22:31:11.877Z</time>
      </trkpt>
      <trkpt lat="47.542394" lon="7.872341">
        <ele>343.773507</ele>
        <time>2021-11-21T22:31:22.102Z</time>
      </trkpt>
      <trkpt lat="47.542436" lon="7.872494">
        <ele>344.226749</ele>
        <time>2021-11-21T22:31:25.499Z</time>
      </trkpt>
      <trkpt lat="47.542537" lon="7.872430">
        <ele>344.673312</ele>
        <time>2021-11-21T22:31:27.611Z</time>
      </trkpt>
      <trkpt lat="47.542714" lon="7.872334">
        <ele>345.439549</ele>
        <time>2021-11-21T22:31:34.568Z</time>
      </trkpt>
      <trkpt lat="47.542814" lon="7.872280">
        <ele>345.872228</ele>
        <time>2021-11-21T22:31:37.582Z</time>
      </trkpt>
      <trkpt lat="47.542919" lon="7.872226">
        <ele>346.324057</ele>
        <time>2021-11-21T22:31:41.420Z</time>
      </trkpt>
      <trkpt lat="47.543013" lon="7.872182">
        <ele>346.724801</ele>
        <time>2021-11-21T22:31:44.927Z</time>
      </trkpt>
      <trkpt lat="47.543233" lon="7.872082">
        <ele>347.660282</ele>
        <time>2021-11-21T22:31:52.165Z</time>
      </trkpt>
      <trkpt lat="47.543251" lon="7.872152">
        <ele>347.865834</ele>
        <time>2021-11-21T22:31:55.539Z</time>
      </trkpt>
      <trkpt lat="47.543332" lon="7.872237">
        <ele>348.269352</ele>
        <time>2021-11-21T22:31:58.844Z</time>
      </trkpt>
      <trkpt lat="47.544390" lon="7.872423">
        <ele>355.044596</ele>
        <time>2021-11-21T22:32:40.563Z</time>
      </trkpt>
      <trkpt lat="47.544883" lon="7.872555">
        <ele>358.301073</ele>
        <time>2021-11-21T22:33:02.972Z</time>
      </trkpt>
      <trkpt lat="47.545131" lon="7.872664">
        <ele>359.982551</ele>
        <time>2021-11-21T22:33:13.976Z</time>
      </trkpt>
      <trkpt lat="47.545375" lon="7.872836">
        <ele>361.730051</ele>
        <time>2021-11-21T22:33:24.917Z</time>
      </trkpt>
      <trkpt lat="47.545478" lon="7.872968">
        <ele>362.610137</ele>
        <time>2021-11-21T22:33:31.725Z</time>
      </trkpt>
      <trkpt lat="47.545515" lon="7.873015">
        <ele>362.925096</ele>
        <time>2021-11-21T22:33:33.681Z</time>
      </trkpt>
      <trkpt lat="47.545746" lon="7.873302">
        <ele>364.873311</ele>
        <time>2021-11-21T22:33:46.881Z</time>
      </trkpt>
      <trkpt lat="47.545934" lon="7.873549">
        <ele>366.497116</ele>
        <time>2021-11-21T22:33:56.981Z</time>
      </trkpt>
      <trkpt lat="47.546077" lon="7.873763">
        <ele>367.810614</ele>
        <time>2021-11-21T22:34:06.177Z</time>
      </trkpt>
      <trkpt lat="47.546135" lon="7.873859">
        <ele>368.372598</ele>
        <time>2021-11-21T22:34:09.417Z</time>
      </trkpt>
      <trkpt lat="47.546309" lon="7.874154">
        <ele>370.081422</ele>
        <time>2021-11-21T22:34:20.531Z</time>
      </trkpt>
      <trkpt lat="47.547126" lon="7.875801">
        <ele>375.784342</ele>
        <time>2021-11-21T22:35:06.292Z</time>
      </trkpt>
      <trkpt lat="47.547574" lon="7.876801">
        <ele>378.110600</ele>
        <time>2021-11-21T22:35:25.288Z</time>
      </trkpt>
      <trkpt lat="47.547992" lon="7.877974">
        <ele>377.111081</ele>
        <time>2021-11-21T22:35:38.089Z</time>
      </trkpt>
      <trkpt lat="47.548234" lon="7.878638">
        <ele>376.542455</ele>
        <time>2021-11-21T22:35:43.401Z</time>
      </trkpt>
      <trkpt lat="47.548422" lon="7.878959">
        <ele>376.182809</ele>
        <time>2021-11-21T22:35:46.244Z</time>
      </trkpt>
      <trkpt lat="47.548718" lon="7.879258">
        <ele>374.671174</ele>
        <time>2021-11-21T22:35:49.782Z</time>
      </trkpt>
      <trkpt lat="47.549140" lon="7.879391">
        <ele>372.850718</ele>
        <time>2021-11-21T22:35:53.969Z</time>
      </trkpt>
      <trkpt lat="47.549318" lon="7.879398">
        <ele>372.099389</ele>
        <time>2021-11-21T22:35:55.596Z</time>
      </trkpt>
      <trkpt lat="47.549327" lon="7.879547">
        <ele>371.673348</ele>
        <time>2021-11-21T22:35:56.582Z</time>
      </trkpt>
      <trkpt lat="47.549726" lon="7.880786">
        <ele>367.901856</ele>
        <time>2021-11-21T22:36:05.516Z</time>
      </trkpt>
      <trkpt lat="47.549927" lon="7.881490">
        <ele>366.065390</ele>
        <time>2021-11-21T22:36:10.548Z</time>
      </trkpt>
      <trkpt lat="47.550234" lon="7.883221">
        <ele>361.653798</ele>
        <time>2021-11-21T22:36:22.949Z</time>
      </trkpt>
      <trkpt lat="47.550332" lon="7.884727">
        <ele>357.171670</ele>
        <time>2021-11-21T22:36:32.797Z</time>
      </trkpt>
      <trkpt lat="47.550391" lon="7.885109">
        <ele>356.010767</ele>
        <time>2021-11-21T22:36:35.330Z</time>
      </trkpt>
      <trkpt lat="47.550548" lon="7.885799">
        <ele>353.702678</ele>
        <time>2021-11-21T22:36:39.934Z</time>
      </trkpt>
      <trkpt lat="47.550621" lon="7.886184">
        <ele>352.157750</ele>
        <time>2021-11-21T22:36:42.459Z</time>
      </trkpt>
      <trkpt lat="47.550677" lon="7.886476">
        <ele>350.985028</ele>
        <time>2021-11-21T22:36:44.364Z</time>
      </trkpt>
      <trkpt lat="47.550758" lon="7.887295">
        <ele>347.787248</ele>
        <time>2021-11-21T22:36:49.507Z</time>
      </trkpt>
      <trkpt lat="47.550789" lon="7.887816">
        <ele>345.766697</ele>
        <time>2021-11-21T22:36:52.739Z</time>
      </trkpt>
      <trkpt lat="47.550831" lon="7.888611">
        <ele>342.562123</ele>
        <time>2021-11-21T22:36:57.692Z</time>
      </trkpt>
      <trkpt lat="47.550833" lon="7.889069">
        <ele>340.632571</ele>
        <time>2021-11-21T22:37:00.502Z</time>
      </trkpt>
      <trkpt lat="47.550915" lon="7.890600">
        <ele>334.162341</ele>
        <time>2021-11-21T22:37:09.895Z</time>
      </trkpt>
      <trkpt lat="47.550904" lon="7.891725">
        <ele>330.674869</ele>
        <time>2021-11-21T22:37:16.899Z</time>
      </trkpt>
      <trkpt lat="47.550892" lon="7.893176">
        <ele>326.809870</ele>
        <time>2021-11-21T22:37:26.511Z</time>
      </trkpt>
      <trkpt lat="47.550908" lon="7.894308">
        <ele>325.121076</ele>
        <time>2021-11-21T22:37:35.716Z</time>
      </trkpt>
      <trkpt lat="47.550878" lon="7.895158">
        <ele>324.407925</ele>
        <time>2021-11-21T22:37:42.901Z</time>
      </trkpt>
      <trkpt lat="47.550838" lon="7.895509">
        <ele>324.109675</ele>
        <time>2021-11-21T22:37:46.065Z</time>
      </trkpt>
      <trkpt lat="47.550660" lon="7.896255">
        <ele>323.382740</ele>
        <time>2021-11-21T22:37:52.554Z</time>
      </trkpt>
      <trkpt lat="47.550639" lon="7.896345">
        <ele>323.201906</ele>
        <time>2021-11-21T22:37:53.741Z</time>
      </trkpt>
      <trkpt lat="47.550648" lon="7.896481">
        <ele>322.942406</ele>
        <time>2021-11-21T22:37:54.696Z</time>
      </trkpt>
      <trkpt lat="47.550819" lon="7.898109">
        <ele>319.813646</ele>
        <time>2021-11-21T22:38:06.444Z</time>
      </trkpt>
      <trkpt lat="47.550801" lon="7.900244">
        <ele>314.385005</ele>
        <time>2021-11-21T22:38:20.281Z</time>
      </trkpt>
      <trkpt lat="47.550769" lon="7.901362">
        <ele>311.169625</ele>
        <time>2021-11-21T22:38:27.553Z</time>
      </trkpt>
      <trkpt lat="47.550757" lon="7.901591">
        <ele>310.547596</ele>
        <time>2021-11-21T22:38:29.689Z</time>
      </trkpt>
      <trkpt lat="47.550688" lon="7.902451">
        <ele>308.409521</ele>
        <time>2021-11-21T22:38:38.123Z</time>
      </trkpt>
      <trkpt lat="47.550498" lon="7.903445">
        <ele>305.859062</ele>
        <time>2021-11-21T22:38:48.374Z</time>
      </trkpt>
      <trkpt lat="47.550302" lon="7.904164">
        <ele>303.945991</ele>
        <time>2021-11-21T22:38:55.633Z</time>
      </trkpt>
      <trkpt lat="47.550025" lon="7.904774">
        <ele>302.140043</ele>
        <time>2021-11-21T22:39:02.558Z</time>
      </trkpt>
      <trkpt lat="47.549868" lon="7.905010">
        <ele>301.326080</ele>
        <time>2021-11-21T22:39:05.690Z</time>
      </trkpt>
      <trkpt lat="47.549867" lon="7.905155">
        <ele>300.969885</ele>
        <time>2021-11-21T22:39:07.087Z</time>
      </trkpt>
      <trkpt lat="47.550067" lon="7.905245">
        <ele>300.209177</ele>
        <time>2021-11-21T22:39:10.012Z</time>
      </trkpt>
      <trkpt lat="47.550283" lon="7.905413">
        <ele>299.321339</ele>
        <time>2021-11-21T22:39:13.462Z</time>
      </trkpt>
      <trkpt lat="47.550497" lon="7.905558">
        <ele>298.464934</ele>
        <time>2021-11-21T22:39:16.820Z</time>
      </trkpt>
      <trkpt lat="47.549539" lon="7.908625">
        <ele>293.108306</ele>
        <time>2021-11-21T22:39:41.269Z</time>
      </trkpt>
      <trkpt lat="47.549520" lon="7.908678">
        <ele>293.052724</ele>
        <time>2021-11-21T22:39:41.770Z</time>
      </trkpt>
      <trkpt lat="47.549283" lon="7.909465">
        <ele>292.254566</ele>
        <time>2021-11-21T22:39:48.800Z</time>
      </trkpt>
      <trkpt lat="47.549195" lon="7.909756">
        <ele>291.959234</ele>
        <time>2021-11-21T22:39:51.409Z</time>
      </trkpt>
      <trkpt lat="47.549102" lon="7.910058">
        <ele>291.651791</ele>
        <time>2021-11-21T22:39:54.110Z</time>
      </trkpt>
      <trkpt lat="47.549012" lon="7.910340">
        <ele>291.362882</ele>
        <time>2021-11-21T22:39:56.625Z</time>
      </trkpt>
      <trkpt lat="47.548412" lon="7.912168">
        <ele>289.813276</ele>
        <time>2021-11-21T22:40:12.945Z</time>
      </trkpt>
      <trkpt lat="47.548027" lon="7.913334">
        <ele>289.018062</ele>
        <time>2021-11-21T22:40:23.706Z</time>
      </trkpt>
      <trkpt lat="47.547994" lon="7.913433">
        <ele>288.996659</ele>
        <time>2021-11-21T22:40:24.627Z</time>
      </trkpt>
      <trkpt lat="47.547423" lon="7.915080">
        <ele>288.637737</ele>
        <time>2021-11-21T22:40:42.104Z</time>
      </trkpt>
      <trkpt lat="47.547113" lon="7.915971">
        <ele>288.727623</ele>
        <time>2021-11-21T22:40:52.551Z</time>
      </trkpt>
      <trkpt lat="47.547091" lon="7.916039">
        <ele>288.750611</ele>
        <time>2021-11-21T22:40:53.575Z</time>
      </trkpt>
      <trkpt lat="47.547032" lon="7.916218">
        <ele>288.811337</ele>
        <time>2021-11-21T22:40:55.778Z</time>
      </trkpt>
      <trkpt lat="47.546821" lon="7.916867">
        <ele>289.030935</ele>
        <time>2021-11-21T22:41:03.887Z</time>
      </trkpt>
      <trkpt lat="47.546262" lon="7.919081">
        <ele>289.689742</ele>
        <time>2021-11-21T22:41:31.399Z</time>
      </trkpt>
      <trkpt lat="47.546128" lon="7.919617">
        <ele>289.836042</ele>
        <time>2021-11-21T22:41:36.867Z</time>
      </trkpt>
      <trkpt lat="47.545973" lon="7.920313">
        <ele>290.023634</ele>
        <time>2021-11-21T22:41:45.330Z</time>
      </trkpt>
      <trkpt lat="47.545913" lon="7.920765">
        <ele>290.379935</ele>
        <time>2021-11-21T22:41:49.504Z</time>
      </trkpt>
      <trkpt lat="47.545881" lon="7.921096">
        <ele>290.684250</ele>
        <time>2021-11-21T22:41:53.520Z</time>
      </trkpt>
      <trkpt lat="47.545810" lon="7.921755">
        <ele>291.291595</ele>
        <time>2021-11-21T22:42:02.429Z</time>
      </trkpt>
      <trkpt lat="47.545778" lon="7.921947">
        <ele>291.471582</ele>
        <time>2021-11-21T22:42:06.038Z</time>
      </trkpt>
      <trkpt lat="47.545714" lon="7.922249">
        <ele>291.759659</ele>
        <time>2021-11-21T22:42:09.236Z</time>
      </trkpt>
      <trkpt lat="47.545699" lon="7.922325">
        <ele>291.831722</ele>
        <time>2021-11-21T22:42:10.434Z</time>
      </trkpt>
      <trkpt lat="47.545690" lon="7.922369">
        <ele>291.873565</ele>
        <time>2021-11-21T22:42:12.532Z</time>
      </trkpt>
      <trkpt lat="47.545641" lon="7.922610">
        <ele>292.102633</ele>
        <time>2021-11-21T22:42:14.886Z</time>
      </trkpt>
      <trkpt lat="47.545587" lon="7.922895">
        <ele>292.372036</ele>
        <time>2021-11-21T22:42:20.682Z</time>
      </trkpt>
      <trkpt lat="47.545553" lon="7.923142">
        <ele>292.815780</ele>
        <time>2021-11-21T22:42:23.329Z</time>
      </trkpt>
      <trkpt lat="47.545536" lon="7.923407">
        <ele>293.463366</ele>
        <time>2021-11-21T22:42:29.219Z</time>
      </trkpt>
      <trkpt lat="47.545521" lon="7.923709">
        <ele>294.200045</ele>
        <time>2021-11-21T22:42:33.372Z</time>
      </trkpt>
      <trkpt lat="47.545481" lon="7.924396">
        <ele>295.877557</ele>
        <time>2021-11-21T22:42:47.975Z</time>
      </trkpt>
      <trkpt lat="47.545466" lon="7.924880">
        <ele>297.056254</ele>
        <time>2021-11-21T22:42:59.282Z</time>
      </trkpt>
      <trkpt lat="47.545446" lon="7.925350">
        <ele>298.201921</ele>
        <time>2021-11-21T22:43:09.657Z</time>
      </trkpt>
      <trkpt lat="47.545417" lon="7.925848">
        <ele>299.233801</ele>
        <time>2021-11-21T22:43:20.136Z</time>
      </trkpt>
      <trkpt lat="47.545409" lon="7.926773">
        <ele>300.587631</ele>
        <time>2021-11-21T22:43:37.337Z</time>
      </trkpt>
      <trkpt lat="47.545407" lon="7.927001">
        <ele>300.921333</ele>
        <time>2021-11-21T22:43:41.146Z</time>
      </trkpt>
      <trkpt lat="47.545406" lon="7.927306">
        <ele>301.367700</ele>
        <time>2021-11-21T22:43:45.750Z</time>
      </trkpt>
      <trkpt lat="47.545421" lon="7.927686">
        <ele>301.924772</ele>
        <time>2021-11-21T22:43:51.286Z</time>
      </trkpt>
      <trkpt lat="47.545475" lon="7.928419">
        <ele>302.754679</ele>
        <time>2021-11-21T22:44:00.603Z</time>
      </trkpt>
      <trkpt lat="47.545563" lon="7.929641">
        <ele>301.534176</ele>
        <time>2021-11-21T22:44:10.483Z</time>
      </trkpt>
      <trkpt lat="47.545661" lon="7.930955">
        <ele>300.221251</ele>
        <time>2021-11-21T22:44:19.879Z</time>
      </trkpt>
      <trkpt lat="47.545696" lon="7.931497">
        <ele>299.788829</ele>
        <time>2021-11-21T22:44:23.847Z</time>
      </trkpt>
      <trkpt lat="47.545721" lon="7.931992">
        <ele>299.396878</ele>
        <time>2021-11-21T22:44:27.640Z</time>
      </trkpt>
      <trkpt lat="47.545724" lon="7.932758">
        <ele>298.792025</ele>
        <time>2021-11-21T22:44:33.849Z</time>
      </trkpt>
      <trkpt lat="47.545702" lon="7.933290">
        <ele>298.371164</ele>
        <time>2021-11-21T22:44:38.492Z</time>
      </trkpt>
      <trkpt lat="47.545674" lon="7.933625">
        <ele>298.105354</ele>
        <time>2021-11-21T22:44:41.693Z</time>
      </trkpt>
      <trkpt lat="47.545457" lon="7.935110">
        <ele>299.106107</ele>
        <time>2021-11-21T22:44:59.828Z</time>
      </trkpt>
      <trkpt lat="47.545074" lon="7.936484">
        <ele>300.265541</ele>
        <time>2021-11-21T22:45:21.355Z</time>
      </trkpt>
      <trkpt lat="47.544903" lon="7.936917">
        <ele>300.860603</ele>
        <time>2021-11-21T22:45:28.671Z</time>
      </trkpt>
      <trkpt lat="47.544705" lon="7.937395">
        <ele>301.525846</ele>
        <time>2021-11-21T22:45:36.855Z</time>
      </trkpt>
      <trkpt lat="47.544472" lon="7.937932">
        <ele>302.283074</ele>
        <time>2021-11-21T22:45:46.262Z</time>
      </trkpt>
      <trkpt lat="47.543826" lon="7.939433">
        <ele>304.332669</ele>
        <time>2021-11-21T22:46:13.144Z</time>
      </trkpt>
      <trkpt lat="47.543435" lon="7.940670">
        <ele>305.879803</ele>
        <time>2021-11-21T22:46:33.105Z</time>
      </trkpt>
      <trkpt lat="47.543161" lon="7.942213">
        <ele>306.503275</ele>
        <time>2021-11-21T22:46:53.954Z</time>
      </trkpt>
      <trkpt lat="47.543007" lon="7.943867">
        <ele>306.323766</ele>
        <time>2021-11-21T22:47:09.498Z</time>
      </trkpt>
      <trkpt lat="47.542913" lon="7.945267">
        <ele>304.594807</ele>
        <time>2021-11-21T22:47:20.258Z</time>
      </trkpt>
      <trkpt lat="47.542872" lon="7.945781">
        <ele>303.958754</ele>
        <time>2021-11-21T22:47:23.854Z</time>
      </trkpt>
      <trkpt lat="47.542875" lon="7.946089">
        <ele>303.570797</ele>
        <time>2021-11-21T22:47:25.945Z</time>
      </trkpt>
      <trkpt lat="47.542902" lon="7.946514">
        <ele>302.903648</ele>
        <time>2021-11-21T22:47:28.824Z</time>
      </trkpt>
      <trkpt lat="47.542943" lon="7.946806">
        <ele>302.437526</ele>
        <time>2021-11-21T22:47:30.871Z</time>
      </trkpt>
      <trkpt lat="47.542974" lon="7.946965">
        <ele>302.178875</ele>
        <time>2021-11-21T22:47:32.081Z</time>
      </trkpt>
      <trkpt lat="47.542979" lon="7.946989">
        <ele>302.139620</ele>
        <time>2021-11-21T22:47:32.237Z</time>
      </trkpt>
      <trkpt lat="47.543007" lon="7.947104">
        <ele>301.948559</ele>
        <time>2021-11-21T22:47:33.085Z</time>
      </trkpt>
      <trkpt lat="47.543087" lon="7.947317">
        <ele>301.567613</ele>
        <time>2021-11-21T22:47:34.828Z</time>
      </trkpt>
      <trkpt lat="47.543191" lon="7.947615">
        <ele>301.043323</ele>
        <time>2021-11-21T22:47:37.269Z</time>
      </trkpt>
      <trkpt lat="47.543242" lon="7.947745">
        <ele>300.808334</ele>
        <time>2021-11-21T22:47:38.399Z</time>
      </trkpt>
      <trkpt lat="47.543273" lon="7.947816">
        <ele>300.676183</ele>
        <time>2021-11-21T22:47:39.026Z</time>
      </trkpt>
      <trkpt lat="47.543358" lon="7.947967">
        <ele>300.368907</ele>
        <time>2021-11-21T22:47:40.469Z</time>
      </trkpt>
      <trkpt lat="47.543455" lon="7.948127">
        <ele>300.032810</ele>
        <time>2021-11-21T22:47:42.136Z</time>
      </trkpt>
      <trkpt lat="47.543532" lon="7.948214">
        <ele>299.808605</ele>
        <time>2021-11-21T22:47:43.217Z</time>
      </trkpt>
      <trkpt lat="47.543579" lon="7.948287">
        <ele>299.650945</ele>
        <time>2021-11-21T22:47:43.980Z</time>
      </trkpt>
      <trkpt lat="47.543760" lon="7.948548">
        <ele>299.453671</ele>
        <time>2021-11-21T22:47:46.869Z</time>
      </trkpt>
      <trkpt lat="47.543864" lon="7.948694">
        <ele>299.456313</ele>
        <time>2021-11-21T22:47:48.541Z</time>
      </trkpt>
      <trkpt lat="47.544239" lon="7.949202">
        <ele>299.465682</ele>
        <time>2021-11-21T22:47:55.903Z</time>
      </trkpt>
      <trkpt lat="47.544521" lon="7.949558">
        <ele>299.472514</ele>
        <time>2021-11-21T22:48:02.076Z</time>
      </trkpt>
      <trkpt lat="47.544901" lon="7.950044">
        <ele>299.481770</ele>
        <time>2021-11-21T22:48:11.473Z</time>
      </trkpt>
      <trkpt lat="47.545166" lon="7.950366">
        <ele>299.520469</ele>
        <time>2021-11-21T22:48:18.022Z</time>
      </trkpt>
      <trkpt lat="47.545434" lon="7.950668">
        <ele>299.573252</ele>
        <time>2021-11-21T22:48:23.812Z</time>
      </trkpt>
      <trkpt lat="47.545542" lon="7.950842">
        <ele>299.598264</ele>
        <time>2021-11-21T22:48:26.238Z</time>
      </trkpt>
      <trkpt lat="47.545667" lon="7.950979">
        <ele>299.622638</ele>
        <time>2021-11-21T22:48:28.843Z</time>
      </trkpt>
      <trkpt lat="47.545737" lon="7.951055">
        <ele>299.636243</ele>
        <time>2021-11-21T22:48:30.097Z</time>
      </trkpt>
      <trkpt lat="47.545876" lon="7.951233">
        <ele>299.665044</ele>
        <time>2021-11-21T22:48:32.490Z</time>
      </trkpt>
      <trkpt lat="47.546112" lon="7.951485">
        <ele>299.710646</ele>
        <time>2021-11-21T22:48:37.032Z</time>
      </trkpt>
      <trkpt lat="47.546164" lon="7.951520">
        <ele>299.719600</ele>
        <time>2021-11-21T22:48:37.667Z</time>
      </trkpt>
      <trkpt lat="47.546212" lon="7.951535">
        <ele>299.727289</ele>
        <time>2021-11-21T22:48:38.432Z</time>
      </trkpt>
      <trkpt lat="47.546231" lon="7.951558">
        <ele>299.731136</ele>
        <time>2021-11-21T22:48:39.161Z</time>
      </trkpt>
      <trkpt lat="47.546421" lon="7.951793">
        <ele>299.754180</ele>
        <time>2021-11-21T22:48:42.342Z</time>
      </trkpt>
      <trkpt lat="47.546634" lon="7.952024">
        <ele>299.640755</ele>
        <time>2021-11-21T22:48:45.877Z</time>
      </trkpt>
      <trkpt lat="47.546695" lon="7.952091">
        <ele>299.608127</ele>
        <time>2021-11-21T22:48:46.832Z</time>
      </trkpt>
      <trkpt lat="47.546776" lon="7.952185">
        <ele>299.563916</ele>
        <time>2021-11-21T22:48:48.018Z</time>
      </trkpt>
      <trkpt lat="47.546935" lon="7.952372">
        <ele>299.476685</ele>
        <time>2021-11-21T22:48:50.954Z</time>
      </trkpt>
      <trkpt lat="47.547090" lon="7.952543">
        <ele>299.393646</ele>
        <time>2021-11-21T22:48:53.591Z</time>
      </trkpt>
      <trkpt lat="47.547400" lon="7.952910">
        <ele>299.223139</ele>
        <time>2021-11-21T22:48:58.895Z</time>
      </trkpt>
      <trkpt lat="47.547458" lon="7.952975">
        <ele>299.191890</ele>
        <time>2021-11-21T22:48:59.814Z</time>
      </trkpt>
      <trkpt lat="47.547550" lon="7.953078">
        <ele>299.142341</ele>
        <time>2021-11-21T22:49:01.307Z</time>
      </trkpt>
      <trkpt lat="47.547624" lon="7.953160">
        <ele>299.102634</ele>
        <time>2021-11-21T22:49:02.550Z</time>
      </trkpt>
      <trkpt lat="47.547797" lon="7.953355">
        <ele>299.009230</ele>
        <time>2021-11-21T22:49:05.562Z</time>
      </trkpt>
      <trkpt lat="47.547871" lon="7.953437">
        <ele>298.951493</ele>
        <time>2021-11-21T22:49:06.862Z</time>
      </trkpt>
      <trkpt lat="47.547994" lon="7.953584">
        <ele>298.831153</ele>
        <time>2021-11-21T22:49:09.036Z</time>
      </trkpt>
      <trkpt lat="47.548115" lon="7.953729">
        <ele>298.712643</ele>
        <time>2021-11-21T22:49:11.190Z</time>
      </trkpt>
      <trkpt lat="47.548251" lon="7.953895">
        <ele>298.578459</ele>
        <time>2021-11-21T22:49:13.588Z</time>
      </trkpt>
      <trkpt lat="47.548335" lon="7.953779">
        <ele>298.491015</ele>
        <time>2021-11-21T22:49:15.493Z</time>
      </trkpt>
      <trkpt lat="47.549149" lon="7.953347">
        <ele>297.832585</ele>
        <time>2021-11-21T22:49:31.109Z</time>
      </trkpt>
      <trkpt lat="47.549296" lon="7.953268">
        <ele>297.713508</ele>
        <time>2021-11-21T22:49:33.817Z</time>
      </trkpt>
      <trkpt lat="47.549442" lon="7.953195">
        <ele>297.555896</ele>
        <time>2021-11-21T22:49:36.372Z</time>
      </trkpt>
      <trkpt lat="47.549640" lon="7.953086">
        <ele>297.155453</ele>
        <time>2021-11-21T22:49:40.081Z</time>
      </trkpt>
      <trkpt lat="47.549673" lon="7.953076">
        <ele>297.091596</ele>
        <time>2021-11-21T22:49:40.640Z</time>
      </trkpt>
      <trkpt lat="47.549687" lon="7.953071">
        <ele>297.064295</ele>
        <time>2021-11-21T22:49:40.832Z</time>
      </trkpt>
      <trkpt lat="47.550567" lon="7.953069">
        <ele>295.395988</ele>
        <time>2021-11-21T22:49:55.006Z</time>
      </trkpt>
      <trkpt lat="47.550656" lon="7.953072">
        <ele>295.227218</ele>
        <time>2021-11-21T22:49:56.320Z</time>
      </trkpt>
      <trkpt lat="47.550967" lon="7.953063">
        <ele>294.637511</ele>
        <time>2021-11-21T22:50:01.082Z</time>
      </trkpt>
      <trkpt lat="47.551254" lon="7.952986">
        <ele>294.090303</ele>
        <time>2021-11-21T22:50:05.471Z</time>
      </trkpt>
      <trkpt lat="47.551295" lon="7.952900">
        <ele>293.961581</ele>
        <time>2021-11-21T22:50:06.534Z</time>
      </trkpt>
      <trkpt lat="47.551334" lon="7.952777">
        <ele>293.795442</ele>
        <time>2021-11-21T22:50:09.209Z</time>
      </trkpt>
      <trkpt lat="47.551339" lon="7.952761">
        <ele>293.773887</ele>
        <time>2021-11-21T22:50:09.580Z</time>
      </trkpt>
      <trkpt lat="47.551381" lon="7.952341">
        <ele>293.254816</ele>
        <time>2021-11-21T22:50:18.361Z</time>
      </trkpt>
      <trkpt lat="47.551506" lon="7.950255">
        <ele>290.945202</ele>
        <time>2021-11-21T22:51:03.898Z</time>
      </trkpt>
      <trkpt lat="47.551525" lon="7.950027">
        <ele>290.934270</ele>
        <time>2021-11-21T22:51:09.359Z</time>
      </trkpt>
      <trkpt lat="47.551581" lon="7.949830">
        <ele>290.924097</ele>
        <time>2021-11-21T22:51:14.511Z</time>
      </trkpt>
      <trkpt lat="47.551673" lon="7.949634">
        <ele>290.912735</ele>
        <time>2021-11-21T22:51:20.597Z</time>
      </trkpt>
      <trkpt lat="47.551794" lon="7.949387">
        <ele>290.898211</ele>
        <time>2021-11-21T22:51:28.158Z</time>
      </trkpt>
      <trkpt lat="47.552010" lon="7.949039">
        <ele>290.875711</ele>
        <time>2021-11-21T22:51:40.329Z</time>
      </trkpt>
      <trkpt lat="47.552049" lon="7.948982">
        <ele>290.871849</ele>
        <time>2021-11-21T22:51:42.469Z</time>
      </trkpt>
      <trkpt lat="47.552094" lon="7.948926">
        <ele>290.867705</ele>
        <time>2021-11-21T22:51:44.816Z</time>
      </trkpt>
      <trkpt lat="47.552202" lon="7.949003">
        <ele>290.859254</ele>
        <time>2021-11-21T22:51:49.452Z</time>
      </trkpt>
      <trkpt lat="47.552351" lon="7.949099">
        <ele>290.847798</ele>
        <time>2021-11-21T22:51:55.742Z</time>
      </trkpt>
      <trkpt lat="47.552382" lon="7.949119">
        <ele>290.845414</ele>
        <time>2021-11-21T22:51:57.171Z</time>
      </trkpt>
      <trkpt lat="47.552518" lon="7.949236">
        <ele>290.834325</ele>
        <time>2021-11-21T22:52:03.472Z</time>
      </trkpt>
      <trkpt lat="47.552953" lon="7.948775">
        <ele>290.668690</ele>
        <time>2021-11-21T22:52:24.676Z</time>
      </trkpt>
      <trkpt lat="47.553197" lon="7.948543">
        <ele>290.566311</ele>
        <time>2021-11-21T22:52:35.551Z</time>
      </trkpt>
      <trkpt lat="47.553368" lon="7.948399">
        <ele>290.496854</ele>
        <time>2021-11-21T22:52:49.190Z</time>
      </trkpt>
      <trkpt lat="47.553483" lon="7.948661">
        <ele>290.422367</ele>
        <time>2021-11-21T22:52:56.454Z</time>
      </trkpt>
      <trkpt lat="47.553815" lon="7.949414">
        <ele>290.208003</ele>
        <time>2021-11-21T22:53:16.970Z</time>
      </trkpt>
      <trkpt lat="47.554192" lon="7.950296">
        <ele>289.504955</ele>
        <time>2021-11-21T22:53:40.203Z</time>
      </trkpt>
      <trkpt lat="47.554240" lon="7.950300">
        <ele>289.455048</ele>
        <time>2021-11-21T22:53:41.806Z</time>
      </trkpt>
      <trkpt lat="47.554303" lon="7.950312">
        <ele>289.389111</ele>
        <time>2021-11-21T22:53:42.554Z</time>
      </trkpt>
      <trkpt lat="47.554392" lon="7.950331">
        <ele>289.295767</ele>
        <time>2021-11-21T22:53:43.612Z</time>
      </trkpt>
      <trkpt lat="47.554652" lon="7.950448">
        <ele>289.013694</ele>
        <time>2021-11-21T22:53:46.918Z</time>
      </trkpt>
      <trkpt lat="47.554759" lon="7.950515">
        <ele>288.893108</ele>
        <time>2021-11-21T22:53:48.294Z</time>
      </trkpt>
      <trkpt lat="47.554954" lon="7.950665">
        <ele>288.665030</ele>
        <time>2021-11-21T22:53:51.003Z</time>
      </trkpt>
      <trkpt lat="47.555474" lon="7.951144">
        <ele>288.335743</ele>
        <time>2021-11-21T22:53:58.718Z</time>
      </trkpt>
      <trkpt lat="47.555687" lon="7.951449">
        <ele>288.345595</ele>
        <time>2021-11-21T22:54:02.809Z</time>
      </trkpt>
      <trkpt lat="47.556339" lon="7.952382">
        <ele>288.375742</ele>
        <time>2021-11-21T22:54:16.871Z</time>
      </trkpt>
      <trkpt lat="47.556386" lon="7.952449">
        <ele>288.377912</ele>
        <time>2021-11-21T22:54:18.040Z</time>
      </trkpt>
      <trkpt lat="47.556400" lon="7.952468">
        <ele>288.378543</ele>
        <time>2021-11-21T22:54:18.352Z</time>
      </trkpt>
      <trkpt lat="47.557120" lon="7.953536">
        <ele>288.850004</ele>
        <time>2021-11-21T22:54:36.380Z</time>
      </trkpt>
      <trkpt lat="47.557517" lon="7.954117">
        <ele>289.176512</ele>
        <time>2021-11-21T22:54:46.226Z</time>
      </trkpt>
      <trkpt lat="47.557687" lon="7.954371">
        <ele>289.317779</ele>
        <time>2021-11-21T22:54:50.340Z</time>
      </trkpt>
      <trkpt lat="47.557874" lon="7.954579">
        <ele>289.437410</ele>
        <time>2021-11-21T22:54:54.067Z</time>
      </trkpt>
      <trkpt lat="47.557899" lon="7.954581">
        <ele>289.436371</ele>
        <time>2021-11-21T22:54:54.564Z</time>
      </trkpt>
      <trkpt lat="47.557935" lon="7.954571">
        <ele>289.434850</ele>
        <time>2021-11-21T22:54:55.214Z</time>
      </trkpt>
      <trkpt lat="47.558070" lon="7.954468">
        <ele>289.428546</ele>
        <time>2021-11-21T22:54:57.583Z</time>
      </trkpt>
      <trkpt lat="47.558107" lon="7.954410">
        <ele>289.426310</ele>
        <time>2021-11-21T22:54:58.513Z</time>
      </trkpt>
      <trkpt lat="47.558161" lon="7.954466">
        <ele>289.423574</ele>
        <time>2021-11-21T22:54:59.505Z</time>
      </trkpt>
      <trkpt lat="47.558201" lon="7.954539">
        <ele>289.420939</ele>
        <time>2021-11-21T22:55:00.587Z</time>
      </trkpt>
      <trkpt lat="47.558360" lon="7.955074">
        <ele>289.404561</ele>
        <time>2021-11-21T22:55:06.791Z</time>
      </trkpt>
      <trkpt lat="47.558659" lon="7.956055">
        <ele>289.374403</ele>
        <time>2021-11-21T22:55:17.092Z</time>
      </trkpt>
      <trkpt lat="47.558756" lon="7.956469">
        <ele>289.341084</ele>
        <time>2021-11-21T22:55:20.985Z</time>
      </trkpt>
      <trkpt lat="47.559224" lon="7.958738">
        <ele>288.475759</ele>
        <time>2021-11-21T22:55:41.429Z</time>
      </trkpt>
      <trkpt lat="47.559324" lon="7.959601">
        <ele>288.558810</ele>
        <time>2021-11-21T22:55:49.787Z</time>
      </trkpt>
      <trkpt lat="47.559346" lon="7.959868">
        <ele>288.628415</ele>
        <time>2021-11-21T22:55:52.881Z</time>
      </trkpt>
      <trkpt lat="47.559406" lon="7.960730">
        <ele>288.852657</ele>
        <time>2021-11-21T22:56:02.364Z</time>
      </trkpt>
      <trkpt lat="47.559408" lon="7.961845">
        <ele>289.176194</ele>
        <time>2021-11-21T22:56:16.129Z</time>
      </trkpt>
      <trkpt lat="47.559368" lon="7.962709">
        <ele>289.531752</ele>
        <time>2021-11-21T22:56:27.371Z</time>
      </trkpt>
      <trkpt lat="47.559232" lon="7.963800">
        <ele>289.987253</ele>
        <time>2021-11-21T22:56:39.963Z</time>
      </trkpt>
      <trkpt lat="47.559029" lon="7.964894">
        <ele>290.099879</ele>
        <time>2021-11-21T22:56:51.666Z</time>
      </trkpt>
      <trkpt lat="47.558949" lon="7.965326">
        <ele>290.049527</ele>
        <time>2021-11-21T22:56:55.902Z</time>
      </trkpt>
      <trkpt lat="47.558732" lon="7.966356">
        <ele>289.928243</ele>
        <time>2021-11-21T22:57:05.785Z</time>
      </trkpt>
      <trkpt lat="47.558606" lon="7.966985">
        <ele>289.882850</ele>
        <time>2021-11-21T22:57:12.041Z</time>
      </trkpt>
      <trkpt lat="47.558448" lon="7.967701">
        <ele>289.908751</ele>
        <time>2021-11-21T22:57:19.295Z</time>
      </trkpt>
      <trkpt lat="47.558430" lon="7.967788">
        <ele>289.911880</ele>
        <time>2021-11-21T22:57:20.179Z</time>
      </trkpt>
      <trkpt lat="47.558327" lon="7.968108">
        <ele>289.924070</ele>
        <time>2021-11-21T22:57:24.132Z</time>
      </trkpt>
      <trkpt lat="47.558313" lon="7.968259">
        <ele>289.929311</ele>
        <time>2021-11-21T22:57:25.591Z</time>
      </trkpt>
      <trkpt lat="47.558296" lon="7.968403">
        <ele>289.934337</ele>
        <time>2021-11-21T22:57:27.394Z</time>
      </trkpt>
      <trkpt lat="47.558225" lon="7.968807">
        <ele>289.948691</ele>
        <time>2021-11-21T22:57:31.847Z</time>
      </trkpt>
      <trkpt lat="47.558045" lon="7.969704">
        <ele>289.922175</ele>
        <time>2021-11-21T22:57:41.418Z</time>
      </trkpt>
      <trkpt lat="47.557756" lon="7.971140">
        <ele>289.741408</ele>
        <time>2021-11-21T22:57:56.109Z</time>
      </trkpt>
      <trkpt lat="47.557538" lon="7.972196">
        <ele>289.627576</ele>
        <time>2021-11-21T22:58:05.793Z</time>
      </trkpt>
      <trkpt lat="47.557419" lon="7.972636">
        <ele>289.599454</ele>
        <time>2021-11-21T22:58:10.048Z</time>
      </trkpt>
      <trkpt lat="47.557323" lon="7.972992">
        <ele>289.576710</ele>
        <time>2021-11-21T22:58:13.665Z</time>
      </trkpt>
      <trkpt lat="47.557235" lon="7.973507">
        <ele>289.545192</ele>
        <time>2021-11-21T22:58:18.743Z</time>
      </trkpt>
      <trkpt lat="47.557108" lon="7.974186">
        <ele>289.503390</ele>
        <time>2021-11-21T22:58:25.895Z</time>
      </trkpt>
      <trkpt lat="47.557045" lon="7.974526">
        <ele>289.542878</ele>
        <time>2021-11-21T22:58:29.930Z</time>
      </trkpt>
      <trkpt lat="47.556769" lon="7.976421">
        <ele>290.638299</ele>
        <time>2021-11-21T22:58:54.090Z</time>
      </trkpt>
      <trkpt lat="47.556668" lon="7.978159">
        <ele>291.263619</ele>
        <time>2021-11-21T22:59:16.004Z</time>
      </trkpt>
      <trkpt lat="47.557185" lon="7.988787">
        <ele>293.685672</ele>
        <time>2021-11-21T23:01:10.339Z</time>
      </trkpt>
      <trkpt lat="47.557298" lon="7.990679">
        <ele>294.151918</ele>
        <time>2021-11-21T23:01:31.563Z</time>
      </trkpt>
      <trkpt lat="47.557377" lon="7.991413">
        <ele>294.304337</ele>
        <time>2021-11-21T23:01:39.850Z</time>
      </trkpt>
      <trkpt lat="47.557666" lon="7.996934">
        <ele>295.448493</ele>
        <time>2021-11-21T23:02:38.707Z</time>
      </trkpt>
      <trkpt lat="47.557611" lon="7.998828">
        <ele>296.080193</ele>
        <time>2021-11-21T23:03:01.334Z</time>
      </trkpt>
      <trkpt lat="47.557595" lon="7.999065">
        <ele>296.157545</ele>
        <time>2021-11-21T23:03:04.359Z</time>
      </trkpt>
      <trkpt lat="47.557590" lon="7.999121">
        <ele>296.175890</ele>
        <time>2021-11-21T23:03:05.018Z</time>
      </trkpt>
      <trkpt lat="47.557569" lon="7.999330">
        <ele>296.244512</ele>
        <time>2021-11-21T23:03:10.606Z</time>
      </trkpt>
      <trkpt lat="47.557552" lon="7.999488">
        <ele>296.296472</ele>
        <time>2021-11-21T23:03:12.624Z</time>
      </trkpt>
      <trkpt lat="47.557421" lon="8.000151">
        <ele>296.520826</ele>
        <time>2021-11-21T23:03:20.822Z</time>
      </trkpt>
      <trkpt lat="47.556859" lon="8.003033">
        <ele>296.563814</ele>
        <time>2021-11-21T23:03:50.536Z</time>
      </trkpt>
      <trkpt lat="47.556414" lon="8.004608">
        <ele>295.982217</ele>
        <time>2021-11-21T23:04:05.304Z</time>
      </trkpt>
      <trkpt lat="47.555689" lon="8.008075">
        <ele>294.325219</ele>
        <time>2021-11-21T23:04:36.972Z</time>
      </trkpt>
      <trkpt lat="47.555492" lon="8.008854">
        <ele>293.876438</ele>
        <time>2021-11-21T23:04:43.992Z</time>
      </trkpt>
      <trkpt lat="47.555373" lon="8.009365">
        <ele>293.544844</ele>
        <time>2021-11-21T23:04:48.476Z</time>
      </trkpt>
      <trkpt lat="47.555124" lon="8.010557">
        <ele>292.779420</ele>
        <time>2021-11-21T23:04:58.805Z</time>
      </trkpt>
      <trkpt lat="47.555069" lon="8.010772">
        <ele>292.638378</ele>
        <time>2021-11-21T23:05:00.636Z</time>
      </trkpt>
      <trkpt lat="47.554818" lon="8.011865">
        <ele>292.262039</ele>
        <time>2021-11-21T23:05:10.341Z</time>
      </trkpt>
      <trkpt lat="47.554682" lon="8.012449">
        <ele>292.111683</ele>
        <time>2021-11-21T23:05:16.045Z</time>
      </trkpt>
      <trkpt lat="47.554665" lon="8.012540">
        <ele>292.088703</ele>
        <time>2021-11-21T23:05:16.884Z</time>
      </trkpt>
      <trkpt lat="47.554546" lon="8.013079">
        <ele>291.950682</ele>
        <time>2021-11-21T23:05:22.386Z</time>
      </trkpt>
      <trkpt lat="47.554393" lon="8.013577">
        <ele>291.852952</ele>
        <time>2021-11-21T23:05:28.169Z</time>
      </trkpt>
      <trkpt lat="47.554329" lon="8.013807">
        <ele>291.943742</ele>
        <time>2021-11-21T23:05:31.043Z</time>
      </trkpt>
      <trkpt lat="47.553882" lon="8.015749">
        <ele>292.692538</ele>
        <time>2021-11-21T23:05:54.845Z</time>
      </trkpt>
      <trkpt lat="47.553715" lon="8.016236">
        <ele>292.889819</ele>
        <time>2021-11-21T23:06:01.307Z</time>
      </trkpt>
      <trkpt lat="47.553318" lon="8.017064">
        <ele>293.251721</ele>
        <time>2021-11-21T23:06:13.190Z</time>
      </trkpt>
      <trkpt lat="47.553229" lon="8.017328">
        <ele>293.356872</ele>
        <time>2021-11-21T23:06:16.800Z</time>
      </trkpt>
      <trkpt lat="47.553159" lon="8.017677">
        <ele>293.486602</ele>
        <time>2021-11-21T23:06:21.400Z</time>
      </trkpt>
      <trkpt lat="47.553012" lon="8.018748">
        <ele>293.829703</ele>
        <time>2021-11-21T23:06:33.028Z</time>
      </trkpt>
      <trkpt lat="47.553028" lon="8.018988">
        <ele>293.883044</ele>
        <time>2021-11-21T23:06:35.352Z</time>
      </trkpt>
      <trkpt lat="47.553030" lon="8.019182">
        <ele>293.925957</ele>
        <time>2021-11-21T23:06:37.046Z</time>
      </trkpt>
      <trkpt lat="47.553055" lon="8.019647">
        <ele>294.029131</ele>
        <time>2021-11-21T23:06:41.729Z</time>
      </trkpt>
      <trkpt lat="47.553064" lon="8.019820">
        <ele>294.067508</ele>
        <time>2021-11-21T23:06:43.254Z</time>
      </trkpt>
      <trkpt lat="47.553056" lon="8.019871">
        <ele>294.079089</ele>
        <time>2021-11-21T23:06:43.744Z</time>
      </trkpt>
      <trkpt lat="47.553031" lon="8.019915">
        <ele>294.091810</ele>
        <time>2021-11-21T23:06:44.394Z</time>
      </trkpt>
      <trkpt lat="47.552961" lon="8.019989">
        <ele>294.119990</ele>
        <time>2021-11-21T23:06:45.847Z</time>
      </trkpt>
      <trkpt lat="47.552879" lon="8.020034">
        <ele>294.148647</ele>
        <time>2021-11-21T23:06:47.425Z</time>
      </trkpt>
      <trkpt lat="47.552872" lon="8.020109">
        <ele>294.165393</ele>
        <time>2021-11-21T23:06:48.038Z</time>
      </trkpt>
      <trkpt lat="47.552813" lon="8.020595">
        <ele>294.274611</ele>
        <time>2021-11-21T23:06:53.862Z</time>
      </trkpt>
      <trkpt lat="47.552776" lon="8.021316">
        <ele>295.097011</ele>
        <time>2021-11-21T23:07:02.844Z</time>
      </trkpt>
      <trkpt lat="47.552776" lon="8.021316">
        <ele>295.097011</ele>
        <time>2021-11-21T23:07:02.847Z</time>
      </trkpt>
      <trkpt lat="47.552776" lon="8.021316">
        <ele>295.097011</ele>
        <time>2021-11-21T23:07:02.878Z</time>
      </trkpt>
      <trkpt lat="47.552959" lon="8.021335">
        <ele>295.593743</ele>
        <time>2021-11-21T23:07:06.891Z</time>
      </trkpt>
      <trkpt lat="47.553183" lon="8.021466">
        <ele>296.245814</ele>
        <time>2021-11-21T23:07:11.566Z</time>
      </trkpt>
      <trkpt lat="47.553232" lon="8.021484">
        <ele>296.382510</ele>
        <time>2021-11-21T23:07:12.889Z</time>
      </trkpt>
      <trkpt lat="47.553266" lon="8.021493">
        <ele>296.476031</ele>
        <time>2021-11-21T23:07:13.686Z</time>
      </trkpt>
      <trkpt lat="47.553291" lon="8.021502">
        <ele>296.545694</ele>
        <time>2021-11-21T23:07:14.361Z</time>
      </trkpt>
      <trkpt lat="47.553305" lon="8.021505">
        <ele>296.583997</ele>
        <time>2021-11-21T23:07:14.717Z</time>
      </trkpt>
      <trkpt lat="47.553565" lon="8.021501">
        <ele>297.288048</ele>
        <time>2021-11-21T23:07:21.287Z</time>
      </trkpt>
      <trkpt lat="47.553607" lon="8.021497">
        <ele>297.402008</ele>
        <time>2021-11-21T23:07:22.464Z</time>
      </trkpt>
      <trkpt lat="47.553614" lon="8.021587">
        <ele>297.567568</ele>
        <time>2021-11-21T23:07:24.127Z</time>
      </trkpt>
      <trkpt lat="47.553615" lon="8.021606">
        <ele>297.602395</ele>
        <time>2021-11-21T23:07:24.511Z</time>
      </trkpt>
      <trkpt lat="47.553619" lon="8.021667">
        <ele>297.714395</ele>
        <time>2021-11-21T23:07:25.750Z</time>
      </trkpt>
      <trkpt lat="47.553687" lon="8.021682">
        <ele>297.900551</ele>
        <time>2021-11-21T23:07:27.906Z</time>
      </trkpt>
      <trkpt lat="47.553878" lon="8.021738">
        <ele>298.427758</ele>
        <time>2021-11-21T23:07:33.971Z</time>
      </trkpt>
      <trkpt lat="47.553961" lon="8.021754">
        <ele>298.654395</ele>
        <time>2021-11-21T23:07:36.801Z</time>
      </trkpt>
      <trkpt lat="47.554086" lon="8.021778">
        <ele>298.995693</ele>
        <time>2021-11-21T23:07:41.137Z</time>
      </trkpt>
      <trkpt lat="47.554332" lon="8.021803">
        <ele>300.089097</ele>
        <time>2021-11-21T23:07:49.661Z</time>
      </trkpt>
      <trkpt lat="47.554468" lon="8.021743">
        <ele>300.837021</ele>
        <time>2021-11-21T23:07:54.640Z</time>
      </trkpt>
      <trkpt lat="47.554589" lon="8.021606">
        <ele>301.639664</ele>
        <time>2021-11-21T23:07:59.697Z</time>
      </trkpt>
      <trkpt lat="47.554743" lon="8.021466">
        <ele>302.591958</ele>
        <time>2021-11-21T23:08:06.294Z</time>
      </trkpt>
      <trkpt lat="47.554958" lon="8.021349">
        <ele>303.799182</ele>
        <time>2021-11-21T23:08:13.750Z</time>
      </trkpt>
      <trkpt lat="47.555346" lon="8.021253">
        <ele>305.872556</ele>
        <time>2021-11-21T23:08:27.903Z</time>
      </trkpt>
      <trkpt lat="47.555521" lon="8.021257">
        <ele>306.795051</ele>
        <time>2021-11-21T23:08:34.326Z</time>
      </trkpt>
      <trkpt lat="47.555963" lon="8.021294">
        <ele>309.220324</ele>
        <time>2021-11-21T23:08:51.872Z</time>
      </trkpt>
      <trkpt lat="47.556296" lon="8.021331">
        <ele>311.352497</ele>
        <time>2021-11-21T23:09:06.040Z</time>
      </trkpt>
      <trkpt lat="47.556552" lon="8.021260">
        <ele>313.015441</ele>
        <time>2021-11-21T23:09:16.012Z</time>
      </trkpt>
      <trkpt lat="47.556632" lon="8.021199">
        <ele>313.589902</ele>
        <time>2021-11-21T23:09:19.347Z</time>
      </trkpt>
      <trkpt lat="47.556709" lon="8.021127">
        <ele>314.171252</ele>
        <time>2021-11-21T23:09:22.465Z</time>
      </trkpt>
      <trkpt lat="47.556718" lon="8.021112">
        <ele>314.257739</ele>
        <time>2021-11-21T23:09:23.034Z</time>
      </trkpt>
      <trkpt lat="47.556775" lon="8.021020">
        <ele>314.795892</ele>
        <time>2021-11-21T23:09:26.559Z</time>
      </trkpt>
      <trkpt lat="47.556880" lon="8.020827">
        <ele>315.864106</ele>
        <time>2021-11-21T23:09:33.178Z</time>
      </trkpt>
      <trkpt lat="47.556951" lon="8.020734">
        <ele>316.469168</ele>
        <time>2021-11-21T23:09:36.390Z</time>
      </trkpt>
      <trkpt lat="47.557049" lon="8.020675">
        <ele>317.144571</ele>
        <time>2021-11-21T23:09:40.890Z</time>
      </trkpt>
      <trkpt lat="47.557140" lon="8.020649">
        <ele>317.736308</ele>
        <time>2021-11-21T23:09:45.467Z</time>
      </trkpt>
      <trkpt lat="47.557326" lon="8.020583">
        <ele>318.957494</ele>
        <time>2021-11-21T23:09:52.527Z</time>
      </trkpt>
      <trkpt lat="47.557406" lon="8.020509">
        <ele>319.559647</ele>
        <time>2021-11-21T23:09:56.781Z</time>
      </trkpt>
      <trkpt lat="47.557453" lon="8.020436">
        <ele>319.994387</ele>
        <time>2021-11-21T23:10:00.663Z</time>
      </trkpt>
      <trkpt lat="47.557491" lon="8.020177">
        <ele>321.194420</ele>
        <time>2021-11-21T23:10:07.593Z</time>
      </trkpt>
      <trkpt lat="47.557398" lon="8.019696">
        <ele>323.480776</ele>
        <time>2021-11-21T23:10:22.613Z</time>
      </trkpt>
      <trkpt lat="47.557390" lon="8.019571">
        <ele>324.054526</ele>
        <time>2021-11-21T23:10:26.590Z</time>
      </trkpt>
      <trkpt lat="47.557414" lon="8.019414">
        <ele>324.790113</ele>
        <time>2021-11-21T23:10:32.023Z</time>
      </trkpt>
      <trkpt lat="47.557532" lon="8.018992">
        <ele>326.877415</ele>
        <time>2021-11-21T23:10:44.350Z</time>
      </trkpt>
      <trkpt lat="47.557566" lon="8.018865">
        <ele>327.501737</ele>
        <time>2021-11-21T23:10:49.093Z</time>
      </trkpt>
      <trkpt lat="47.557700" lon="8.018487">
        <ele>329.452810</ele>
        <time>2021-11-21T23:10:59.123Z</time>
      </trkpt>
      <trkpt lat="47.557746" lon="8.018355">
        <ele>330.131654</ele>
        <time>2021-11-21T23:11:03.526Z</time>
      </trkpt>
      <trkpt lat="47.557944" lon="8.018030">
        <ele>332.132372</ele>
        <time>2021-11-21T23:11:15.152Z</time>
      </trkpt>
      <trkpt lat="47.558167" lon="8.017713">
        <ele>334.370209</ele>
        <time>2021-11-21T23:11:28.028Z</time>
      </trkpt>
      <trkpt lat="47.558238" lon="8.017607">
        <ele>335.105785</ele>
        <time>2021-11-21T23:11:32.423Z</time>
      </trkpt>
      <trkpt lat="47.558302" lon="8.017520">
        <ele>335.739648</ele>
        <time>2021-11-21T23:11:35.993Z</time>
      </trkpt>
      <trkpt lat="47.558316" lon="8.017494">
        <ele>335.903471</ele>
        <time>2021-11-21T23:11:37.643Z</time>
      </trkpt>
      <trkpt lat="47.558404" lon="8.017331">
        <ele>336.931571</ele>
        <time>2021-11-21T23:11:42.795Z</time>
      </trkpt>
      <trkpt lat="47.558419" lon="8.017286">
        <ele>337.178768</ele>
        <time>2021-11-21T23:11:44.234Z</time>
      </trkpt>
      <trkpt lat="47.558456" lon="8.017175">
        <ele>337.788519</ele>
        <time>2021-11-21T23:11:48.011Z</time>
      </trkpt>
      <trkpt lat="47.558467" lon="8.016819">
        <ele>339.543723</ele>
        <time>2021-11-21T23:11:58.244Z</time>
      </trkpt>
      <trkpt lat="47.558472" lon="8.016633">
        <ele>340.460535</ele>
        <time>2021-11-21T23:12:03.633Z</time>
      </trkpt>
      <trkpt lat="47.558468" lon="8.016544">
        <ele>340.899847</ele>
        <time>2021-11-21T23:12:05.980Z</time>
      </trkpt>
      <trkpt lat="47.558466" lon="8.016482">
        <ele>341.205558</ele>
        <time>2021-11-21T23:12:09.120Z</time>
      </trkpt>
      <trkpt lat="47.558477" lon="8.015998">
        <ele>343.590700</ele>
        <time>2021-11-21T23:12:22.682Z</time>
      </trkpt>
      <trkpt lat="47.558647" lon="8.015459">
        <ele>346.727956</ele>
        <time>2021-11-21T23:12:43.022Z</time>
      </trkpt>
      <trkpt lat="47.559052" lon="8.014792">
        <ele>352.029083</ele>
        <time>2021-11-21T23:13:12.886Z</time>
      </trkpt>
      <trkpt lat="47.559301" lon="8.014552">
        <ele>354.629651</ele>
        <time>2021-11-21T23:13:29.588Z</time>
      </trkpt>
      <trkpt lat="47.559783" lon="8.014275">
        <ele>359.155785</ele>
        <time>2021-11-21T23:13:55.770Z</time>
      </trkpt>
      <trkpt lat="47.559980" lon="8.014260">
        <ele>360.882794</ele>
        <time>2021-11-21T23:14:05.716Z</time>
      </trkpt>
      <trkpt lat="47.560319" lon="8.014395">
        <ele>363.484520</ele>
        <time>2021-11-21T23:14:21.873Z</time>
      </trkpt>
      <trkpt lat="47.560683" lon="8.014628">
        <ele>366.355226</ele>
        <time>2021-11-21T23:14:38.360Z</time>
      </trkpt>
      <trkpt lat="47.560834" lon="8.014633">
        <ele>367.448738</ele>
        <time>2021-11-21T23:14:43.877Z</time>
      </trkpt>
      <trkpt lat="47.560957" lon="8.014567">
        <ele>368.395838</ele>
        <time>2021-11-21T23:14:50.100Z</time>
      </trkpt>
      <trkpt lat="47.560995" lon="8.014547">
        <ele>368.687794</ele>
        <time>2021-11-21T23:14:51.004Z</time>
      </trkpt>
      <trkpt lat="47.561174" lon="8.014255">
        <ele>370.615140</ele>
        <time>2021-11-21T23:15:03.707Z</time>
      </trkpt>
      <trkpt lat="47.561324" lon="8.013664">
        <ele>373.699986</ele>
        <time>2021-11-21T23:15:22.545Z</time>
      </trkpt>
      <trkpt lat="47.561442" lon="8.013448">
        <ele>375.057623</ele>
        <time>2021-11-21T23:15:29.185Z</time>
      </trkpt>
      <trkpt lat="47.561619" lon="8.013259">
        <ele>376.636901</ele>
        <time>2021-11-21T23:15:39.129Z</time>
      </trkpt>
      <trkpt lat="47.561899" lon="8.013170">
        <ele>378.709925</ele>
        <time>2021-11-21T23:15:52.098Z</time>
      </trkpt>
      <trkpt lat="47.562066" lon="8.013151">
        <ele>379.922398</ele>
        <time>2021-11-21T23:15:57.868Z</time>
      </trkpt>
      <trkpt lat="47.562148" lon="8.013140">
        <ele>380.518424</ele>
        <time>2021-11-21T23:16:00.788Z</time>
      </trkpt>
      <trkpt lat="47.562228" lon="8.013107">
        <ele>381.119562</ele>
        <time>2021-11-21T23:16:05.159Z</time>
      </trkpt>
      <trkpt lat="47.562467" lon="8.013027">
        <ele>382.893271</ele>
        <time>2021-11-21T23:16:14.841Z</time>
      </trkpt>
      <trkpt lat="47.562986" lon="8.012625">
        <ele>387.132543</ele>
        <time>2021-11-21T23:16:42.721Z</time>
      </trkpt>
      <trkpt lat="47.563093" lon="8.012604">
        <ele>387.806074</ele>
        <time>2021-11-21T23:16:47.346Z</time>
      </trkpt>
      <trkpt lat="47.563207" lon="8.012665">
        <ele>388.535698</ele>
        <time>2021-11-21T23:16:54.377Z</time>
      </trkpt>
      <trkpt lat="47.563289" lon="8.012797">
        <ele>389.264508</ele>
        <time>2021-11-21T23:17:00.059Z</time>
      </trkpt>
      <trkpt lat="47.563524" lon="8.013612">
        <ele>392.864647</ele>
        <time>2021-11-21T23:17:26.299Z</time>
      </trkpt>
      <trkpt lat="47.563694" lon="8.013972">
        <ele>394.649494</ele>
        <time>2021-11-21T23:17:36.024Z</time>
      </trkpt>
      <trkpt lat="47.563758" lon="8.014030">
        <ele>395.101088</ele>
        <time>2021-11-21T23:17:39.592Z</time>
      </trkpt>
      <trkpt lat="47.563908" lon="8.014085">
        <ele>396.031290</ele>
        <time>2021-11-21T23:17:44.372Z</time>
      </trkpt>
      <trkpt lat="47.564241" lon="8.013975">
        <ele>398.085086</ele>
        <time>2021-11-21T23:17:55.217Z</time>
      </trkpt>
      <trkpt lat="47.564751" lon="8.013465">
        <ele>399.203642</ele>
        <time>2021-11-21T23:18:11.765Z</time>
      </trkpt>
      <trkpt lat="47.565338" lon="8.012662">
        <ele>400.641236</ele>
        <time>2021-11-21T23:18:26.655Z</time>
      </trkpt>
      <trkpt lat="47.565501" lon="8.012111">
        <ele>401.393776</ele>
        <time>2021-11-21T23:18:33.231Z</time>
      </trkpt>
      <trkpt lat="47.565472" lon="8.011708">
        <ele>402.207630</ele>
        <time>2021-11-21T23:18:38.179Z</time>
      </trkpt>
      <trkpt lat="47.565220" lon="8.011190">
        <ele>403.489999</ele>
        <time>2021-11-21T23:18:47.042Z</time>
      </trkpt>
      <trkpt lat="47.565079" lon="8.011063">
        <ele>403.981046</ele>
        <time>2021-11-21T23:18:50.916Z</time>
      </trkpt>
      <trkpt lat="47.564831" lon="8.010977">
        <ele>404.739049</ele>
        <time>2021-11-21T23:18:57.364Z</time>
      </trkpt>
      <trkpt lat="47.564410" lon="8.011026">
        <ele>405.995836</ele>
        <time>2021-11-21T23:19:10.330Z</time>
      </trkpt>
      <trkpt lat="47.564251" lon="8.010805">
        <ele>406.644584</ele>
        <time>2021-11-21T23:19:18.266Z</time>
      </trkpt>
      <trkpt lat="47.564285" lon="8.010543">
        <ele>408.063252</ele>
        <time>2021-11-21T23:19:25.534Z</time>
      </trkpt>
      <trkpt lat="47.564366" lon="8.010437">
        <ele>408.965105</ele>
        <time>2021-11-21T23:19:30.265Z</time>
      </trkpt>
      <trkpt lat="47.564876" lon="8.010157">
        <ele>413.504202</ele>
        <time>2021-11-21T23:19:56.212Z</time>
      </trkpt>
      <trkpt lat="47.565384" lon="8.009424">
        <ele>419.421483</ele>
        <time>2021-11-21T23:20:33.766Z</time>
      </trkpt>
      <trkpt lat="47.565625" lon="8.009299">
        <ele>421.552467</ele>
        <time>2021-11-21T23:20:47.503Z</time>
      </trkpt>
      <trkpt lat="47.566213" lon="8.009186">
        <ele>426.534756</ele>
        <time>2021-11-21T23:21:18.936Z</time>
      </trkpt>
      <trkpt lat="47.566636" lon="8.009033">
        <ele>430.194295</ele>
        <time>2021-11-21T23:21:41.095Z</time>
      </trkpt>
      <trkpt lat="47.567295" lon="8.008508">
        <ele>436.482467</ele>
        <time>2021-11-21T23:22:14.678Z</time>
      </trkpt>
      <trkpt lat="47.567593" lon="8.008428">
        <ele>438.365541</ele>
        <time>2021-11-21T23:22:27.771Z</time>
      </trkpt>
      <trkpt lat="47.568942" lon="8.008356">
        <ele>446.308443</ele>
        <time>2021-11-21T23:23:19.754Z</time>
      </trkpt>
      <trkpt lat="47.569032" lon="8.008394">
        <ele>446.859089</ele>
        <time>2021-11-21T23:23:23.266Z</time>
      </trkpt>
      <trkpt lat="47.569090" lon="8.008418">
        <ele>447.213422</ele>
        <time>2021-11-21T23:23:24.801Z</time>
      </trkpt>
      <trkpt lat="47.569232" lon="8.008468">
        <ele>447.673060</ele>
        <time>2021-11-21T23:23:30.382Z</time>
      </trkpt>
      <trkpt lat="47.569356" lon="8.008548">
        <ele>447.994199</ele>
        <time>2021-11-21T23:23:34.101Z</time>
      </trkpt>
      <trkpt lat="47.569733" lon="8.009325">
        <ele>449.527540</ele>
        <time>2021-11-21T23:23:51.706Z</time>
      </trkpt>
      <trkpt lat="47.569881" lon="8.009480">
        <ele>449.957866</ele>
        <time>2021-11-21T23:23:55.778Z</time>
      </trkpt>
      <trkpt lat="47.569985" lon="8.009558">
        <ele>450.234644</ele>
        <time>2021-11-21T23:23:58.897Z</time>
      </trkpt>
      <trkpt lat="47.570110" lon="8.009604">
        <ele>450.540484</ele>
        <time>2021-11-21T23:24:00.795Z</time>
      </trkpt>
      <trkpt lat="47.570537" lon="8.009765">
        <ele>451.586742</ele>
        <time>2021-11-21T23:24:08.481Z</time>
      </trkpt>
      <trkpt lat="47.570679" lon="8.009960">
        <ele>451.750997</ele>
        <time>2021-11-21T23:24:11.362Z</time>
      </trkpt>
      <trkpt lat="47.570901" lon="8.010376">
        <ele>451.926558</ele>
        <time>2021-11-21T23:24:16.453Z</time>
      </trkpt>
      <trkpt lat="47.571091" lon="8.010633">
        <ele>452.052752</ele>
        <time>2021-11-21T23:24:20.481Z</time>
      </trkpt>
      <trkpt lat="47.571221" lon="8.010706">
        <ele>452.120953</ele>
        <time>2021-11-21T23:24:22.142Z</time>
      </trkpt>
      <trkpt lat="47.571485" lon="8.010679">
        <ele>452.250779</ele>
        <time>2021-11-21T23:24:26.106Z</time>
      </trkpt>
      <trkpt lat="47.571642" lon="8.010477">
        <ele>452.352774</ele>
        <time>2021-11-21T23:24:29.047Z</time>
      </trkpt>
      <trkpt lat="47.571749" lon="8.009974">
        <ele>452.527341</ele>
        <time>2021-11-21T23:24:34.974Z</time>
      </trkpt>
      <trkpt lat="47.571538" lon="8.008187">
        <ele>457.200356</ele>
        <time>2021-11-21T23:25:08.256Z</time>
      </trkpt>
      <trkpt lat="47.571577" lon="8.007177">
        <ele>460.126155</ele>
        <time>2021-11-21T23:25:33.977Z</time>
      </trkpt>
      <trkpt lat="47.571832" lon="8.005893">
        <ele>467.531196</ele>
        <time>2021-11-21T23:26:16.219Z</time>
      </trkpt>
      <trkpt lat="47.571947" lon="8.005585">
        <ele>469.478729</ele>
        <time>2021-11-21T23:26:28.558Z</time>
      </trkpt>
      <trkpt lat="47.572250" lon="8.005072">
        <ele>473.250811</ele>
        <time>2021-11-21T23:26:52.070Z</time>
      </trkpt>
      <trkpt lat="47.572545" lon="8.004649">
        <ele>476.494068</ele>
        <time>2021-11-21T23:27:13.473Z</time>
      </trkpt>
      <trkpt lat="47.572581" lon="8.004598">
        <ele>476.879031</ele>
        <time>2021-11-21T23:27:16.498Z</time>
      </trkpt>
      <trkpt lat="47.572812" lon="8.004145">
        <ele>479.840538</ele>
        <time>2021-11-21T23:27:35.715Z</time>
      </trkpt>
      <trkpt lat="47.572894" lon="8.003925">
        <ele>481.151376</ele>
        <time>2021-11-21T23:27:43.250Z</time>
      </trkpt>
      <trkpt lat="47.572959" lon="8.003732">
        <ele>482.276387</ele>
        <time>2021-11-21T23:27:50.703Z</time>
      </trkpt>
      <trkpt lat="47.573083" lon="8.003074">
        <ele>485.839442</ele>
        <time>2021-11-21T23:28:10.417Z</time>
      </trkpt>
      <trkpt lat="47.573074" lon="8.002958">
        <ele>486.448408</ele>
        <time>2021-11-21T23:28:13.748Z</time>
      </trkpt>
      <trkpt lat="47.573211" lon="8.002587">
        <ele>488.532366</ele>
        <time>2021-11-21T23:28:24.576Z</time>
      </trkpt>
      <trkpt lat="47.573308" lon="8.002463">
        <ele>489.078614</ele>
        <time>2021-11-21T23:28:28.978Z</time>
      </trkpt>
      <trkpt lat="47.573400" lon="8.002344">
        <ele>489.599328</ele>
        <time>2021-11-21T23:28:34.454Z</time>
      </trkpt>
      <trkpt lat="47.573502" lon="8.002634">
        <ele>490.540248</ele>
        <time>2021-11-21T23:28:41.495Z</time>
      </trkpt>
      <trkpt lat="47.573643" lon="8.002920">
        <ele>491.559370</ele>
        <time>2021-11-21T23:28:50.186Z</time>
      </trkpt>
      <trkpt lat="47.573679" lon="8.003065">
        <ele>492.003890</ele>
        <time>2021-11-21T23:28:53.388Z</time>
      </trkpt>
      <trkpt lat="47.573718" lon="8.003157">
        <ele>492.316492</ele>
        <time>2021-11-21T23:28:55.765Z</time>
      </trkpt>
      <trkpt lat="47.573800" lon="8.003256">
        <ele>492.767500</ele>
        <time>2021-11-21T23:28:59.837Z</time>
      </trkpt>
      <trkpt lat="47.574217" lon="8.003704">
        <ele>494.963776</ele>
        <time>2021-11-21T23:29:13.973Z</time>
      </trkpt>
      <trkpt lat="47.574305" lon="8.003732">
        <ele>495.347602</ele>
        <time>2021-11-21T23:29:16.436Z</time>
      </trkpt>
      <trkpt lat="47.574392" lon="8.003728">
        <ele>495.718794</ele>
        <time>2021-11-21T23:29:19.648Z</time>
      </trkpt>
      <trkpt lat="47.574686" lon="8.003684">
        <ele>496.092099</ele>
        <time>2021-11-21T23:29:25.789Z</time>
      </trkpt>
      <trkpt lat="47.574764" lon="8.003762">
        <ele>496.109108</ele>
        <time>2021-11-21T23:29:28.279Z</time>
      </trkpt>
      <trkpt lat="47.575168" lon="8.004892">
        <ele>496.265074</ele>
        <time>2021-11-21T23:29:44.070Z</time>
      </trkpt>
      <trkpt lat="47.575411" lon="8.005256">
        <ele>496.327526</ele>
        <time>2021-11-21T23:29:48.748Z</time>
      </trkpt>
      <trkpt lat="47.575508" lon="8.005404">
        <ele>496.352691</ele>
        <time>2021-11-21T23:29:50.301Z</time>
      </trkpt>
      <trkpt lat="47.575531" lon="8.005431">
        <ele>496.357995</ele>
        <time>2021-11-21T23:29:50.595Z</time>
      </trkpt>
      <trkpt lat="47.575756" lon="8.005585">
        <ele>495.739088</ele>
        <time>2021-11-21T23:29:53.140Z</time>
      </trkpt>
      <trkpt lat="47.575892" lon="8.005591">
        <ele>495.105546</ele>
        <time>2021-11-21T23:29:54.494Z</time>
      </trkpt>
      <trkpt lat="47.576902" lon="8.005070">
        <ele>490.126031</ele>
        <time>2021-11-21T23:30:04.565Z</time>
      </trkpt>
      <trkpt lat="47.577375" lon="8.004938">
        <ele>487.916614</ele>
        <time>2021-11-21T23:30:08.973Z</time>
      </trkpt>
      <trkpt lat="47.577792" lon="8.005044">
        <ele>486.476062</ele>
        <time>2021-11-21T23:30:12.873Z</time>
      </trkpt>
      <trkpt lat="47.578086" lon="8.005441">
        <ele>485.121976</ele>
        <time>2021-11-21T23:30:16.664Z</time>
      </trkpt>
      <trkpt lat="47.578325" lon="8.005530">
        <ele>484.282931</ele>
        <time>2021-11-21T23:30:19.108Z</time>
      </trkpt>
      <trkpt lat="47.578736" lon="8.005500">
        <ele>482.881836</ele>
        <time>2021-11-21T23:30:23.486Z</time>
      </trkpt>
      <trkpt lat="47.579228" lon="8.005324">
        <ele>481.990313</ele>
        <time>2021-11-21T23:30:30.092Z</time>
      </trkpt>
      <trkpt lat="47.579909" lon="8.004868">
        <ele>482.384343</ele>
        <time>2021-11-21T23:30:44.990Z</time>
      </trkpt>
      <trkpt lat="47.580305" lon="8.004384">
        <ele>482.654976</ele>
        <time>2021-11-21T23:30:56.514Z</time>
      </trkpt>
      <trkpt lat="47.580693" lon="8.003731">
        <ele>481.772180</ele>
        <time>2021-11-21T23:31:06.102Z</time>
      </trkpt>
      <trkpt lat="47.581433" lon="8.002768">
        <ele>477.782188</ele>
        <time>2021-11-21T23:31:16.083Z</time>
      </trkpt>
      <trkpt lat="47.581538" lon="8.002492">
        <ele>476.916079</ele>
        <time>2021-11-21T23:31:18.010Z</time>
      </trkpt>
      <trkpt lat="47.581587" lon="8.002199">
        <ele>476.090969</ele>
        <time>2021-11-21T23:31:19.862Z</time>
      </trkpt>
      <trkpt lat="47.581843" lon="8.001622">
        <ele>473.101885</ele>
        <time>2021-11-21T23:31:23.878Z</time>
      </trkpt>
      <trkpt lat="47.582003" lon="8.001392">
        <ele>471.454088</ele>
        <time>2021-11-21T23:31:25.793Z</time>
      </trkpt>
      <trkpt lat="47.582718" lon="8.001131">
        <ele>466.009728</ele>
        <time>2021-11-21T23:31:32.193Z</time>
      </trkpt>
      <trkpt lat="47.582884" lon="8.001201">
        <ele>464.733698</ele>
        <time>2021-11-21T23:31:33.904Z</time>
      </trkpt>
      <trkpt lat="47.583038" lon="8.001422">
        <ele>463.149009</ele>
        <time>2021-11-21T23:31:35.786Z</time>
      </trkpt>
      <trkpt lat="47.583129" lon="8.001600">
        <ele>462.262295</ele>
        <time>2021-11-21T23:31:39.205Z</time>
      </trkpt>
      <trkpt lat="47.583138" lon="8.001749">
        <ele>462.342180</ele>
        <time>2021-11-21T23:31:40.109Z</time>
      </trkpt>
      <trkpt lat="47.582770" lon="8.002301">
        <ele>462.756628</ele>
        <time>2021-11-21T23:31:45.782Z</time>
      </trkpt>
      <trkpt lat="47.582722" lon="8.002476">
        <ele>462.857510</ele>
        <time>2021-11-21T23:31:49.087Z</time>
      </trkpt>
      <trkpt lat="47.582735" lon="8.002783">
        <ele>463.021773</ele>
        <time>2021-11-21T23:31:51.264Z</time>
      </trkpt>
      <trkpt lat="47.582779" lon="8.003036">
        <ele>463.161296</ele>
        <time>2021-11-21T23:31:56.712Z</time>
      </trkpt>
      <trkpt lat="47.582789" lon="8.003167">
        <ele>463.231697</ele>
        <time>2021-11-21T23:31:57.640Z</time>
      </trkpt>
      <trkpt lat="47.582781" lon="8.003305">
        <ele>463.305662</ele>
        <time>2021-11-21T23:31:59.664Z</time>
      </trkpt>
      <trkpt lat="47.582727" lon="8.003464">
        <ele>463.400724</ele>
        <time>2021-11-21T23:32:05.963Z</time>
      </trkpt>
      <trkpt lat="47.582604" lon="8.004164">
        <ele>464.798539</ele>
        <time>2021-11-21T23:32:23.670Z</time>
      </trkpt>
      <trkpt lat="47.582510" lon="8.004377">
        <ele>466.054730</ele>
        <time>2021-11-21T23:32:30.961Z</time>
      </trkpt>
      <trkpt lat="47.582188" lon="8.004718">
        <ele>468.949989</ele>
        <time>2021-11-21T23:32:48.527Z</time>
      </trkpt>
      <trkpt lat="47.581764" lon="8.005054">
        <ele>472.467577</ele>
        <time>2021-11-21T23:33:10.331Z</time>
      </trkpt>
      <trkpt lat="47.581321" lon="8.006142">
        <ele>479.069991</ele>
        <time>2021-11-21T23:33:50.278Z</time>
      </trkpt>
      <trkpt lat="47.581140" lon="8.006991">
        <ele>484.222371</ele>
        <time>2021-11-21T23:34:22.313Z</time>
      </trkpt>
      <trkpt lat="47.580912" lon="8.007336">
        <ele>487.017223</ele>
        <time>2021-11-21T23:34:39.539Z</time>
      </trkpt>
      <trkpt lat="47.579923" lon="8.008040">
        <ele>494.724116</ele>
        <time>2021-11-21T23:35:30.597Z</time>
      </trkpt>
      <trkpt lat="47.579619" lon="8.008172">
        <ele>496.331987</ele>
        <time>2021-11-21T23:35:42.730Z</time>
      </trkpt>
      <trkpt lat="47.578864" lon="8.008842">
        <ele>500.798385</ele>
        <time>2021-11-21T23:36:09.665Z</time>
      </trkpt>
      <trkpt lat="47.578332" lon="8.009223">
        <ele>501.912209</ele>
        <time>2021-11-21T23:36:22.828Z</time>
      </trkpt>
      <trkpt lat="47.578269" lon="8.009376">
        <ele>502.046660</ele>
        <time>2021-11-21T23:36:25.258Z</time>
      </trkpt>
      <trkpt lat="47.578275" lon="8.009410">
        <ele>502.073021</ele>
        <time>2021-11-21T23:36:25.468Z</time>
      </trkpt>
      <trkpt lat="47.578339" lon="8.009582">
        <ele>502.220357</ele>
        <time>2021-11-21T23:36:28.457Z</time>
      </trkpt>
      <trkpt lat="47.578506" lon="8.009815">
        <ele>502.475353</ele>
        <time>2021-11-21T23:36:32.044Z</time>
      </trkpt>
      <trkpt lat="47.578802" lon="8.010247">
        <ele>502.937215</ele>
        <time>2021-11-21T23:36:39.398Z</time>
      </trkpt>
      <trkpt lat="47.578877" lon="8.010552">
        <ele>503.180709</ele>
        <time>2021-11-21T23:36:43.459Z</time>
      </trkpt>
      <trkpt lat="47.578954" lon="8.011222">
        <ele>503.527354</ele>
        <time>2021-11-21T23:36:50.242Z</time>
      </trkpt>
      <trkpt lat="47.578994" lon="8.011565">
        <ele>503.649772</ele>
        <time>2021-11-21T23:36:54.695Z</time>
      </trkpt>
      <trkpt lat="47.579083" lon="8.012800">
        <ele>504.086574</ele>
        <time>2021-11-21T23:37:08.317Z</time>
      </trkpt>
      <trkpt lat="47.579303" lon="8.013994">
        <ele>504.403838</ele>
        <time>2021-11-21T23:37:23.073Z</time>
      </trkpt>
      <trkpt lat="47.579390" lon="8.014221">
        <ele>504.441690</ele>
        <time>2021-11-21T23:37:25.626Z</time>
      </trkpt>
      <trkpt lat="47.579476" lon="8.014445">
        <ele>504.479058</ele>
        <time>2021-11-21T23:37:29.173Z</time>
      </trkpt>
      <trkpt lat="47.579677" lon="8.015285">
        <ele>504.608279</ele>
        <time>2021-11-21T23:37:38.803Z</time>
      </trkpt>
      <trkpt lat="47.579693" lon="8.015395">
        <ele>504.624593</ele>
        <time>2021-11-21T23:37:40.467Z</time>
      </trkpt>
      <trkpt lat="47.579782" lon="8.016013">
        <ele>504.708633</ele>
        <time>2021-11-21T23:37:46.068Z</time>
      </trkpt>
      <trkpt lat="47.579807" lon="8.016479">
        <ele>504.716563</ele>
        <time>2021-11-21T23:37:49.871Z</time>
      </trkpt>
      <trkpt lat="47.579770" lon="8.017313">
        <ele>504.730742</ele>
        <time>2021-11-21T23:37:56.857Z</time>
      </trkpt>
      <trkpt lat="47.579800" lon="8.017631">
        <ele>504.736189</ele>
        <time>2021-11-21T23:38:01.558Z</time>
      </trkpt>
      <trkpt lat="47.579827" lon="8.017916">
        <ele>504.741071</ele>
        <time>2021-11-21T23:38:04.194Z</time>
      </trkpt>
      <trkpt lat="47.579890" lon="8.018812">
        <ele>504.936589</ele>
        <time>2021-11-21T23:38:15.903Z</time>
      </trkpt>
      <trkpt lat="47.579943" lon="8.018927">
        <ele>505.060906</ele>
        <time>2021-11-21T23:38:17.050Z</time>
      </trkpt>
      <trkpt lat="47.580093" lon="8.019071">
        <ele>505.297371</ele>
        <time>2021-11-21T23:38:21.036Z</time>
      </trkpt>
      <trkpt lat="47.580282" lon="8.019086">
        <ele>505.547816</ele>
        <time>2021-11-21T23:38:23.426Z</time>
      </trkpt>
      <trkpt lat="47.580628" lon="8.018939">
        <ele>506.024077</ele>
        <time>2021-11-21T23:38:29.719Z</time>
      </trkpt>
      <trkpt lat="47.580782" lon="8.018916">
        <ele>506.228883</ele>
        <time>2021-11-21T23:38:34.355Z</time>
      </trkpt>
      <trkpt lat="47.580830" lon="8.018918">
        <ele>506.292422</ele>
        <time>2021-11-21T23:38:35.857Z</time>
      </trkpt>
      <trkpt lat="47.580916" lon="8.019035">
        <ele>506.446874</ele>
        <time>2021-11-21T23:38:38.246Z</time>
      </trkpt>
      <trkpt lat="47.580948" lon="8.019213">
        <ele>506.611297</ele>
        <time>2021-11-21T23:38:42.190Z</time>
      </trkpt>
      <trkpt lat="47.580955" lon="8.019317">
        <ele>506.704585</ele>
        <time>2021-11-21T23:38:44.319Z</time>
      </trkpt>
      <trkpt lat="47.581039" lon="8.019934">
        <ele>507.317381</ele>
        <time>2021-11-21T23:39:04.519Z</time>
      </trkpt>
      <trkpt lat="47.581122" lon="8.020572">
        <ele>508.118690</ele>
        <time>2021-11-21T23:39:24.046Z</time>
      </trkpt>
      <trkpt lat="47.581460" lon="8.022287">
        <ele>510.322122</ele>
        <time>2021-11-21T23:40:15.914Z</time>
      </trkpt>
      <trkpt lat="47.581487" lon="8.022614">
        <ele>510.903626</ele>
        <time>2021-11-21T23:40:25.990Z</time>
      </trkpt>
      <trkpt lat="47.581513" lon="8.022860">
        <ele>511.385876</ele>
        <time>2021-11-21T23:40:31.070Z</time>
      </trkpt>
      <trkpt lat="47.581748" lon="8.024404">
        <ele>514.451367</ele>
        <time>2021-11-21T23:41:04.238Z</time>
      </trkpt>
      <trkpt lat="47.581899" lon="8.025089">
        <ele>516.003070</ele>
        <time>2021-11-21T23:41:21.526Z</time>
      </trkpt>
      <trkpt lat="47.582058" lon="8.025575">
        <ele>517.673046</ele>
        <time>2021-11-21T23:41:34.953Z</time>
      </trkpt>
      <trkpt lat="47.582102" lon="8.025700">
        <ele>518.108964</ele>
        <time>2021-11-21T23:41:39.352Z</time>
      </trkpt>
      <trkpt lat="47.582199" lon="8.025829">
        <ele>518.706233</ele>
        <time>2021-11-21T23:41:43.458Z</time>
      </trkpt>
      <trkpt lat="47.582289" lon="8.025933">
        <ele>519.229254</ele>
        <time>2021-11-21T23:41:47.107Z</time>
      </trkpt>
      <trkpt lat="47.582388" lon="8.025991">
        <ele>519.717164</ele>
        <time>2021-11-21T23:41:52.296Z</time>
      </trkpt>
      <trkpt lat="47.582723" lon="8.026030">
        <ele>521.257351</ele>
        <time>2021-11-21T23:42:05.179Z</time>
      </trkpt>
      <trkpt lat="47.582993" lon="8.025956">
        <ele>522.515857</ele>
        <time>2021-11-21T23:42:14.822Z</time>
      </trkpt>
      <trkpt lat="47.583073" lon="8.025933">
        <ele>522.889365</ele>
        <time>2021-11-21T23:42:18.804Z</time>
      </trkpt>
      <trkpt lat="47.583464" lon="8.025921">
        <ele>524.835873</ele>
        <time>2021-11-21T23:42:35.528Z</time>
      </trkpt>
      <trkpt lat="47.583871" lon="8.026235">
        <ele>527.318723</ele>
        <time>2021-11-21T23:42:55.638Z</time>
      </trkpt>
      <trkpt lat="47.583918" lon="8.026237">
        <ele>527.573168</ele>
        <time>2021-11-21T23:42:58.550Z</time>
      </trkpt>
      <trkpt lat="47.583982" lon="8.026498">
        <ele>528.586846</ele>
        <time>2021-11-21T23:43:05.808Z</time>
      </trkpt>
      <trkpt lat="47.584046" lon="8.026676">
        <ele>529.323107</ele>
        <time>2021-11-21T23:43:11.702Z</time>
      </trkpt>
      <trkpt lat="47.584080" lon="8.026751">
        <ele>529.652949</ele>
        <time>2021-11-21T23:43:14.902Z</time>
      </trkpt>
      <trkpt lat="47.584134" lon="8.026675">
        <ele>530.055873</ele>
        <time>2021-11-21T23:43:17.719Z</time>
      </trkpt>
      <trkpt lat="47.584228" lon="8.026533">
        <ele>530.782099</ele>
        <time>2021-11-21T23:43:22.898Z</time>
      </trkpt>
      <trkpt lat="47.584244" lon="8.026509">
        <ele>530.905269</ele>
        <time>2021-11-21T23:43:23.874Z</time>
      </trkpt>
      <trkpt lat="47.584323" lon="8.026391">
        <ele>531.512125</ele>
        <time>2021-11-21T23:43:29.467Z</time>
      </trkpt>
      <trkpt lat="47.585609" lon="8.024292">
        <ele>540.779492</ele>
        <time>2021-11-21T23:44:43.794Z</time>
      </trkpt>
      <trkpt lat="47.586233" lon="8.023109">
        <ele>545.328347</ele>
        <time>2021-11-21T23:45:23.036Z</time>
      </trkpt>
      <trkpt lat="47.586478" lon="8.022754">
        <ele>546.840708</ele>
        <time>2021-11-21T23:45:36.114Z</time>
      </trkpt>
      <trkpt lat="47.586795" lon="8.022396">
        <ele>548.599916</ele>
        <time>2021-11-21T23:45:50.901Z</time>
      </trkpt>
      <trkpt lat="47.587072" lon="8.021950">
        <ele>550.391674</ele>
        <time>2021-11-21T23:46:05.959Z</time>
      </trkpt>
      <trkpt lat="47.587257" lon="8.021642">
        <ele>551.581860</ele>
        <time>2021-11-21T23:46:16.124Z</time>
      </trkpt>
      <trkpt lat="47.587557" lon="8.021107">
        <ele>553.589638</ele>
        <time>2021-11-21T23:46:32.987Z</time>
      </trkpt>
      <trkpt lat="47.587801" lon="8.021555">
        <ele>555.251346</ele>
        <time>2021-11-21T23:46:46.162Z</time>
      </trkpt>
      <trkpt lat="47.587981" lon="8.021848">
        <ele>556.395041</ele>
        <time>2021-11-21T23:46:55.025Z</time>
      </trkpt>
      <trkpt lat="47.588224" lon="8.022086">
        <ele>557.641106</ele>
        <time>2021-11-21T23:47:07.853Z</time>
      </trkpt>
      <trkpt lat="47.588772" lon="8.022285">
        <ele>561.874892</ele>
        <time>2021-11-21T23:47:32.874Z</time>
      </trkpt>
      <trkpt lat="47.588947" lon="8.022297">
        <ele>563.194544</ele>
        <time>2021-11-21T23:47:41.330Z</time>
      </trkpt>
      <trkpt lat="47.589256" lon="8.022150">
        <ele>565.639061</ele>
        <time>2021-11-21T23:47:57.052Z</time>
      </trkpt>
      <trkpt lat="47.589392" lon="8.022010">
        <ele>566.886225</ele>
        <time>2021-11-21T23:48:04.063Z</time>
      </trkpt>
      <trkpt lat="47.589430" lon="8.021956">
        <ele>567.282711</ele>
        <time>2021-11-21T23:48:07.673Z</time>
      </trkpt>
      <trkpt lat="47.589615" lon="8.021880">
        <ele>568.728783</ele>
        <time>2021-11-21T23:48:17.560Z</time>
      </trkpt>
      <trkpt lat="47.589748" lon="8.021891">
        <ele>569.732205</ele>
        <time>2021-11-21T23:48:26.560Z</time>
      </trkpt>
      <trkpt lat="47.590116" lon="8.022103">
        <ele>573.074750</ele>
        <time>2021-11-21T23:48:52.015Z</time>
      </trkpt>
      <trkpt lat="47.590395" lon="8.022117">
        <ele>575.696096</ele>
        <time>2021-11-21T23:49:07.606Z</time>
      </trkpt>
      <trkpt lat="47.590493" lon="8.022094">
        <ele>576.627786</ele>
        <time>2021-11-21T23:49:17.157Z</time>
      </trkpt>
      <trkpt lat="47.590755" lon="8.022031">
        <ele>579.120141</ele>
        <time>2021-11-21T23:49:31.684Z</time>
      </trkpt>
      <trkpt lat="47.591072" lon="8.022076">
        <ele>582.110424</ele>
        <time>2021-11-21T23:49:50.986Z</time>
      </trkpt>
      <trkpt lat="47.591115" lon="8.022129">
        <ele>582.635486</ele>
        <time>2021-11-21T23:49:56.270Z</time>
      </trkpt>
      <trkpt lat="47.591140" lon="8.022229">
        <ele>583.310882</ele>
        <time>2021-11-21T23:50:01.688Z</time>
      </trkpt>
      <trkpt lat="47.591210" lon="8.023119">
        <ele>588.562908</ele>
        <time>2021-11-21T23:50:28.070Z</time>
      </trkpt>
      <trkpt lat="47.591205" lon="8.023265">
        <ele>589.046593</ele>
        <time>2021-11-21T23:50:35.976Z</time>
      </trkpt>
      <trkpt lat="47.591738" lon="8.023957">
        <ele>592.522179</ele>
        <time>2021-11-21T23:51:06.030Z</time>
      </trkpt>
      <trkpt lat="47.592067" lon="8.024331">
        <ele>594.555990</ele>
        <time>2021-11-21T23:51:19.713Z</time>
      </trkpt>
      <trkpt lat="47.592360" lon="8.024239">
        <ele>596.025308</ele>
        <time>2021-11-21T23:51:30.051Z</time>
      </trkpt>
      <trkpt lat="47.592875" lon="8.023855">
        <ele>598.722491</ele>
        <time>2021-11-21T23:51:47.272Z</time>
      </trkpt>
      <trkpt lat="47.593000" lon="8.023757">
        <ele>599.369116</ele>
        <time>2021-11-21T23:51:53.151Z</time>
      </trkpt>
      <trkpt lat="47.594098" lon="8.023267">
        <ele>604.612882</ele>
        <time>2021-11-21T23:52:40.178Z</time>
      </trkpt>
      <trkpt lat="47.594377" lon="8.023068">
        <ele>605.826934</ele>
        <time>2021-11-21T23:52:53.700Z</time>
      </trkpt>
      <trkpt lat="47.594831" lon="8.022718">
        <ele>607.629468</ele>
        <time>2021-11-21T23:53:13.490Z</time>
      </trkpt>
      <trkpt lat="47.595091" lon="8.022990">
        <ele>608.750365</ele>
        <time>2021-11-21T23:53:22.571Z</time>
      </trkpt>
      <trkpt lat="47.595671" lon="8.023213">
        <ele>610.861097</ele>
        <time>2021-11-21T23:53:37.999Z</time>
      </trkpt>
      <trkpt lat="47.596051" lon="8.023223">
        <ele>611.956679</ele>
        <time>2021-11-21T23:53:46.541Z</time>
      </trkpt>
      <trkpt lat="47.596148" lon="8.023345">
        <ele>612.251997</ele>
        <time>2021-11-21T23:53:48.893Z</time>
      </trkpt>
      <trkpt lat="47.596208" lon="8.023630">
        <ele>612.719474</ele>
        <time>2021-11-21T23:53:52.176Z</time>
      </trkpt>
      <trkpt lat="47.596116" lon="8.024152">
        <ele>613.564244</ele>
        <time>2021-11-21T23:53:58.715Z</time>
      </trkpt>
      <trkpt lat="47.596100" lon="8.024844">
        <ele>614.648376</ele>
        <time>2021-11-21T23:54:09.370Z</time>
      </trkpt>
      <trkpt lat="47.596129" lon="8.025134">
        <ele>615.107407</ele>
        <time>2021-11-21T23:54:15.002Z</time>
      </trkpt>
      <trkpt lat="47.596247" lon="8.025584">
        <ele>616.160819</ele>
        <time>2021-11-21T23:54:25.381Z</time>
      </trkpt>
      <trkpt lat="47.596374" lon="8.025833">
        <ele>617.373470</ele>
        <time>2021-11-21T23:54:32.869Z</time>
      </trkpt>
      <trkpt lat="47.596403" lon="8.026009">
        <ele>618.077200</ele>
        <time>2021-11-21T23:54:37.251Z</time>
      </trkpt>
      <trkpt lat="47.597018" lon="8.025786">
        <ele>621.723915</ele>
        <time>2021-11-21T23:55:04.862Z</time>
      </trkpt>
      <trkpt lat="47.597223" lon="8.025669">
        <ele>622.989131</ele>
        <time>2021-11-21T23:55:14.981Z</time>
      </trkpt>
      <trkpt lat="47.597401" lon="8.025846">
        <ele>624.223561</ele>
        <time>2021-11-21T23:55:24.584Z</time>
      </trkpt>
      <trkpt lat="47.597487" lon="8.026052">
        <ele>625.164615</ele>
        <time>2021-11-21T23:55:33.047Z</time>
      </trkpt>
      <trkpt lat="47.597698" lon="8.026355">
        <ele>626.854169</ele>
        <time>2021-11-21T23:55:46.837Z</time>
      </trkpt>
      <trkpt lat="47.597834" lon="8.026546">
        <ele>627.930176</ele>
        <time>2021-11-21T23:55:55.554Z</time>
      </trkpt>
      <trkpt lat="47.598023" lon="8.026853">
        <ele>629.540473</ele>
        <time>2021-11-21T23:56:08.617Z</time>
      </trkpt>
      <trkpt lat="47.598245" lon="8.026958">
        <ele>630.879055</ele>
        <time>2021-11-21T23:56:18.842Z</time>
      </trkpt>
      <trkpt lat="47.598365" lon="8.026975">
        <ele>631.571539</ele>
        <time>2021-11-21T23:56:24.442Z</time>
      </trkpt>
      <trkpt lat="47.598361" lon="8.027263">
        <ele>632.687397</ele>
        <time>2021-11-21T23:56:31.946Z</time>
      </trkpt>
      <trkpt lat="47.598472" lon="8.027302">
        <ele>633.342694</ele>
        <time>2021-11-21T23:56:36.339Z</time>
      </trkpt>
      <trkpt lat="47.598821" lon="8.027385">
        <ele>635.373158</ele>
        <time>2021-11-21T23:56:48.410Z</time>
      </trkpt>
      <trkpt lat="47.599102" lon="8.027378">
        <ele>637.022607</ele>
        <time>2021-11-21T23:56:57.121Z</time>
      </trkpt>
      <trkpt lat="47.599389" lon="8.027316">
        <ele>638.780872</ele>
        <time>2021-11-21T23:57:06.398Z</time>
      </trkpt>
      <trkpt lat="47.599613" lon="8.027185">
        <ele>640.240622</ele>
        <time>2021-11-21T23:57:17.200Z</time>
      </trkpt>
      <trkpt lat="47.599844" lon="8.026999">
        <ele>641.834132</ele>
        <time>2021-11-21T23:57:26.366Z</time>
      </trkpt>
      <trkpt lat="47.600101" lon="8.026650">
        <ele>643.946677</ele>
        <time>2021-11-21T23:57:40.452Z</time>
      </trkpt>
      <trkpt lat="47.600516" lon="8.025753">
        <ele>648.522653</ele>
        <time>2021-11-21T23:58:11.212Z</time>
      </trkpt>
      <trkpt lat="47.600550" lon="8.025678">
        <ele>648.934108</ele>
        <time>2021-11-21T23:58:14.841Z</time>
      </trkpt>
      <trkpt lat="47.600581" lon="8.025609">
        <ele>649.311595</ele>
        <time>2021-11-21T23:58:18.559Z</time>
      </trkpt>
      <trkpt lat="47.601301" lon="8.024297">
        <ele>657.013063</ele>
        <time>2021-11-21T23:59:06.973Z</time>
      </trkpt>
      <trkpt lat="47.601427" lon="8.024003">
        <ele>658.599049</ele>
        <time>2021-11-21T23:59:16.511Z</time>
      </trkpt>
      <trkpt lat="47.601526" lon="8.023755">
        <ele>659.744247</ele>
        <time>2021-11-21T23:59:24.910Z</time>
      </trkpt>
      <trkpt lat="47.601889" lon="8.022433">
        <ele>664.106869</ele>
        <time>2021-11-21T23:59:55.316Z</time>
      </trkpt>
      <trkpt lat="47.602034" lon="8.021886">
        <ele>665.903218</ele>
        <time>2021-11-22T00:00:07.839Z</time>
      </trkpt>
      <trkpt lat="47.602462" lon="8.021174">
        <ele>668.674954</ele>
        <time>2021-11-22T00:00:27.302Z</time>
      </trkpt>
      <trkpt lat="47.602662" lon="8.020843">
        <ele>669.878877</ele>
        <time>2021-11-22T00:00:37.017Z</time>
      </trkpt>
      <trkpt lat="47.603104" lon="8.020091">
        <ele>672.581125</ele>
        <time>2021-11-22T00:00:59.153Z</time>
      </trkpt>
      <trkpt lat="47.603225" lon="8.019699">
        <ele>673.748917</ele>
        <time>2021-11-22T00:01:08.022Z</time>
      </trkpt>
      <trkpt lat="47.603538" lon="8.018606">
        <ele>675.741641</ele>
        <time>2021-11-22T00:01:30.398Z</time>
      </trkpt>
      <trkpt lat="47.603564" lon="8.018549">
        <ele>675.823579</ele>
        <time>2021-11-22T00:01:31.623Z</time>
      </trkpt>
      <trkpt lat="47.603949" lon="8.017906">
        <ele>676.847449</ele>
        <time>2021-11-22T00:01:44.904Z</time>
      </trkpt>
      <trkpt lat="47.604386" lon="8.017343">
        <ele>677.869613</ele>
        <time>2021-11-22T00:01:53.547Z</time>
      </trkpt>
      <trkpt lat="47.604931" lon="8.016761">
        <ele>678.285258</ele>
        <time>2021-11-22T00:02:03.305Z</time>
      </trkpt>
      <trkpt lat="47.605303" lon="8.016420">
        <ele>678.515575</ele>
        <time>2021-11-22T00:02:09.856Z</time>
      </trkpt>
      <trkpt lat="47.605349" lon="8.016390">
        <ele>678.542040</ele>
        <time>2021-11-22T00:02:10.633Z</time>
      </trkpt>
      <trkpt lat="47.605617" lon="8.016217">
        <ele>678.695975</ele>
        <time>2021-11-22T00:02:15.641Z</time>
      </trkpt>
      <trkpt lat="47.605788" lon="8.016160">
        <ele>678.788280</ele>
        <time>2021-11-22T00:02:19.045Z</time>
      </trkpt>
      <trkpt lat="47.607499" lon="8.015932">
        <ele>681.162216</ele>
        <time>2021-11-22T00:02:56.543Z</time>
      </trkpt>
      <trkpt lat="47.607936" lon="8.015773">
        <ele>681.396111</ele>
        <time>2021-11-22T00:03:05.317Z</time>
      </trkpt>
      <trkpt lat="47.607997" lon="8.015736">
        <ele>681.296387</ele>
        <time>2021-11-22T00:03:06.987Z</time>
      </trkpt>
      <trkpt lat="47.608546" lon="8.015408">
        <ele>680.400796</ele>
        <time>2021-11-22T00:03:16.686Z</time>
      </trkpt>
      <trkpt lat="47.608990" lon="8.015226">
        <ele>679.703764</ele>
        <time>2021-11-22T00:03:22.034Z</time>
      </trkpt>
      <trkpt lat="47.609093" lon="8.015216">
        <ele>679.547574</ele>
        <time>2021-11-22T00:03:23.082Z</time>
      </trkpt>
      <trkpt lat="47.609541" lon="8.015211">
        <ele>678.808497</ele>
        <time>2021-11-22T00:03:27.398Z</time>
      </trkpt>
      <trkpt lat="47.609987" lon="8.015356">
        <ele>676.587744</ele>
        <time>2021-11-22T00:03:31.570Z</time>
      </trkpt>
      <trkpt lat="47.610061" lon="8.015390">
        <ele>676.210951</ele>
        <time>2021-11-22T00:03:32.253Z</time>
      </trkpt>
      <trkpt lat="47.610254" lon="8.015477">
        <ele>675.229846</ele>
        <time>2021-11-22T00:03:34.106Z</time>
      </trkpt>
      <trkpt lat="47.611129" lon="8.015861">
        <ele>670.791657</ele>
        <time>2021-11-22T00:03:42.629Z</time>
      </trkpt>
      <trkpt lat="47.611516" lon="8.016031">
        <ele>670.630803</ele>
        <time>2021-11-22T00:03:46.701Z</time>
      </trkpt>
      <trkpt lat="47.611716" lon="8.016114">
        <ele>670.999353</ele>
        <time>2021-11-22T00:03:48.954Z</time>
      </trkpt>
      <trkpt lat="47.613333" lon="8.016808">
        <ele>675.110697</ele>
        <time>2021-11-22T00:04:39.831Z</time>
      </trkpt>
      <trkpt lat="47.613550" lon="8.016884">
        <ele>676.195229</ele>
        <time>2021-11-22T00:04:49.151Z</time>
      </trkpt>
      <trkpt lat="47.613763" lon="8.016931">
        <ele>677.242685</ele>
        <time>2021-11-22T00:04:57.686Z</time>
      </trkpt>
      <trkpt lat="47.614276" lon="8.016874">
        <ele>679.744964</ele>
        <time>2021-11-22T00:05:16.567Z</time>
      </trkpt>
      <trkpt lat="47.614450" lon="8.016786">
        <ele>680.639156</ele>
        <time>2021-11-22T00:05:23.004Z</time>
      </trkpt>
      <trkpt lat="47.614507" lon="8.016749">
        <ele>680.941793</ele>
        <time>2021-11-22T00:05:25.338Z</time>
      </trkpt>
      <trkpt lat="47.614952" lon="8.016327">
        <ele>682.806800</ele>
        <time>2021-11-22T00:05:41.945Z</time>
      </trkpt>
      <trkpt lat="47.615823" lon="8.015017">
        <ele>685.851154</ele>
        <time>2021-11-22T00:06:11.375Z</time>
      </trkpt>
      <trkpt lat="47.616313" lon="8.014507">
        <ele>687.000245</ele>
        <time>2021-11-22T00:06:22.213Z</time>
      </trkpt>
      <trkpt lat="47.616676" lon="8.014297">
        <ele>687.581429</ele>
        <time>2021-11-22T00:06:29.985Z</time>
      </trkpt>
      <trkpt lat="47.617120" lon="8.014238">
        <ele>688.246373</ele>
        <time>2021-11-22T00:06:39.172Z</time>
      </trkpt>
      <trkpt lat="47.617298" lon="8.014271">
        <ele>688.513951</ele>
        <time>2021-11-22T00:06:42.460Z</time>
      </trkpt>
      <trkpt lat="47.617593" lon="8.014382">
        <ele>688.967921</ele>
        <time>2021-11-22T00:06:48.907Z</time>
      </trkpt>
      <trkpt lat="47.617609" lon="8.014390">
        <ele>688.993106</ele>
        <time>2021-11-22T00:06:49.191Z</time>
      </trkpt>
      <trkpt lat="47.617879" lon="8.014526">
        <ele>689.718049</ele>
        <time>2021-11-22T00:06:55.612Z</time>
      </trkpt>
      <trkpt lat="47.618468" lon="8.014944">
        <ele>691.954501</ele>
        <time>2021-11-22T00:07:13.176Z</time>
      </trkpt>
      <trkpt lat="47.619151" lon="8.015995">
        <ele>695.325185</ele>
        <time>2021-11-22T00:07:44.157Z</time>
      </trkpt>
      <trkpt lat="47.619261" lon="8.016064">
        <ele>695.748120</ele>
        <time>2021-11-22T00:07:48.160Z</time>
      </trkpt>
      <trkpt lat="47.619394" lon="8.016117">
        <ele>696.236762</ele>
        <time>2021-11-22T00:07:52.633Z</time>
      </trkpt>
      <trkpt lat="47.619688" lon="8.016135">
        <ele>697.280829</ele>
        <time>2021-11-22T00:08:01.666Z</time>
      </trkpt>
      <trkpt lat="47.620051" lon="8.015912">
        <ele>698.674894</ele>
        <time>2021-11-22T00:08:13.633Z</time>
      </trkpt>
      <trkpt lat="47.620186" lon="8.015747">
        <ele>699.295523</ele>
        <time>2021-11-22T00:08:18.822Z</time>
      </trkpt>
      <trkpt lat="47.620328" lon="8.015989">
        <ele>700.062888</ele>
        <time>2021-11-22T00:08:25.288Z</time>
      </trkpt>
      <trkpt lat="47.620455" lon="8.016265">
        <ele>700.862130</ele>
        <time>2021-11-22T00:08:31.579Z</time>
      </trkpt>
      <trkpt lat="47.620586" lon="8.016714">
        <ele>701.893178</ele>
        <time>2021-11-22T00:08:39.936Z</time>
      </trkpt>
      <trkpt lat="47.620751" lon="8.017244">
        <ele>702.646589</ele>
        <time>2021-11-22T00:08:48.332Z</time>
      </trkpt>
      <trkpt lat="47.621349" lon="8.019187">
        <ele>705.570464</ele>
        <time>2021-11-22T00:09:19.208Z</time>
      </trkpt>
      <trkpt lat="47.621390" lon="8.019390">
        <ele>706.043656</ele>
        <time>2021-11-22T00:09:22.653Z</time>
      </trkpt>
      <trkpt lat="47.621403" lon="8.019573">
        <ele>706.454540</ele>
        <time>2021-11-22T00:09:25.503Z</time>
      </trkpt>
      <trkpt lat="47.621413" lon="8.020151">
        <ele>707.745584</ele>
        <time>2021-11-22T00:09:34.659Z</time>
      </trkpt>
      <trkpt lat="47.621418" lon="8.020418">
        <ele>708.341999</ele>
        <time>2021-11-22T00:09:39.842Z</time>
      </trkpt>
      <trkpt lat="47.621415" lon="8.020855">
        <ele>709.317828</ele>
        <time>2021-11-22T00:09:48.206Z</time>
      </trkpt>
      <trkpt lat="47.621400" lon="8.021174">
        <ele>710.031856</ele>
        <time>2021-11-22T00:09:55.661Z</time>
      </trkpt>
      <trkpt lat="47.621339" lon="8.021559">
        <ele>710.914956</ele>
        <time>2021-11-22T00:10:04.856Z</time>
      </trkpt>
      <trkpt lat="47.621234" lon="8.022131">
        <ele>713.073814</ele>
        <time>2021-11-22T00:10:18.837Z</time>
      </trkpt>
      <trkpt lat="47.621178" lon="8.022415">
        <ele>714.233308</ele>
        <time>2021-11-22T00:10:25.374Z</time>
      </trkpt>
      <trkpt lat="47.621155" lon="8.022607">
        <ele>714.997449</ele>
        <time>2021-11-22T00:10:31.232Z</time>
      </trkpt>
      <trkpt lat="47.621131" lon="8.023509">
        <ele>718.534688</ele>
        <time>2021-11-22T00:10:53.982Z</time>
      </trkpt>
      <trkpt lat="47.621327" lon="8.024700">
        <ele>724.136525</ele>
        <time>2021-11-22T00:11:28.291Z</time>
      </trkpt>
      <trkpt lat="47.621268" lon="8.025053">
        <ele>726.211427</ele>
        <time>2021-11-22T00:11:37.934Z</time>
      </trkpt>
      <trkpt lat="47.621054" lon="8.025784">
        <ele>730.758257</ele>
        <time>2021-11-22T00:12:05.487Z</time>
      </trkpt>
      <trkpt lat="47.621015" lon="8.026497">
        <ele>734.839402</ele>
        <time>2021-11-22T00:12:30.853Z</time>
      </trkpt>
      <trkpt lat="47.621074" lon="8.027044">
        <ele>738.153239</ele>
        <time>2021-11-22T00:12:50.729Z</time>
      </trkpt>
      <trkpt lat="47.621153" lon="8.027276">
        <ele>739.827840</ele>
        <time>2021-11-22T00:12:58.938Z</time>
      </trkpt>
      <trkpt lat="47.621202" lon="8.027392">
        <ele>740.709817</ele>
        <time>2021-11-22T00:13:06.493Z</time>
      </trkpt>
      <trkpt lat="47.621486" lon="8.027887">
        <ele>744.897799</ele>
        <time>2021-11-22T00:13:29.833Z</time>
      </trkpt>
      <trkpt lat="47.621660" lon="8.028299">
        <ele>748.030147</ele>
        <time>2021-11-22T00:13:48.172Z</time>
      </trkpt>
      <trkpt lat="47.621701" lon="8.028543">
        <ele>749.650243</ele>
        <time>2021-11-22T00:13:55.900Z</time>
      </trkpt>
      <trkpt lat="47.621668" lon="8.028864">
        <ele>751.742220</ele>
        <time>2021-11-22T00:14:08.823Z</time>
      </trkpt>
      <trkpt lat="47.621427" lon="8.029472">
        <ele>755.243752</ele>
        <time>2021-11-22T00:14:33.743Z</time>
      </trkpt>
      <trkpt lat="47.621272" lon="8.030058">
        <ele>757.445764</ele>
        <time>2021-11-22T00:14:50.593Z</time>
      </trkpt>
      <trkpt lat="47.621181" lon="8.030963">
        <ele>760.646493</ele>
        <time>2021-11-22T00:15:11.319Z</time>
      </trkpt>
      <trkpt lat="47.621187" lon="8.031301">
        <ele>761.829230</ele>
        <time>2021-11-22T00:15:18.155Z</time>
      </trkpt>
      <trkpt lat="47.621208" lon="8.031497">
        <ele>762.523448</ele>
        <time>2021-11-22T00:15:21.291Z</time>
      </trkpt>
      <trkpt lat="47.621242" lon="8.031732">
        <ele>763.343673</ele>
        <time>2021-11-22T00:15:25.390Z</time>
      </trkpt>
      <trkpt lat="47.621283" lon="8.031958">
        <ele>763.481457</ele>
        <time>2021-11-22T00:15:28.631Z</time>
      </trkpt>
      <trkpt lat="47.621424" lon="8.032671">
        <ele>763.918901</ele>
        <time>2021-11-22T00:15:37.768Z</time>
      </trkpt>
      <trkpt lat="47.621459" lon="8.033020">
        <ele>764.126623</ele>
        <time>2021-11-22T00:15:41.199Z</time>
      </trkpt>
      <trkpt lat="47.621518" lon="8.033887">
        <ele>764.639629</ele>
        <time>2021-11-22T00:15:49.767Z</time>
      </trkpt>
      <trkpt lat="47.621602" lon="8.034723">
        <ele>765.588313</ele>
        <time>2021-11-22T00:16:00.644Z</time>
      </trkpt>
      <trkpt lat="47.621739" lon="8.035537">
        <ele>767.064893</ele>
        <time>2021-11-22T00:16:12.682Z</time>
      </trkpt>
      <trkpt lat="47.621800" lon="8.035504">
        <ele>767.234429</ele>
        <time>2021-11-22T00:16:14.481Z</time>
      </trkpt>
      <trkpt lat="47.621839" lon="8.035483">
        <ele>767.342761</ele>
        <time>2021-11-22T00:16:15.768Z</time>
      </trkpt>
      <trkpt lat="47.621895" lon="8.035427">
        <ele>767.519097</ele>
        <time>2021-11-22T00:16:17.020Z</time>
      </trkpt>
      <trkpt lat="47.621969" lon="8.035336">
        <ele>767.770063</ele>
        <time>2021-11-22T00:16:19.278Z</time>
      </trkpt>
      <trkpt lat="47.622096" lon="8.035332">
        <ele>768.101747</ele>
        <time>2021-11-22T00:16:22.936Z</time>
      </trkpt>
      <trkpt lat="47.622386" lon="8.035423">
        <ele>768.875718</ele>
        <time>2021-11-22T00:16:30.818Z</time>
      </trkpt>
      <trkpt lat="47.622869" lon="8.035745">
        <ele>770.983263</ele>
        <time>2021-11-22T00:16:48.738Z</time>
      </trkpt>
      <trkpt lat="47.623318" lon="8.036520">
        <ele>774.783290</ele>
        <time>2021-11-22T00:17:16.466Z</time>
      </trkpt>
      <trkpt lat="47.623403" lon="8.036595">
        <ele>775.328879</ele>
        <time>2021-11-22T00:17:19.818Z</time>
      </trkpt>
      <trkpt lat="47.623595" lon="8.036595">
        <ele>776.388110</ele>
        <time>2021-11-22T00:17:27.150Z</time>
      </trkpt>
      <trkpt lat="47.623756" lon="8.036342">
        <ele>777.681904</ele>
        <time>2021-11-22T00:17:35.553Z</time>
      </trkpt>
      <trkpt lat="47.623843" lon="8.036111">
        <ele>778.665839</ele>
        <time>2021-11-22T00:17:42.790Z</time>
      </trkpt>
      <trkpt lat="47.623966" lon="8.035861">
        <ele>779.786529</ele>
        <time>2021-11-22T00:17:50.069Z</time>
      </trkpt>
      <trkpt lat="47.624178" lon="8.035535">
        <ele>781.293630</ele>
        <time>2021-11-22T00:18:01.320Z</time>
      </trkpt>
      <trkpt lat="47.624637" lon="8.034880">
        <ele>784.437154</ele>
        <time>2021-11-22T00:18:24.696Z</time>
      </trkpt>
      <trkpt lat="47.625181" lon="8.033903">
        <ele>788.575432</ele>
        <time>2021-11-22T00:18:53.148Z</time>
      </trkpt>
      <trkpt lat="47.625662" lon="8.032528">
        <ele>792.094338</ele>
        <time>2021-11-22T00:19:22.243Z</time>
      </trkpt>
      <trkpt lat="47.625665" lon="8.032516">
        <ele>792.123410</ele>
        <time>2021-11-22T00:19:22.644Z</time>
      </trkpt>
      <trkpt lat="47.625752" lon="8.032184">
        <ele>792.932528</ele>
        <time>2021-11-22T00:19:28.802Z</time>
      </trkpt>
      <trkpt lat="47.625909" lon="8.031070">
        <ele>795.387067</ele>
        <time>2021-11-22T00:19:49.982Z</time>
      </trkpt>
      <trkpt lat="47.626015" lon="8.029714">
        <ele>798.101336</ele>
        <time>2021-11-22T00:20:14.215Z</time>
      </trkpt>
      <trkpt lat="47.626062" lon="8.029503">
        <ele>798.543196</ele>
        <time>2021-11-22T00:20:18.180Z</time>
      </trkpt>
      <trkpt lat="47.626144" lon="8.029180">
        <ele>799.229481</ele>
        <time>2021-11-22T00:20:24.366Z</time>
      </trkpt>
      <trkpt lat="47.626471" lon="8.028423">
        <ele>800.810551</ele>
        <time>2021-11-22T00:20:40.167Z</time>
      </trkpt>
      <trkpt lat="47.627024" lon="8.027948">
        <ele>802.381646</ele>
        <time>2021-11-22T00:20:56.504Z</time>
      </trkpt>
      <trkpt lat="47.627092" lon="8.027815">
        <ele>802.658283</ele>
        <time>2021-11-22T00:20:59.607Z</time>
      </trkpt>
      <trkpt lat="47.627459" lon="8.027072">
        <ele>804.184768</ele>
        <time>2021-11-22T00:21:13.586Z</time>
      </trkpt>
      <trkpt lat="47.627933" lon="8.026393">
        <ele>805.399361</ele>
        <time>2021-11-22T00:21:28.480Z</time>
      </trkpt>
      <trkpt lat="47.628621" lon="8.025193">
        <ele>807.351089</ele>
        <time>2021-11-22T00:21:50.936Z</time>
      </trkpt>
      <trkpt lat="47.629730" lon="8.023556">
        <ele>811.599956</ele>
        <time>2021-11-22T00:22:28.370Z</time>
      </trkpt>
      <trkpt lat="47.629855" lon="8.023421">
        <ele>812.027559</ele>
        <time>2021-11-22T00:22:33.247Z</time>
      </trkpt>
      <trkpt lat="47.630151" lon="8.023101">
        <ele>813.700742</ele>
        <time>2021-11-22T00:22:45.450Z</time>
      </trkpt>
      <trkpt lat="47.630575" lon="8.022696">
        <ele>816.737285</ele>
        <time>2021-11-22T00:23:03.462Z</time>
      </trkpt>
      <trkpt lat="47.630871" lon="8.022367">
        <ele>818.964355</ele>
        <time>2021-11-22T00:23:19.251Z</time>
      </trkpt>
      <trkpt lat="47.631045" lon="8.021856">
        <ele>821.287766</ele>
        <time>2021-11-22T00:23:34.617Z</time>
      </trkpt>
      <trkpt lat="47.631199" lon="8.021557">
        <ele>822.814963</ele>
        <time>2021-11-22T00:23:43.723Z</time>
      </trkpt>
      <trkpt lat="47.631791" lon="8.020888">
        <ele>828.688824</ele>
        <time>2021-11-22T00:24:20.784Z</time>
      </trkpt>
      <trkpt lat="47.631812" lon="8.020823">
        <ele>829.083588</ele>
        <time>2021-11-22T00:24:25.721Z</time>
      </trkpt>
      <trkpt lat="47.631911" lon="8.020538">
        <ele>830.839529</ele>
        <time>2021-11-22T00:24:31.817Z</time>
      </trkpt>
      <trkpt lat="47.632121" lon="8.020405">
        <ele>832.695046</ele>
        <time>2021-11-22T00:24:45.831Z</time>
      </trkpt>
      <trkpt lat="47.632672" lon="8.020161">
        <ele>837.367926</ele>
        <time>2021-11-22T00:25:11.990Z</time>
      </trkpt>
      <trkpt lat="47.632993" lon="8.020133">
        <ele>839.516097</ele>
        <time>2021-11-22T00:25:27.218Z</time>
      </trkpt>
      <trkpt lat="47.633881" lon="8.020216">
        <ele>845.109477</ele>
        <time>2021-11-22T00:26:08.342Z</time>
      </trkpt>
      <trkpt lat="47.634199" lon="8.020336">
        <ele>847.172171</ele>
        <time>2021-11-22T00:26:19.785Z</time>
      </trkpt>
      <trkpt lat="47.634527" lon="8.020460">
        <ele>849.248411</ele>
        <time>2021-11-22T00:26:30.050Z</time>
      </trkpt>
      <trkpt lat="47.635655" lon="8.020130">
        <ele>850.769027</ele>
        <time>2021-11-22T00:26:55.123Z</time>
      </trkpt>
      <trkpt lat="47.636612" lon="8.020110">
        <ele>851.873345</ele>
        <time>2021-11-22T00:27:07.732Z</time>
      </trkpt>
      <trkpt lat="47.636951" lon="8.020194">
        <ele>852.153621</ele>
        <time>2021-11-22T00:27:13.322Z</time>
      </trkpt>
      <trkpt lat="47.638017" lon="8.020680">
        <ele>853.063022</ele>
        <time>2021-11-22T00:27:35.037Z</time>
      </trkpt>
      <trkpt lat="47.638217" lon="8.020729">
        <ele>853.498547</ele>
        <time>2021-11-22T00:27:39.852Z</time>
      </trkpt>
      <trkpt lat="47.638589" lon="8.020822">
        <ele>854.367916</ele>
        <time>2021-11-22T00:27:48.649Z</time>
      </trkpt>
      <trkpt lat="47.638879" lon="8.020839">
        <ele>855.036756</ele>
        <time>2021-11-22T00:27:55.656Z</time>
      </trkpt>
      <trkpt lat="47.640449" lon="8.020635">
        <ele>858.643047</ele>
        <time>2021-11-22T00:28:35.654Z</time>
      </trkpt>
      <trkpt lat="47.640905" lon="8.020708">
        <ele>859.681206</ele>
        <time>2021-11-22T00:28:46.808Z</time>
      </trkpt>
      <trkpt lat="47.641659" lon="8.020956">
        <ele>861.377282</ele>
        <time>2021-11-22T00:29:04.669Z</time>
      </trkpt>
      <trkpt lat="47.642591" lon="8.021203">
        <ele>862.679491</ele>
        <time>2021-11-22T00:29:23.344Z</time>
      </trkpt>
      <trkpt lat="47.642776" lon="8.021243">
        <ele>862.936638</ele>
        <time>2021-11-22T00:29:27.190Z</time>
      </trkpt>
      <trkpt lat="47.642903" lon="8.021271">
        <ele>863.113239</ele>
        <time>2021-11-22T00:29:29.696Z</time>
      </trkpt>
      <trkpt lat="47.643038" lon="8.021286">
        <ele>863.299446</ele>
        <time>2021-11-22T00:29:32.241Z</time>
      </trkpt>
      <trkpt lat="47.643353" lon="8.021179">
        <ele>863.743919</ele>
        <time>2021-11-22T00:29:38.466Z</time>
      </trkpt>
      <trkpt lat="47.643502" lon="8.021159">
        <ele>863.997498</ele>
        <time>2021-11-22T00:29:41.561Z</time>
      </trkpt>
      <trkpt lat="47.643877" lon="8.021077">
        <ele>864.658051</ele>
        <time>2021-11-22T00:29:49.460Z</time>
      </trkpt>
      <trkpt lat="47.644076" lon="8.020964">
        <ele>865.029353</ele>
        <time>2021-11-22T00:29:53.925Z</time>
      </trkpt>
      <trkpt lat="47.644214" lon="8.020840">
        <ele>865.310475</ele>
        <time>2021-11-22T00:29:57.591Z</time>
      </trkpt>
      <trkpt lat="47.644608" lon="8.020567">
        <ele>866.068214</ele>
        <time>2021-11-22T00:30:06.843Z</time>
      </trkpt>
      <trkpt lat="47.644824" lon="8.020484">
        <ele>866.457039</ele>
        <time>2021-11-22T00:30:11.722Z</time>
      </trkpt>
      <trkpt lat="47.645147" lon="8.020353">
        <ele>867.076455</ele>
        <time>2021-11-22T00:30:19.804Z</time>
      </trkpt>
      <trkpt lat="47.645363" lon="8.020332">
        <ele>867.553645</ele>
        <time>2021-11-22T00:30:25.326Z</time>
      </trkpt>
      <trkpt lat="47.645511" lon="8.020296">
        <ele>867.884262</ele>
        <time>2021-11-22T00:30:29.101Z</time>
      </trkpt>
      <trkpt lat="47.646257" lon="8.020163">
        <ele>869.540633</ele>
        <time>2021-11-22T00:30:47.870Z</time>
      </trkpt>
      <trkpt lat="47.646357" lon="8.020178">
        <ele>869.762205</ele>
        <time>2021-11-22T00:30:50.355Z</time>
      </trkpt>
      <trkpt lat="47.646466" lon="8.020194">
        <ele>870.003666</ele>
        <time>2021-11-22T00:30:53.199Z</time>
      </trkpt>
      <trkpt lat="47.646754" lon="8.020291">
        <ele>870.654699</ele>
        <time>2021-11-22T00:30:59.853Z</time>
      </trkpt>
      <trkpt lat="47.646808" lon="8.020323">
        <ele>870.782878</ele>
        <time>2021-11-22T00:31:01.203Z</time>
      </trkpt>
      <trkpt lat="47.646911" lon="8.020350">
        <ele>870.896032</ele>
        <time>2021-11-22T00:31:03.449Z</time>
      </trkpt>
      <trkpt lat="47.647019" lon="8.020369">
        <ele>870.939293</ele>
        <time>2021-11-22T00:31:05.385Z</time>
      </trkpt>
      <trkpt lat="47.647184" lon="8.020369">
        <ele>871.004927</ele>
        <time>2021-11-22T00:31:08.659Z</time>
      </trkpt>
      <trkpt lat="47.647594" lon="8.020318">
        <ele>871.168589</ele>
        <time>2021-11-22T00:31:15.934Z</time>
      </trkpt>
      <trkpt lat="47.648534" lon="8.020126">
        <ele>871.546026</ele>
        <time>2021-11-22T00:31:30.019Z</time>
      </trkpt>
      <trkpt lat="47.648678" lon="8.020079">
        <ele>871.559339</ele>
        <time>2021-11-22T00:31:31.935Z</time>
      </trkpt>
      <trkpt lat="47.649206" lon="8.019996">
        <ele>871.267383</ele>
        <time>2021-11-22T00:31:38.363Z</time>
      </trkpt>
      <trkpt lat="47.650715" lon="8.019808">
        <ele>871.150967</ele>
        <time>2021-11-22T00:31:57.876Z</time>
      </trkpt>
      <trkpt lat="47.651019" lon="8.019926">
        <ele>871.742527</ele>
        <time>2021-11-22T00:32:04.148Z</time>
      </trkpt>
      <trkpt lat="47.651288" lon="8.020213">
        <ele>872.366185</ele>
        <time>2021-11-22T00:32:11.229Z</time>
      </trkpt>
      <trkpt lat="47.651545" lon="8.020562">
        <ele>873.021926</ele>
        <time>2021-11-22T00:32:19.687Z</time>
      </trkpt>
      <trkpt lat="47.651675" lon="8.020757">
        <ele>873.369857</ele>
        <time>2021-11-22T00:32:24.520Z</time>
      </trkpt>
      <trkpt lat="47.651765" lon="8.020917">
        <ele>873.634209</ele>
        <time>2021-11-22T00:32:28.639Z</time>
      </trkpt>
      <trkpt lat="47.652110" lon="8.021933">
        <ele>876.943423</ele>
        <time>2021-11-22T00:32:52.958Z</time>
      </trkpt>
      <trkpt lat="47.652334" lon="8.023061">
        <ele>880.978174</ele>
        <time>2021-11-22T00:33:22.300Z</time>
      </trkpt>
      <trkpt lat="47.652441" lon="8.024016">
        <ele>883.999258</ele>
        <time>2021-11-22T00:33:48.138Z</time>
      </trkpt>
      <trkpt lat="47.652695" lon="8.024582">
        <ele>885.726177</ele>
        <time>2021-11-22T00:34:04.117Z</time>
      </trkpt>
      <trkpt lat="47.652821" lon="8.024724">
        <ele>886.322493</ele>
        <time>2021-11-22T00:34:09.215Z</time>
      </trkpt>
      <trkpt lat="47.652937" lon="8.024854">
        <ele>886.870362</ele>
        <time>2021-11-22T00:34:13.006Z</time>
      </trkpt>
      <trkpt lat="47.653010" lon="8.024936">
        <ele>887.215432</ele>
        <time>2021-11-22T00:34:16.266Z</time>
      </trkpt>
      <trkpt lat="47.653377" lon="8.025238">
        <ele>888.797152</ele>
        <time>2021-11-22T00:34:27.749Z</time>
      </trkpt>
      <trkpt lat="47.653481" lon="8.025311">
        <ele>889.230791</ele>
        <time>2021-11-22T00:34:29.332Z</time>
      </trkpt>
      <trkpt lat="47.653690" lon="8.025488">
        <ele>889.910184</ele>
        <time>2021-11-22T00:34:35.657Z</time>
      </trkpt>
      <trkpt lat="47.653783" lon="8.025584">
        <ele>889.883394</ele>
        <time>2021-11-22T00:34:37.002Z</time>
      </trkpt>
      <trkpt lat="47.654246" lon="8.026125">
        <ele>889.744038</ele>
        <time>2021-11-22T00:34:47.974Z</time>
      </trkpt>
      <trkpt lat="47.654931" lon="8.026743">
        <ele>889.554457</ele>
        <time>2021-11-22T00:34:57.236Z</time>
      </trkpt>
      <trkpt lat="47.655366" lon="8.027144">
        <ele>889.317827</ele>
        <time>2021-11-22T00:35:03.265Z</time>
      </trkpt>
      <trkpt lat="47.655466" lon="8.027240">
        <ele>889.239502</ele>
        <time>2021-11-22T00:35:04.767Z</time>
      </trkpt>
      <trkpt lat="47.656028" lon="8.027930">
        <ele>888.759834</ele>
        <time>2021-11-22T00:35:14.044Z</time>
      </trkpt>
      <trkpt lat="47.656335" lon="8.028180">
        <ele>888.529532</ele>
        <time>2021-11-22T00:35:18.792Z</time>
      </trkpt>
      <trkpt lat="47.656561" lon="8.028271">
        <ele>888.375517</ele>
        <time>2021-11-22T00:35:22.043Z</time>
      </trkpt>
      <trkpt lat="47.656841" lon="8.028346">
        <ele>888.357650</ele>
        <time>2021-11-22T00:35:26.257Z</time>
      </trkpt>
      <trkpt lat="47.656917" lon="8.028363">
        <ele>888.374563</ele>
        <time>2021-11-22T00:35:27.338Z</time>
      </trkpt>
      <trkpt lat="47.657505" lon="8.028419">
        <ele>888.504226</ele>
        <time>2021-11-22T00:35:36.403Z</time>
      </trkpt>
      <trkpt lat="47.658704" lon="8.028784">
        <ele>888.771696</ele>
        <time>2021-11-22T00:35:56.580Z</time>
      </trkpt>
      <trkpt lat="47.658895" lon="8.028930">
        <ele>888.817555</ele>
        <time>2021-11-22T00:35:59.768Z</time>
      </trkpt>
      <trkpt lat="47.658952" lon="8.028997">
        <ele>888.833074</ele>
        <time>2021-11-22T00:36:01.962Z</time>
      </trkpt>
      <trkpt lat="47.659262" lon="8.028895">
        <ele>888.900854</ele>
        <time>2021-11-22T00:36:06.935Z</time>
      </trkpt>
      <trkpt lat="47.659385" lon="8.028852">
        <ele>888.927828</ele>
        <time>2021-11-22T00:36:09.482Z</time>
      </trkpt>
      <trkpt lat="47.659698" lon="8.028730">
        <ele>888.996907</ele>
        <time>2021-11-22T00:36:14.870Z</time>
      </trkpt>
      <trkpt lat="47.660275" lon="8.028464">
        <ele>888.922550</ele>
        <time>2021-11-22T00:36:22.713Z</time>
      </trkpt>
      <trkpt lat="47.660281" lon="8.028754">
        <ele>888.689783</ele>
        <time>2021-11-22T00:36:25.344Z</time>
      </trkpt>
      <trkpt lat="47.660363" lon="8.029257">
        <ele>888.274590</ele>
        <time>2021-11-22T00:36:29.554Z</time>
      </trkpt>
      <trkpt lat="47.660555" lon="8.029987">
        <ele>887.645867</ele>
        <time>2021-11-22T00:36:35.821Z</time>
      </trkpt>
      <trkpt lat="47.660640" lon="8.030360">
        <ele>887.329958</ele>
        <time>2021-11-22T00:36:38.709Z</time>
      </trkpt>
      <trkpt lat="47.660771" lon="8.031434">
        <ele>886.966372</ele>
        <time>2021-11-22T00:36:46.916Z</time>
      </trkpt>
      <trkpt lat="47.660779" lon="8.031884">
        <ele>886.976406</ele>
        <time>2021-11-22T00:36:50.920Z</time>
      </trkpt>
      <trkpt lat="47.660722" lon="8.032994">
        <ele>887.001222</ele>
        <time>2021-11-22T00:37:02.958Z</time>
      </trkpt>
      <trkpt lat="47.660712" lon="8.033348">
        <ele>887.009120</ele>
        <time>2021-11-22T00:37:08.048Z</time>
      </trkpt>
      <trkpt lat="47.660704" lon="8.033736">
        <ele>887.290257</ele>
        <time>2021-11-22T00:37:13.888Z</time>
      </trkpt>
      <trkpt lat="47.660720" lon="8.034012">
        <ele>887.590868</ele>
        <time>2021-11-22T00:37:18.502Z</time>
      </trkpt>
      <trkpt lat="47.660815" lon="8.035030">
        <ele>888.706109</ele>
        <time>2021-11-22T00:37:35.952Z</time>
      </trkpt>
      <trkpt lat="47.660862" lon="8.035538">
        <ele>889.262543</ele>
        <time>2021-11-22T00:37:43.426Z</time>
      </trkpt>
      <trkpt lat="47.660914" lon="8.035843">
        <ele>889.603954</ele>
        <time>2021-11-22T00:37:47.051Z</time>
      </trkpt>
      <trkpt lat="47.660975" lon="8.036110">
        <ele>889.909904</ele>
        <time>2021-11-22T00:37:50.824Z</time>
      </trkpt>
      <trkpt lat="47.661241" lon="8.036936">
        <ele>889.097442</ele>
        <time>2021-11-22T00:37:59.306Z</time>
      </trkpt>
      <trkpt lat="47.661339" lon="8.037219">
        <ele>888.815013</ele>
        <time>2021-11-22T00:38:01.818Z</time>
      </trkpt>
      <trkpt lat="47.661582" lon="8.037913">
        <ele>888.120796</ele>
        <time>2021-11-22T00:38:07.711Z</time>
      </trkpt>
      <trkpt lat="47.661689" lon="8.038216">
        <ele>887.817149</ele>
        <time>2021-11-22T00:38:10.063Z</time>
      </trkpt>
      <trkpt lat="47.661789" lon="8.038453">
        <ele>887.568935</ele>
        <time>2021-11-22T00:38:12.054Z</time>
      </trkpt>
      <trkpt lat="47.661891" lon="8.038641">
        <ele>887.297425</ele>
        <time>2021-11-22T00:38:13.687Z</time>
      </trkpt>
      <trkpt lat="47.662271" lon="8.039086">
        <ele>886.462404</ele>
        <time>2021-11-22T00:38:18.724Z</time>
      </trkpt>
      <trkpt lat="47.662539" lon="8.039274">
        <ele>885.950997</ele>
        <time>2021-11-22T00:38:22.036Z</time>
      </trkpt>
      <trkpt lat="47.662607" lon="8.039318">
        <ele>885.823016</ele>
        <time>2021-11-22T00:38:22.900Z</time>
      </trkpt>
      <trkpt lat="47.662994" lon="8.039590">
        <ele>885.084271</ele>
        <time>2021-11-22T00:38:28.208Z</time>
      </trkpt>
      <trkpt lat="47.663165" lon="8.039787">
        <ele>884.710841</ele>
        <time>2021-11-22T00:38:30.743Z</time>
      </trkpt>
      <trkpt lat="47.663346" lon="8.040076">
        <ele>884.280479</ele>
        <time>2021-11-22T00:38:34.123Z</time>
      </trkpt>
      <trkpt lat="47.663389" lon="8.040182">
        <ele>884.158720</ele>
        <time>2021-11-22T00:38:35.148Z</time>
      </trkpt>
      <trkpt lat="47.663465" lon="8.040394">
        <ele>883.922411</ele>
        <time>2021-11-22T00:38:37.264Z</time>
      </trkpt>
      <trkpt lat="47.663604" lon="8.040960">
        <ele>883.329623</ele>
        <time>2021-11-22T00:38:42.432Z</time>
      </trkpt>
      <trkpt lat="47.663626" lon="8.041348">
        <ele>882.946499</ele>
        <time>2021-11-22T00:38:45.786Z</time>
      </trkpt>
      <trkpt lat="47.663632" lon="8.041681">
        <ele>882.618727</ele>
        <time>2021-11-22T00:38:48.256Z</time>
      </trkpt>
      <trkpt lat="47.663654" lon="8.042301">
        <ele>882.007831</ele>
        <time>2021-11-22T00:38:52.905Z</time>
      </trkpt>
      <trkpt lat="47.663729" lon="8.042678">
        <ele>881.292448</ele>
        <time>2021-11-22T00:38:55.703Z</time>
      </trkpt>
      <trkpt lat="47.663905" lon="8.043336">
        <ele>879.375728</ele>
        <time>2021-11-22T00:39:00.540Z</time>
      </trkpt>
      <trkpt lat="47.663981" lon="8.043746">
        <ele>878.224483</ele>
        <time>2021-11-22T00:39:03.248Z</time>
      </trkpt>
      <trkpt lat="47.664042" lon="8.044519">
        <ele>876.117469</ele>
        <time>2021-11-22T00:39:08.202Z</time>
      </trkpt>
      <trkpt lat="47.664016" lon="8.045043">
        <ele>874.695031</ele>
        <time>2021-11-22T00:39:11.549Z</time>
      </trkpt>
      <trkpt lat="47.663939" lon="8.046061">
        <ele>873.404466</ele>
        <time>2021-11-22T00:39:18.238Z</time>
      </trkpt>
      <trkpt lat="47.663895" lon="8.046633">
        <ele>872.715720</ele>
        <time>2021-11-22T00:39:22.560Z</time>
      </trkpt>
      <trkpt lat="47.663810" lon="8.047427">
        <ele>871.753913</ele>
        <time>2021-11-22T00:39:30.142Z</time>
      </trkpt>
      <trkpt lat="47.663756" lon="8.047691">
        <ele>871.423838</ele>
        <time>2021-11-22T00:39:32.722Z</time>
      </trkpt>
      <trkpt lat="47.663806" lon="8.047709">
        <ele>871.483819</ele>
        <time>2021-11-22T00:39:33.948Z</time>
      </trkpt>
      <trkpt lat="47.663946" lon="8.047621">
        <ele>872.014840</ele>
        <time>2021-11-22T00:39:37.298Z</time>
      </trkpt>
      <trkpt lat="47.664000" lon="8.047530">
        <ele>872.300151</ele>
        <time>2021-11-22T00:39:39.012Z</time>
      </trkpt>
      <trkpt lat="47.664224" lon="8.047131">
        <ele>873.522097</ele>
        <time>2021-11-22T00:39:48.431Z</time>
      </trkpt>
      <trkpt lat="47.664354" lon="8.046968">
        <ele>874.116415</ele>
        <time>2021-11-22T00:39:53.283Z</time>
      </trkpt>
      <trkpt lat="47.664403" lon="8.046911">
        <ele>874.333837</ele>
        <time>2021-11-22T00:39:55.563Z</time>
      </trkpt>
      <trkpt lat="47.664966" lon="8.046372">
        <ele>876.673670</ele>
        <time>2021-11-22T00:40:16.670Z</time>
      </trkpt>
      <trkpt lat="47.665093" lon="8.046323">
        <ele>877.132002</ele>
        <time>2021-11-22T00:40:21.727Z</time>
      </trkpt>
      <trkpt lat="47.665181" lon="8.046289">
        <ele>877.449614</ele>
        <time>2021-11-22T00:40:24.540Z</time>
      </trkpt>
      <trkpt lat="47.665211" lon="8.046289">
        <ele>877.554401</ele>
        <time>2021-11-22T00:40:25.537Z</time>
      </trkpt>
      <trkpt lat="47.665840" lon="8.046282">
        <ele>881.113353</ele>
        <time>2021-11-22T00:40:48.977Z</time>
      </trkpt>
      <trkpt lat="47.665959" lon="8.046286">
        <ele>881.800611</ele>
        <time>2021-11-22T00:40:52.842Z</time>
      </trkpt>
      <trkpt lat="47.666325" lon="8.046285">
        <ele>883.913825</ele>
        <time>2021-11-22T00:41:06.320Z</time>
      </trkpt>
      <trkpt lat="47.666524" lon="8.046284">
        <ele>885.062818</ele>
        <time>2021-11-22T00:41:13.905Z</time>
      </trkpt>
      <trkpt lat="47.666524" lon="8.046284">
        <ele>885.062818</ele>
        <time>2021-11-22T00:41:13.993Z</time>
      </trkpt>
      <trkpt lat="47.666795" lon="8.046220">
        <ele>886.647183</ele>
        <time>2021-11-22T00:41:24.713Z</time>
      </trkpt>
      <trkpt lat="47.666861" lon="8.046204">
        <ele>887.033299</ele>
        <time>2021-11-22T00:41:27.725Z</time>
      </trkpt>
      <trkpt lat="47.667152" lon="8.046097">
        <ele>888.920177</ele>
        <time>2021-11-22T00:41:39.651Z</time>
      </trkpt>
      <trkpt lat="47.667301" lon="8.046004">
        <ele>890.057443</ele>
        <time>2021-11-22T00:41:46.921Z</time>
      </trkpt>
      <trkpt lat="47.667550" lon="8.045756">
        <ele>892.167097</ele>
        <time>2021-11-22T00:41:59.740Z</time>
      </trkpt>
      <trkpt lat="47.667881" lon="8.045298">
        <ele>895.350528</ele>
        <time>2021-11-22T00:42:19.540Z</time>
      </trkpt>
      <trkpt lat="47.667928" lon="8.045198">
        <ele>895.928366</ele>
        <time>2021-11-22T00:42:23.906Z</time>
      </trkpt>
      <trkpt lat="47.668040" lon="8.044989">
        <ele>897.193996</ele>
        <time>2021-11-22T00:42:31.514Z</time>
      </trkpt>
      <trkpt lat="47.668196" lon="8.044756">
        <ele>898.750857</ele>
        <time>2021-11-22T00:42:41.468Z</time>
      </trkpt>
      <trkpt lat="47.668328" lon="8.044616">
        <ele>899.892231</ele>
        <time>2021-11-22T00:42:48.246Z</time>
      </trkpt>
      <trkpt lat="47.668534" lon="8.044400">
        <ele>901.563377</ele>
        <time>2021-11-22T00:42:59.059Z</time>
      </trkpt>
      <trkpt lat="47.668659" lon="8.044268">
        <ele>902.526513</ele>
        <time>2021-11-22T00:43:04.627Z</time>
      </trkpt>
      <trkpt lat="47.668781" lon="8.044146">
        <ele>903.450091</ele>
        <time>2021-11-22T00:43:11.607Z</time>
      </trkpt>
      <trkpt lat="47.668845" lon="8.044086">
        <ele>903.925350</ele>
        <time>2021-11-22T00:43:14.412Z</time>
      </trkpt>
      <trkpt lat="47.669158" lon="8.043809">
        <ele>906.213312</ele>
        <time>2021-11-22T00:43:29.806Z</time>
      </trkpt>
      <trkpt lat="47.669745" lon="8.043311">
        <ele>910.458350</ele>
        <time>2021-11-22T00:43:55.591Z</time>
      </trkpt>
      <trkpt lat="47.670120" lon="8.042976">
        <ele>913.276283</ele>
        <time>2021-11-22T00:44:11.857Z</time>
      </trkpt>
      <trkpt lat="47.670353" lon="8.042815">
        <ele>914.983666</ele>
        <time>2021-11-22T00:44:21.106Z</time>
      </trkpt>
      <trkpt lat="47.670804" lon="8.042503">
        <ele>918.289200</ele>
        <time>2021-11-22T00:44:39.927Z</time>
      </trkpt>
      <trkpt lat="47.671899" lon="8.041989">
        <ele>926.412281</ele>
        <time>2021-11-22T00:45:32.350Z</time>
      </trkpt>
      <trkpt lat="47.672242" lon="8.041923">
        <ele>929.286145</ele>
        <time>2021-11-22T00:45:48.719Z</time>
      </trkpt>
      <trkpt lat="47.672781" lon="8.041828">
        <ele>933.796210</ele>
        <time>2021-11-22T00:46:15.676Z</time>
      </trkpt>
      <trkpt lat="47.672995" lon="8.041769">
        <ele>935.604751</ele>
        <time>2021-11-22T00:46:26.540Z</time>
      </trkpt>
      <trkpt lat="47.673985" lon="8.041192">
        <ele>942.520907</ele>
        <time>2021-11-22T00:47:18.522Z</time>
      </trkpt>
      <trkpt lat="47.674373" lon="8.040874">
        <ele>944.927851</ele>
        <time>2021-11-22T00:47:35.357Z</time>
      </trkpt>
      <trkpt lat="47.674565" lon="8.040822">
        <ele>945.987856</ele>
        <time>2021-11-22T00:47:42.275Z</time>
      </trkpt>
      <trkpt lat="47.677340" lon="8.039284">
        <ele>948.997800</ele>
        <time>2021-11-22T00:48:41.656Z</time>
      </trkpt>
      <trkpt lat="47.677464" lon="8.039192">
        <ele>948.558143</ele>
        <time>2021-11-22T00:48:42.977Z</time>
      </trkpt>
      <trkpt lat="47.677793" lon="8.039036">
        <ele>947.462707</ele>
        <time>2021-11-22T00:48:46.194Z</time>
      </trkpt>
      <trkpt lat="47.678069" lon="8.038823">
        <ele>946.476143</ele>
        <time>2021-11-22T00:48:49.051Z</time>
      </trkpt>
      <trkpt lat="47.678601" lon="8.038461">
        <ele>943.791518</ele>
        <time>2021-11-22T00:48:54.379Z</time>
      </trkpt>
      <trkpt lat="47.678867" lon="8.038371">
        <ele>942.028930</ele>
        <time>2021-11-22T00:48:56.801Z</time>
      </trkpt>
      <trkpt lat="47.679059" lon="8.038388">
        <ele>940.786263</ele>
        <time>2021-11-22T00:48:58.516Z</time>
      </trkpt>
      <trkpt lat="47.679772" lon="8.038786">
        <ele>935.865162</ele>
        <time>2021-11-22T00:49:05.396Z</time>
      </trkpt>
      <trkpt lat="47.679904" lon="8.038789">
        <ele>935.012243</ele>
        <time>2021-11-22T00:49:06.607Z</time>
      </trkpt>
      <trkpt lat="47.680077" lon="8.038763">
        <ele>933.888826</ele>
        <time>2021-11-22T00:49:08.203Z</time>
      </trkpt>
      <trkpt lat="47.680480" lon="8.038450">
        <ele>931.837473</ele>
        <time>2021-11-22T00:49:12.483Z</time>
      </trkpt>
      <trkpt lat="47.680738" lon="8.037885">
        <ele>929.792615</ele>
        <time>2021-11-22T00:49:17.018Z</time>
      </trkpt>
      <trkpt lat="47.680802" lon="8.037531">
        <ele>928.694729</ele>
        <time>2021-11-22T00:49:19.418Z</time>
      </trkpt>
      <trkpt lat="47.680851" lon="8.037260">
        <ele>927.854251</ele>
        <time>2021-11-22T00:49:21.271Z</time>
      </trkpt>
      <trkpt lat="47.681185" lon="8.035417">
        <ele>922.765176</ele>
        <time>2021-11-22T00:49:33.751Z</time>
      </trkpt>
      <trkpt lat="47.681242" lon="8.034582">
        <ele>920.682548</ele>
        <time>2021-11-22T00:49:39.491Z</time>
      </trkpt>
      <trkpt lat="47.681229" lon="8.033817">
        <ele>918.892228</ele>
        <time>2021-11-22T00:49:44.630Z</time>
      </trkpt>
      <trkpt lat="47.681221" lon="8.033480">
        <ele>918.292348</ele>
        <time>2021-11-22T00:49:46.900Z</time>
      </trkpt>
      <trkpt lat="47.681197" lon="8.032505">
        <ele>916.556706</ele>
        <time>2021-11-22T00:49:53.558Z</time>
      </trkpt>
      <trkpt lat="47.681203" lon="8.032236">
        <ele>916.077904</ele>
        <time>2021-11-22T00:49:55.422Z</time>
      </trkpt>
      <trkpt lat="47.681217" lon="8.031973">
        <ele>915.608578</ele>
        <time>2021-11-22T00:49:57.331Z</time>
      </trkpt>
      <trkpt lat="47.681251" lon="8.031637">
        <ele>915.004135</ele>
        <time>2021-11-22T00:49:59.788Z</time>
      </trkpt>
      <trkpt lat="47.681415" lon="8.030695">
        <ele>914.752744</ele>
        <time>2021-11-22T00:50:07.625Z</time>
      </trkpt>
      <trkpt lat="47.681649" lon="8.029887">
        <ele>915.216280</ele>
        <time>2021-11-22T00:50:16.475Z</time>
      </trkpt>
      <trkpt lat="47.682253" lon="8.029326">
        <ele>915.773894</ele>
        <time>2021-11-22T00:50:32.805Z</time>
      </trkpt>
      <trkpt lat="47.682284" lon="8.029302">
        <ele>915.801258</ele>
        <time>2021-11-22T00:50:34.439Z</time>
      </trkpt>
      <trkpt lat="47.682777" lon="8.028844">
        <ele>918.627023</ele>
        <time>2021-11-22T00:50:51.648Z</time>
      </trkpt>
      <trkpt lat="47.683078" lon="8.028586">
        <ele>920.385286</ele>
        <time>2021-11-22T00:51:03.669Z</time>
      </trkpt>
      <trkpt lat="47.683244" lon="8.028477">
        <ele>921.303557</ele>
        <time>2021-11-22T00:51:10.928Z</time>
      </trkpt>
      <trkpt lat="47.683359" lon="8.028418">
        <ele>921.919122</ele>
        <time>2021-11-22T00:51:15.110Z</time>
      </trkpt>
      <trkpt lat="47.684704" lon="8.027745">
        <ele>930.941895</ele>
        <time>2021-11-22T00:52:13.307Z</time>
      </trkpt>
      <trkpt lat="47.685120" lon="8.027549">
        <ele>934.123711</ele>
        <time>2021-11-22T00:52:32.660Z</time>
      </trkpt>
      <trkpt lat="47.685388" lon="8.027534">
        <ele>936.078989</ele>
        <time>2021-11-22T00:52:45.534Z</time>
      </trkpt>
      <trkpt lat="47.686440" lon="8.027867">
        <ele>945.573399</ele>
        <time>2021-11-22T00:53:37.694Z</time>
      </trkpt>
      <trkpt lat="47.686897" lon="8.028014">
        <ele>949.939664</ele>
        <time>2021-11-22T00:54:04.237Z</time>
      </trkpt>
      <trkpt lat="47.687310" lon="8.028230">
        <ele>954.028205</ele>
        <time>2021-11-22T00:54:28.430Z</time>
      </trkpt>
      <trkpt lat="47.687428" lon="8.028421">
        <ele>955.686912</ele>
        <time>2021-11-22T00:54:36.063Z</time>
      </trkpt>
      <trkpt lat="47.687566" lon="8.028910">
        <ele>959.137320</ele>
        <time>2021-11-22T00:54:55.788Z</time>
      </trkpt>
      <trkpt lat="47.687575" lon="8.029140">
        <ele>960.636537</ele>
        <time>2021-11-22T00:55:06.557Z</time>
      </trkpt>
      <trkpt lat="47.687587" lon="8.029347">
        <ele>961.988544</ele>
        <time>2021-11-22T00:55:14.524Z</time>
      </trkpt>
      <trkpt lat="47.687597" lon="8.029545">
        <ele>963.280620</ele>
        <time>2021-11-22T00:55:21.091Z</time>
      </trkpt>
      <trkpt lat="47.687633" lon="8.029655">
        <ele>964.076538</ele>
        <time>2021-11-22T00:55:26.691Z</time>
      </trkpt>
      <trkpt lat="47.687678" lon="8.029737">
        <ele>964.764983</ele>
        <time>2021-11-22T00:55:30.770Z</time>
      </trkpt>
      <trkpt lat="47.687832" lon="8.029919">
        <ele>966.667292</ele>
        <time>2021-11-22T00:55:39.424Z</time>
      </trkpt>
      <trkpt lat="47.687967" lon="8.029945">
        <ele>967.983216</ele>
        <time>2021-11-22T00:55:47.802Z</time>
      </trkpt>
      <trkpt lat="47.688163" lon="8.029878">
        <ele>969.927403</ele>
        <time>2021-11-22T00:55:56.524Z</time>
      </trkpt>
      <trkpt lat="47.688255" lon="8.029813">
        <ele>970.912198</ele>
        <time>2021-11-22T00:56:02.749Z</time>
      </trkpt>
      <trkpt lat="47.688541" lon="8.029534">
        <ele>973.783550</ele>
        <time>2021-11-22T00:56:19.566Z</time>
      </trkpt>
      <trkpt lat="47.688693" lon="8.029402">
        <ele>975.114659</ele>
        <time>2021-11-22T00:56:29.047Z</time>
      </trkpt>
      <trkpt lat="47.688941" lon="8.029106">
        <ele>977.519795</ele>
        <time>2021-11-22T00:56:43.247Z</time>
      </trkpt>
      <trkpt lat="47.688973" lon="8.029042">
        <ele>977.925524</ele>
        <time>2021-11-22T00:56:45.732Z</time>
      </trkpt>
      <trkpt lat="47.689084" lon="8.028821">
        <ele>979.328813</ele>
        <time>2021-11-22T00:56:53.474Z</time>
      </trkpt>
      <trkpt lat="47.689741" lon="8.028056">
        <ele>985.639836</ele>
        <time>2021-11-22T00:57:30.458Z</time>
      </trkpt>
      <trkpt lat="47.689946" lon="8.027870">
        <ele>987.070042</ele>
        <time>2021-11-22T00:57:40.002Z</time>
      </trkpt>
      <trkpt lat="47.690398" lon="8.027448">
        <ele>990.156241</ele>
        <time>2021-11-22T00:57:59.631Z</time>
      </trkpt>
      <trkpt lat="47.690589" lon="8.027275">
        <ele>991.449460</ele>
        <time>2021-11-22T00:58:08.106Z</time>
      </trkpt>
      <trkpt lat="47.690721" lon="8.027126">
        <ele>992.407844</ele>
        <time>2021-11-22T00:58:14.488Z</time>
      </trkpt>
      <trkpt lat="47.690924" lon="8.026889">
        <ele>993.900414</ele>
        <time>2021-11-22T00:58:24.318Z</time>
      </trkpt>
      <trkpt lat="47.691288" lon="8.026502">
        <ele>996.444512</ele>
        <time>2021-11-22T00:58:40.357Z</time>
      </trkpt>
      <trkpt lat="47.691662" lon="8.026240">
        <ele>998.454591</ele>
        <time>2021-11-22T00:58:55.010Z</time>
      </trkpt>
      <trkpt lat="47.691875" lon="8.026015">
        <ele>999.725090</ele>
        <time>2021-11-22T00:59:03.799Z</time>
      </trkpt>
      <trkpt lat="47.692022" lon="8.025872">
        <ele>1000.579252</ele>
        <time>2021-11-22T00:59:10.547Z</time>
      </trkpt>
      <trkpt lat="47.692484" lon="8.025672">
        <ele>1002.918527</ele>
        <time>2021-11-22T00:59:26.336Z</time>
      </trkpt>
      <trkpt lat="47.692716" lon="8.025640">
        <ele>1004.051173</ele>
        <time>2021-11-22T00:59:34.203Z</time>
      </trkpt>
      <trkpt lat="47.692935" lon="8.025620">
        <ele>1005.082258</ele>
        <time>2021-11-22T00:59:40.782Z</time>
      </trkpt>
      <trkpt lat="47.692982" lon="8.025617">
        <ele>1005.260135</ele>
        <time>2021-11-22T00:59:43.385Z</time>
      </trkpt>
      <trkpt lat="47.693981" lon="8.025556">
        <ele>1009.040660</ele>
        <time>2021-11-22T01:00:14.273Z</time>
      </trkpt>
      <trkpt lat="47.694490" lon="8.025057">
        <ele>1011.346490</ele>
        <time>2021-11-22T01:00:32.672Z</time>
      </trkpt>
      <trkpt lat="47.695067" lon="8.024641">
        <ele>1012.761184</ele>
        <time>2021-11-22T01:00:47.715Z</time>
      </trkpt>
      <trkpt lat="47.695167" lon="8.024552">
        <ele>1012.980699</ele>
        <time>2021-11-22T01:00:50.624Z</time>
      </trkpt>
      <trkpt lat="47.695582" lon="8.024186">
        <ele>1013.889511</ele>
        <time>2021-11-22T01:01:00.710Z</time>
      </trkpt>
      <trkpt lat="47.695949" lon="8.023902">
        <ele>1014.668743</ele>
        <time>2021-11-22T01:01:09.207Z</time>
      </trkpt>
      <trkpt lat="47.696121" lon="8.023737">
        <ele>1015.054289</ele>
        <time>2021-11-22T01:01:13.517Z</time>
      </trkpt>
      <trkpt lat="47.696662" lon="8.022922">
        <ele>1015.754626</ele>
        <time>2021-11-22T01:01:28.255Z</time>
      </trkpt>
      <trkpt lat="47.697090" lon="8.022559">
        <ele>1016.170271</ele>
        <time>2021-11-22T01:01:37.604Z</time>
      </trkpt>
      <trkpt lat="47.697392" lon="8.022307">
        <ele>1016.462396</ele>
        <time>2021-11-22T01:01:43.879Z</time>
      </trkpt>
      <trkpt lat="47.697640" lon="8.022045">
        <ele>1016.592868</ele>
        <time>2021-11-22T01:01:49.210Z</time>
      </trkpt>
      <trkpt lat="47.698454" lon="8.020607">
        <ele>1015.266231</ele>
        <time>2021-11-22T01:02:05.327Z</time>
      </trkpt>
      <trkpt lat="47.698769" lon="8.019792">
        <ele>1014.125692</ele>
        <time>2021-11-22T01:02:12.134Z</time>
      </trkpt>
      <trkpt lat="47.698870" lon="8.019452">
        <ele>1013.141062</ele>
        <time>2021-11-22T01:02:14.734Z</time>
      </trkpt>
      <trkpt lat="47.698886" lon="8.019389">
        <ele>1012.962662</ele>
        <time>2021-11-22T01:02:15.195Z</time>
      </trkpt>
      <trkpt lat="47.698950" lon="8.019245">
        <ele>1012.505473</ele>
        <time>2021-11-22T01:02:16.317Z</time>
      </trkpt>
      <trkpt lat="47.698987" lon="8.019194">
        <ele>1012.306800</ele>
        <time>2021-11-22T01:02:16.789Z</time>
      </trkpt>
      <trkpt lat="47.699120" lon="8.019010">
        <ele>1011.591432</ele>
        <time>2021-11-22T01:02:18.482Z</time>
      </trkpt>
      <trkpt lat="47.699204" lon="8.018887">
        <ele>1011.127176</ele>
        <time>2021-11-22T01:02:19.552Z</time>
      </trkpt>
      <trkpt lat="47.699463" lon="8.018583">
        <ele>1009.827880</ele>
        <time>2021-11-22T01:02:22.661Z</time>
      </trkpt>
      <trkpt lat="47.699697" lon="8.018173">
        <ele>1008.403660</ele>
        <time>2021-11-22T01:02:26.124Z</time>
      </trkpt>
      <trkpt lat="47.699839" lon="8.017859">
        <ele>1007.525360</ele>
        <time>2021-11-22T01:02:28.739Z</time>
      </trkpt>
      <trkpt lat="47.699835" lon="8.017801">
        <ele>1007.435975</ele>
        <time>2021-11-22T01:02:29.084Z</time>
      </trkpt>
      <trkpt lat="47.699826" lon="8.017362">
        <ele>1006.762639</ele>
        <time>2021-11-22T01:02:32.320Z</time>
      </trkpt>
      <trkpt lat="47.699813" lon="8.017213">
        <ele>1006.532298</ele>
        <time>2021-11-22T01:02:33.225Z</time>
      </trkpt>
      <trkpt lat="47.699597" lon="8.017288">
        <ele>1006.027008</ele>
        <time>2021-11-22T01:02:36.613Z</time>
      </trkpt>
      <trkpt lat="47.698902" lon="8.017665">
        <ele>1004.341639</ele>
        <time>2021-11-22T01:02:44.692Z</time>
      </trkpt>
      <trkpt lat="47.698528" lon="8.017844">
        <ele>1003.415586</ele>
        <time>2021-11-22T01:02:48.893Z</time>
      </trkpt>
      <trkpt lat="47.698267" lon="8.017921">
        <ele>1002.685683</ele>
        <time>2021-11-22T01:02:52.269Z</time>
      </trkpt>
      <trkpt lat="47.698194" lon="8.017933">
        <ele>1002.484222</ele>
        <time>2021-11-22T01:02:53.669Z</time>
      </trkpt>
      <trkpt lat="47.697983" lon="8.017968">
        <ele>1001.901850</ele>
        <time>2021-11-22T01:02:56.857Z</time>
      </trkpt>
      <trkpt lat="47.697781" lon="8.017936">
        <ele>1001.344621</ele>
        <time>2021-11-22T01:02:59.152Z</time>
      </trkpt>
      <trkpt lat="47.697010" lon="8.017759">
        <ele>999.204662</ele>
        <time>2021-11-22T01:03:06.985Z</time>
      </trkpt>
      <trkpt lat="47.696473" lon="8.017726">
        <ele>996.940800</ele>
        <time>2021-11-22T01:03:12.000Z</time>
      </trkpt>
      <trkpt lat="47.696352" lon="8.017751">
        <ele>996.322499</ele>
        <time>2021-11-22T01:03:13.106Z</time>
      </trkpt>
      <trkpt lat="47.696152" lon="8.017833">
        <ele>995.272420</ele>
        <time>2021-11-22T01:03:15.045Z</time>
      </trkpt>
      <trkpt lat="47.695840" lon="8.018011">
        <ele>993.580902</ele>
        <time>2021-11-22T01:03:18.144Z</time>
      </trkpt>
      <trkpt lat="47.695674" lon="8.018175">
        <ele>992.571948</ele>
        <time>2021-11-22T01:03:19.981Z</time>
      </trkpt>
      <trkpt lat="47.695579" lon="8.018269">
        <ele>991.994261</ele>
        <time>2021-11-22T01:03:21.023Z</time>
      </trkpt>
      <trkpt lat="47.695350" lon="8.018583">
        <ele>990.417080</ele>
        <time>2021-11-22T01:03:23.948Z</time>
      </trkpt>
      <trkpt lat="47.694743" lon="8.019647">
        <ele>986.946045</ele>
        <time>2021-11-22T01:03:33.263Z</time>
      </trkpt>
      <trkpt lat="47.694578" lon="8.019835">
        <ele>986.239526</ele>
        <time>2021-11-22T01:03:35.460Z</time>
      </trkpt>
      <trkpt lat="47.694391" lon="8.019962">
        <ele>985.540904</ele>
        <time>2021-11-22T01:03:37.800Z</time>
      </trkpt>
      <trkpt lat="47.694216" lon="8.020019">
        <ele>984.932172</ele>
        <time>2021-11-22T01:03:39.708Z</time>
      </trkpt>
      <trkpt lat="47.694060" lon="8.020049">
        <ele>984.397697</ele>
        <time>2021-11-22T01:03:41.364Z</time>
      </trkpt>
      <trkpt lat="47.693895" lon="8.020047">
        <ele>983.837045</ele>
        <time>2021-11-22T01:03:42.983Z</time>
      </trkpt>
      <trkpt lat="47.693801" lon="8.020011">
        <ele>983.507213</ele>
        <time>2021-11-22T01:03:44.100Z</time>
      </trkpt>
      <trkpt lat="47.693543" lon="8.019913">
        <ele>981.683007</ele>
        <time>2021-11-22T01:03:46.622Z</time>
      </trkpt>
      <trkpt lat="47.693342" lon="8.019760">
        <ele>980.083264</ele>
        <time>2021-11-22T01:03:48.785Z</time>
      </trkpt>
      <trkpt lat="47.693162" lon="8.019540">
        <ele>978.432255</ele>
        <time>2021-11-22T01:03:51.011Z</time>
      </trkpt>
      <trkpt lat="47.693037" lon="8.019317">
        <ele>977.048640</ele>
        <time>2021-11-22T01:03:52.757Z</time>
      </trkpt>
      <trkpt lat="47.692707" lon="8.018208">
        <ele>971.267501</ele>
        <time>2021-11-22T01:03:59.876Z</time>
      </trkpt>
      <trkpt lat="47.692537" lon="8.017846">
        <ele>968.920984</ele>
        <time>2021-11-22T01:04:02.407Z</time>
      </trkpt>
      <trkpt lat="47.692350" lon="8.017552">
        <ele>966.690627</ele>
        <time>2021-11-22T01:04:04.719Z</time>
      </trkpt>
      <trkpt lat="47.691974" lon="8.017174">
        <ele>962.971613</ele>
        <time>2021-11-22T01:04:08.672Z</time>
      </trkpt>
      <trkpt lat="47.691820" lon="8.017076">
        <ele>961.599230</ele>
        <time>2021-11-22T01:04:10.102Z</time>
      </trkpt>
      <trkpt lat="47.691689" lon="8.017007">
        <ele>960.460668</ele>
        <time>2021-11-22T01:04:11.386Z</time>
      </trkpt>
      <trkpt lat="47.691665" lon="8.016994">
        <ele>960.251407</ele>
        <time>2021-11-22T01:04:11.627Z</time>
      </trkpt>
      <trkpt lat="47.691435" lon="8.016911">
        <ele>958.312528</ele>
        <time>2021-11-22T01:04:13.759Z</time>
      </trkpt>
      <trkpt lat="47.690220" lon="8.016934">
        <ele>952.823715</ele>
        <time>2021-11-22T01:04:25.386Z</time>
      </trkpt>
      <trkpt lat="47.690082" lon="8.016904">
        <ele>952.350935</ele>
        <time>2021-11-22T01:04:27.816Z</time>
      </trkpt>
      <trkpt lat="47.690058" lon="8.016898">
        <ele>952.268434</ele>
        <time>2021-11-22T01:04:28.154Z</time>
      </trkpt>
      <trkpt lat="47.689914" lon="8.016822">
        <ele>951.750407</ele>
        <time>2021-11-22T01:04:29.919Z</time>
      </trkpt>
      <trkpt lat="47.689713" lon="8.016686">
        <ele>951.001705</ele>
        <time>2021-11-22T01:04:32.988Z</time>
      </trkpt>
      <trkpt lat="47.689376" lon="8.016457">
        <ele>949.655830</ele>
        <time>2021-11-22T01:04:37.002Z</time>
      </trkpt>
      <trkpt lat="47.688439" lon="8.015818">
        <ele>943.806258</ele>
        <time>2021-11-22T01:04:46.772Z</time>
      </trkpt>
      <trkpt lat="47.688100" lon="8.015587">
        <ele>941.690215</ele>
        <time>2021-11-22T01:04:50.068Z</time>
      </trkpt>
      <trkpt lat="47.687490" lon="8.015190">
        <ele>937.286836</ele>
        <time>2021-11-22T01:04:55.947Z</time>
      </trkpt>
      <trkpt lat="47.686930" lon="8.015043">
        <ele>932.916144</ele>
        <time>2021-11-22T01:05:00.995Z</time>
      </trkpt>
      <trkpt lat="47.686756" lon="8.015038">
        <ele>931.578576</ele>
        <time>2021-11-22T01:05:02.510Z</time>
      </trkpt>
      <trkpt lat="47.686668" lon="8.015036">
        <ele>930.902153</ele>
        <time>2021-11-22T01:05:03.304Z</time>
      </trkpt>
      <trkpt lat="47.686492" lon="8.015040">
        <ele>929.549306</ele>
        <time>2021-11-22T01:05:04.899Z</time>
      </trkpt>
      <trkpt lat="47.686307" lon="8.015044">
        <ele>928.127295</ele>
        <time>2021-11-22T01:05:06.516Z</time>
      </trkpt>
      <trkpt lat="47.685997" lon="8.015101">
        <ele>925.723405</ele>
        <time>2021-11-22T01:05:09.315Z</time>
      </trkpt>
      <trkpt lat="47.685071" lon="8.015391">
        <ele>918.265433</ele>
        <time>2021-11-22T01:05:17.841Z</time>
      </trkpt>
      <trkpt lat="47.685055" lon="8.015288">
        <ele>917.704623</ele>
        <time>2021-11-22T01:05:18.711Z</time>
      </trkpt>
      <trkpt lat="47.684995" lon="8.015181">
        <ele>916.965818</ele>
        <time>2021-11-22T01:05:19.857Z</time>
      </trkpt>
      <trkpt lat="47.684659" lon="8.015251">
        <ele>914.291978</ele>
        <time>2021-11-22T01:05:24.137Z</time>
      </trkpt>
      <trkpt lat="47.684265" lon="8.015017">
        <ele>910.908016</ele>
        <time>2021-11-22T01:05:29.376Z</time>
      </trkpt>
      <trkpt lat="47.684056" lon="8.014835">
        <ele>908.893853</ele>
        <time>2021-11-22T01:05:32.420Z</time>
      </trkpt>
      <trkpt lat="47.684174" lon="8.014751">
        <ele>907.805986</ele>
        <time>2021-11-22T01:05:33.989Z</time>
      </trkpt>
      <trkpt lat="47.684412" lon="8.014496">
        <ele>905.366278</ele>
        <time>2021-11-22T01:05:37.572Z</time>
      </trkpt>
      <trkpt lat="47.684729" lon="8.013793">
        <ele>900.630539</ele>
        <time>2021-11-22T01:05:44.602Z</time>
      </trkpt>
      <trkpt lat="47.684700" lon="8.013551">
        <ele>899.254790</ele>
        <time>2021-11-22T01:05:46.784Z</time>
      </trkpt>
      <trkpt lat="47.684365" lon="8.013166">
        <ele>896.415966</ele>
        <time>2021-11-22T01:05:52.162Z</time>
      </trkpt>
      <trkpt lat="47.684309" lon="8.013023">
        <ele>896.129502</ele>
        <time>2021-11-22T01:05:53.544Z</time>
      </trkpt>
      <trkpt lat="47.684282" lon="8.012870">
        <ele>895.855617</ele>
        <time>2021-11-22T01:05:55.806Z</time>
      </trkpt>
      <trkpt lat="47.684291" lon="8.012371">
        <ele>894.991243</ele>
        <time>2021-11-22T01:06:00.723Z</time>
      </trkpt>
      <trkpt lat="47.684454" lon="8.011879">
        <ele>894.041727</ele>
        <time>2021-11-22T01:06:06.785Z</time>
      </trkpt>
      <trkpt lat="47.684458" lon="8.011679">
        <ele>893.695257</ele>
        <time>2021-11-22T01:06:09.940Z</time>
      </trkpt>
      <trkpt lat="47.684278" lon="8.010604">
        <ele>891.913684</ele>
        <time>2021-11-22T01:06:22.863Z</time>
      </trkpt>
      <trkpt lat="47.684254" lon="8.010457">
        <ele>891.764157</ele>
        <time>2021-11-22T01:06:24.966Z</time>
      </trkpt>
      <trkpt lat="47.684121" lon="8.009664">
        <ele>890.956289</ele>
        <time>2021-11-22T01:06:34.341Z</time>
      </trkpt>
      <trkpt lat="47.684087" lon="8.009503">
        <ele>890.789488</ele>
        <time>2021-11-22T01:06:36.688Z</time>
      </trkpt>
      <trkpt lat="47.684063" lon="8.009475">
        <ele>890.744677</ele>
        <time>2021-11-22T01:06:37.190Z</time>
      </trkpt>
      <trkpt lat="47.684011" lon="8.009417">
        <ele>890.649191</ele>
        <time>2021-11-22T01:06:38.202Z</time>
      </trkpt>
      <trkpt lat="47.683855" lon="8.009337">
        <ele>890.406858</ele>
        <time>2021-11-22T01:06:40.710Z</time>
      </trkpt>
      <trkpt lat="47.683675" lon="8.009326">
        <ele>890.142327</ele>
        <time>2021-11-22T01:06:42.857Z</time>
      </trkpt>
      <trkpt lat="47.683573" lon="8.009307">
        <ele>889.991380</ele>
        <time>2021-11-22T01:06:43.931Z</time>
      </trkpt>
      <trkpt lat="47.683523" lon="8.009238">
        <ele>889.891165</ele>
        <time>2021-11-22T01:06:44.579Z</time>
      </trkpt>
      <trkpt lat="47.683340" lon="8.008943">
        <ele>889.494618</ele>
        <time>2021-11-22T01:06:47.696Z</time>
      </trkpt>
      <trkpt lat="47.682426" lon="8.008412">
        <ele>888.486241</ele>
        <time>2021-11-22T01:06:58.444Z</time>
      </trkpt>
      <trkpt lat="47.682230" lon="8.008312">
        <ele>888.275937</ele>
        <time>2021-11-22T01:07:00.793Z</time>
      </trkpt>
      <trkpt lat="47.681736" lon="8.007910">
        <ele>887.704331</ele>
        <time>2021-11-22T01:07:09.894Z</time>
      </trkpt>
      <trkpt lat="47.681500" lon="8.007683">
        <ele>887.979577</ele>
        <time>2021-11-22T01:07:14.876Z</time>
      </trkpt>
      <trkpt lat="47.681188" lon="8.007224">
        <ele>888.723014</ele>
        <time>2021-11-22T01:07:23.490Z</time>
      </trkpt>
      <trkpt lat="47.681138" lon="8.007153">
        <ele>888.840121</ele>
        <time>2021-11-22T01:07:25.337Z</time>
      </trkpt>
      <trkpt lat="47.680982" lon="8.006933">
        <ele>889.204302</ele>
        <time>2021-11-22T01:07:29.579Z</time>
      </trkpt>
      <trkpt lat="47.680882" lon="8.006893">
        <ele>889.379630</ele>
        <time>2021-11-22T01:07:32.884Z</time>
      </trkpt>
      <trkpt lat="47.680803" lon="8.006859">
        <ele>889.518875</ele>
        <time>2021-11-22T01:07:35.483Z</time>
      </trkpt>
      <trkpt lat="47.680693" lon="8.006814">
        <ele>889.712034</ele>
        <time>2021-11-22T01:07:38.443Z</time>
      </trkpt>
      <trkpt lat="47.680652" lon="8.006809">
        <ele>889.781679</ele>
        <time>2021-11-22T01:07:39.475Z</time>
      </trkpt>
      <trkpt lat="47.680648" lon="8.006658">
        <ele>889.953923</ele>
        <time>2021-11-22T01:07:42.039Z</time>
      </trkpt>
      <trkpt lat="47.680615" lon="8.006508">
        <ele>890.133790</ele>
        <time>2021-11-22T01:07:44.853Z</time>
      </trkpt>
      <trkpt lat="47.680502" lon="8.006372">
        <ele>890.380015</ele>
        <time>2021-11-22T01:07:47.713Z</time>
      </trkpt>
      <trkpt lat="47.680030" lon="8.006118">
        <ele>891.854317</ele>
        <time>2021-11-22T01:08:00.072Z</time>
      </trkpt>
      <trkpt lat="47.678968" lon="8.005160">
        <ele>896.321029</ele>
        <time>2021-11-22T01:08:36.112Z</time>
      </trkpt>
      <trkpt lat="47.678382" lon="8.004891">
        <ele>898.933312</ele>
        <time>2021-11-22T01:08:58.306Z</time>
      </trkpt>
      <trkpt lat="47.677950" lon="8.004730">
        <ele>901.005062</ele>
        <time>2021-11-22T01:09:14.314Z</time>
      </trkpt>
      <trkpt lat="47.677356" lon="8.004495">
        <ele>903.864406</ele>
        <time>2021-11-22T01:09:35.434Z</time>
      </trkpt>
      <trkpt lat="47.676834" lon="8.004390">
        <ele>905.921815</ele>
        <time>2021-11-22T01:09:52.704Z</time>
      </trkpt>
      <trkpt lat="47.675284" lon="8.004574">
        <ele>909.639109</ele>
        <time>2021-11-22T01:10:28.100Z</time>
      </trkpt>
      <trkpt lat="47.675149" lon="8.004551">
        <ele>909.978199</ele>
        <time>2021-11-22T01:10:30.452Z</time>
      </trkpt>
      <trkpt lat="47.674992" lon="8.004437">
        <ele>910.433719</ele>
        <time>2021-11-22T01:10:34.110Z</time>
      </trkpt>
      <trkpt lat="47.674127" lon="8.003573">
        <ele>913.150877</ele>
        <time>2021-11-22T01:10:58.472Z</time>
      </trkpt>
      <trkpt lat="47.673327" lon="8.002483">
        <ele>916.456428</ele>
        <time>2021-11-22T01:11:32.293Z</time>
      </trkpt>
      <trkpt lat="47.673161" lon="8.002175">
        <ele>917.370479</ele>
        <time>2021-11-22T01:11:39.667Z</time>
      </trkpt>
      <trkpt lat="47.673136" lon="8.002102">
        <ele>917.560233</ele>
        <time>2021-11-22T01:11:42.815Z</time>
      </trkpt>
      <trkpt lat="47.673101" lon="8.002002">
        <ele>917.821355</ele>
        <time>2021-11-22T01:11:44.980Z</time>
      </trkpt>
      <trkpt lat="47.673035" lon="8.001808">
        <ele>918.324951</ele>
        <time>2021-11-22T01:11:49.024Z</time>
      </trkpt>
      <trkpt lat="47.672841" lon="8.001235">
        <ele>919.810925</ele>
        <time>2021-11-22T01:12:00.786Z</time>
      </trkpt>
      <trkpt lat="47.672618" lon="8.000438">
        <ele>919.974182</ele>
        <time>2021-11-22T01:12:15.626Z</time>
      </trkpt>
      <trkpt lat="47.672451" lon="7.999830">
        <ele>919.016934</ele>
        <time>2021-11-22T01:12:23.210Z</time>
      </trkpt>
      <trkpt lat="47.672397" lon="7.999575">
        <ele>918.627244</ele>
        <time>2021-11-22T01:12:24.908Z</time>
      </trkpt>
      <trkpt lat="47.672112" lon="7.998110">
        <ele>915.660257</ele>
        <time>2021-11-22T01:12:34.619Z</time>
      </trkpt>
      <trkpt lat="47.672045" lon="7.997989">
        <ele>914.990845</ele>
        <time>2021-11-22T01:12:35.570Z</time>
      </trkpt>
      <trkpt lat="47.671926" lon="7.997854">
        <ele>914.040556</ele>
        <time>2021-11-22T01:12:36.989Z</time>
      </trkpt>
      <trkpt lat="47.671816" lon="7.997769">
        <ele>913.253666</ele>
        <time>2021-11-22T01:12:38.059Z</time>
      </trkpt>
      <trkpt lat="47.671538" lon="7.997730">
        <ele>911.481661</ele>
        <time>2021-11-22T01:12:40.590Z</time>
      </trkpt>
      <trkpt lat="47.671306" lon="7.997806">
        <ele>909.974025</ele>
        <time>2021-11-22T01:12:42.703Z</time>
      </trkpt>
      <trkpt lat="47.669847" lon="7.998499">
        <ele>901.132647</ele>
        <time>2021-11-22T01:12:56.678Z</time>
      </trkpt>
      <trkpt lat="47.669641" lon="7.998743">
        <ele>899.747547</ele>
        <time>2021-11-22T01:12:59.247Z</time>
      </trkpt>
      <trkpt lat="47.669544" lon="7.998925">
        <ele>898.925956</ele>
        <time>2021-11-22T01:13:00.726Z</time>
      </trkpt>
      <trkpt lat="47.669420" lon="7.999156">
        <ele>897.880274</ele>
        <time>2021-11-22T01:13:02.655Z</time>
      </trkpt>
      <trkpt lat="47.669290" lon="7.999340">
        <ele>896.936256</ele>
        <time>2021-11-22T01:13:04.350Z</time>
      </trkpt>
      <trkpt lat="47.669087" lon="7.999573">
        <ele>895.537062</ele>
        <time>2021-11-22T01:13:06.834Z</time>
      </trkpt>
      <trkpt lat="47.668624" lon="7.999953">
        <ele>892.334719</ele>
        <time>2021-11-22T01:13:11.904Z</time>
      </trkpt>
      <trkpt lat="47.668085" lon="8.000349">
        <ele>888.694401</ele>
        <time>2021-11-22T01:13:17.431Z</time>
      </trkpt>
      <trkpt lat="47.667435" lon="8.000710">
        <ele>884.413767</ele>
        <time>2021-11-22T01:13:23.614Z</time>
      </trkpt>
      <trkpt lat="47.667175" lon="8.000840">
        <ele>882.507732</ele>
        <time>2021-11-22T01:13:26.032Z</time>
      </trkpt>
      <trkpt lat="47.667061" lon="8.000864">
        <ele>881.707783</ele>
        <time>2021-11-22T01:13:27.029Z</time>
      </trkpt>
      <trkpt lat="47.666912" lon="8.000877">
        <ele>880.670802</ele>
        <time>2021-11-22T01:13:28.363Z</time>
      </trkpt>
      <trkpt lat="47.666792" lon="8.000879">
        <ele>879.837035</ele>
        <time>2021-11-22T01:13:29.459Z</time>
      </trkpt>
      <trkpt lat="47.666633" lon="8.000913">
        <ele>878.720968</ele>
        <time>2021-11-22T01:13:30.836Z</time>
      </trkpt>
      <trkpt lat="47.666395" lon="8.001047">
        <ele>876.952562</ele>
        <time>2021-11-22T01:13:33.194Z</time>
      </trkpt>
      <trkpt lat="47.666254" lon="8.001206">
        <ele>875.722486</ele>
        <time>2021-11-22T01:13:34.758Z</time>
      </trkpt>
      <trkpt lat="47.666161" lon="8.001366">
        <ele>874.733591</ele>
        <time>2021-11-22T01:13:36.111Z</time>
      </trkpt>
      <trkpt lat="47.666070" lon="8.001527">
        <ele>873.750139</ele>
        <time>2021-11-22T01:13:37.333Z</time>
      </trkpt>
      <trkpt lat="47.665936" lon="8.001647">
        <ele>872.662955</ele>
        <time>2021-11-22T01:13:38.866Z</time>
      </trkpt>
      <trkpt lat="47.665462" lon="8.001836">
        <ele>870.501787</ele>
        <time>2021-11-22T01:13:43.568Z</time>
      </trkpt>
      <trkpt lat="47.665403" lon="8.001876">
        <ele>870.222533</ele>
        <time>2021-11-22T01:13:44.128Z</time>
      </trkpt>
      <trkpt lat="47.665261" lon="8.001970">
        <ele>869.553139</ele>
        <time>2021-11-22T01:13:45.885Z</time>
      </trkpt>
      <trkpt lat="47.665117" lon="8.002107">
        <ele>868.816791</ele>
        <time>2021-11-22T01:13:47.627Z</time>
      </trkpt>
      <trkpt lat="47.664985" lon="8.002314">
        <ele>867.990187</ele>
        <time>2021-11-22T01:13:49.505Z</time>
      </trkpt>
      <trkpt lat="47.664797" lon="8.002579">
        <ele>866.874099</ele>
        <time>2021-11-22T01:13:52.102Z</time>
      </trkpt>
      <trkpt lat="47.664594" lon="8.002791">
        <ele>865.805541</ele>
        <time>2021-11-22T01:13:54.645Z</time>
      </trkpt>
      <trkpt lat="47.664409" lon="8.002922">
        <ele>864.923073</ele>
        <time>2021-11-22T01:13:56.587Z</time>
      </trkpt>
      <trkpt lat="47.664238" lon="8.003002">
        <ele>863.778667</ele>
        <time>2021-11-22T01:13:58.299Z</time>
      </trkpt>
      <trkpt lat="47.664077" lon="8.003034">
        <ele>862.673106</ele>
        <time>2021-11-22T01:13:59.807Z</time>
      </trkpt>
      <trkpt lat="47.663918" lon="8.003042">
        <ele>861.590310</ele>
        <time>2021-11-22T01:14:01.309Z</time>
      </trkpt>
      <trkpt lat="47.663654" lon="8.002978">
        <ele>859.769701</ele>
        <time>2021-11-22T01:14:03.762Z</time>
      </trkpt>
      <trkpt lat="47.663453" lon="8.002889">
        <ele>858.342136</ele>
        <time>2021-11-22T01:14:05.692Z</time>
      </trkpt>
      <trkpt lat="47.663064" lon="8.002715">
        <ele>855.577022</ele>
        <time>2021-11-22T01:14:09.343Z</time>
      </trkpt>
      <trkpt lat="47.662355" lon="8.002366">
        <ele>849.824449</ele>
        <time>2021-11-22T01:14:15.809Z</time>
      </trkpt>
      <trkpt lat="47.661952" lon="8.002284">
        <ele>846.156072</ele>
        <time>2021-11-22T01:14:19.303Z</time>
      </trkpt>
      <trkpt lat="47.661623" lon="8.002299">
        <ele>843.187626</ele>
        <time>2021-11-22T01:14:22.156Z</time>
      </trkpt>
      <trkpt lat="47.661294" lon="8.002339">
        <ele>840.210648</ele>
        <time>2021-11-22T01:14:25.056Z</time>
      </trkpt>
      <trkpt lat="47.661253" lon="8.002344">
        <ele>839.839649</ele>
        <time>2021-11-22T01:14:25.392Z</time>
      </trkpt>
      <trkpt lat="47.660510" lon="8.002253">
        <ele>834.076292</ele>
        <time>2021-11-22T01:14:31.990Z</time>
      </trkpt>
      <trkpt lat="47.660199" lon="8.002305">
        <ele>832.097051</ele>
        <time>2021-11-22T01:14:34.798Z</time>
      </trkpt>
      <trkpt lat="47.659359" lon="8.003076">
        <ele>825.851611</ele>
        <time>2021-11-22T01:14:43.822Z</time>
      </trkpt>
      <trkpt lat="47.658675" lon="8.003837">
        <ele>825.148396</ele>
        <time>2021-11-22T01:14:52.356Z</time>
      </trkpt>
      <trkpt lat="47.658610" lon="8.003919">
        <ele>825.171540</ele>
        <time>2021-11-22T01:14:53.329Z</time>
      </trkpt>
      <trkpt lat="47.658436" lon="8.004140">
        <ele>825.233670</ele>
        <time>2021-11-22T01:14:57.335Z</time>
      </trkpt>
      <trkpt lat="47.658316" lon="8.004309">
        <ele>825.278549</ele>
        <time>2021-11-22T01:15:01.334Z</time>
      </trkpt>
      <trkpt lat="47.658212" lon="8.004456">
        <ele>825.317511</ele>
        <time>2021-11-22T01:15:05.369Z</time>
      </trkpt>
      <trkpt lat="47.657938" lon="8.004946">
        <ele>825.433900</ele>
        <time>2021-11-22T01:15:17.941Z</time>
      </trkpt>
      <trkpt lat="47.657834" lon="8.004898">
        <ele>826.201432</ele>
        <time>2021-11-22T01:15:21.022Z</time>
      </trkpt>
      <trkpt lat="47.657834" lon="8.004898">
        <ele>826.201432</ele>
        <time>2021-11-22T01:15:21.106Z</time>
      </trkpt>
      <trkpt lat="47.657420" lon="8.004739">
        <ele>830.500011</ele>
        <time>2021-11-22T01:15:39.714Z</time>
      </trkpt>
      <trkpt lat="47.657324" lon="8.004684">
        <ele>831.534376</ele>
        <time>2021-11-22T01:15:46.321Z</time>
      </trkpt>
      <trkpt lat="47.657247" lon="8.004590">
        <ele>832.536460</ele>
        <time>2021-11-22T01:15:50.739Z</time>
      </trkpt>
      <trkpt lat="47.657132" lon="8.004275">
        <ele>834.962390</ele>
        <time>2021-11-22T01:16:06.656Z</time>
      </trkpt>
      <trkpt lat="47.656969" lon="8.003741">
        <ele>838.931933</ele>
        <time>2021-11-22T01:16:30.806Z</time>
      </trkpt>
      <trkpt lat="47.656953" lon="8.003197">
        <ele>842.618761</ele>
        <time>2021-11-22T01:16:55.668Z</time>
      </trkpt>
      <trkpt lat="47.656935" lon="8.002898">
        <ele>844.806964</ele>
        <time>2021-11-22T01:17:08.122Z</time>
      </trkpt>
      <trkpt lat="47.656897" lon="8.002752">
        <ele>846.012971</ele>
        <time>2021-11-22T01:17:17.098Z</time>
      </trkpt>
      <trkpt lat="47.656674" lon="8.001968">
        <ele>852.570308</ele>
        <time>2021-11-22T01:17:52.144Z</time>
      </trkpt>
      <trkpt lat="47.656351" lon="8.000403">
        <ele>864.756600</ele>
        <time>2021-11-22T01:18:58.795Z</time>
      </trkpt>
      <trkpt lat="47.656187" lon="8.000024">
        <ele>866.864613</ele>
        <time>2021-11-22T01:19:13.066Z</time>
      </trkpt>
      <trkpt lat="47.656041" lon="7.999637">
        <ele>868.940331</ele>
        <time>2021-11-22T01:19:26.283Z</time>
      </trkpt>
      <trkpt lat="47.655852" lon="7.999176">
        <ele>871.465822</ele>
        <time>2021-11-22T01:19:41.263Z</time>
      </trkpt>
      <trkpt lat="47.655398" lon="7.998167">
        <ele>876.847690</ele>
        <time>2021-11-22T01:20:11.239Z</time>
      </trkpt>
      <trkpt lat="47.655114" lon="7.997327">
        <ele>878.875186</ele>
        <time>2021-11-22T01:20:30.579Z</time>
      </trkpt>
      <trkpt lat="47.654874" lon="7.996741">
        <ele>880.354636</ele>
        <time>2021-11-22T01:20:44.178Z</time>
      </trkpt>
      <trkpt lat="47.654743" lon="7.996535">
        <ele>880.965771</ele>
        <time>2021-11-22T01:20:49.351Z</time>
      </trkpt>
      <trkpt lat="47.654647" lon="7.996410">
        <ele>881.374714</ele>
        <time>2021-11-22T01:20:52.282Z</time>
      </trkpt>
      <trkpt lat="47.654449" lon="7.996225">
        <ele>882.123951</ele>
        <time>2021-11-22T01:20:56.765Z</time>
      </trkpt>
      <trkpt lat="47.654183" lon="7.996088">
        <ele>882.031791</ele>
        <time>2021-11-22T01:21:02.499Z</time>
      </trkpt>
      <trkpt lat="47.654100" lon="7.996069">
        <ele>881.902545</ele>
        <time>2021-11-22T01:21:03.499Z</time>
      </trkpt>
      <trkpt lat="47.653925" lon="7.996027">
        <ele>881.629725</ele>
        <time>2021-11-22T01:21:06.290Z</time>
      </trkpt>
      <trkpt lat="47.653643" lon="7.996009">
        <ele>881.195329</ele>
        <time>2021-11-22T01:21:10.127Z</time>
      </trkpt>
      <trkpt lat="47.653510" lon="7.996035">
        <ele>880.988877</ele>
        <time>2021-11-22T01:21:11.927Z</time>
      </trkpt>
      <trkpt lat="47.653330" lon="7.996073">
        <ele>880.709071</ele>
        <time>2021-11-22T01:21:13.856Z</time>
      </trkpt>
      <trkpt lat="47.653098" lon="7.996155">
        <ele>880.342045</ele>
        <time>2021-11-22T01:21:16.673Z</time>
      </trkpt>
      <trkpt lat="47.653036" lon="7.996181">
        <ele>880.242894</ele>
        <time>2021-11-22T01:21:17.264Z</time>
      </trkpt>
      <trkpt lat="47.652710" lon="7.996359">
        <ele>879.708324</ele>
        <time>2021-11-22T01:21:20.766Z</time>
      </trkpt>
      <trkpt lat="47.652354" lon="7.996461">
        <ele>877.781361</ele>
        <time>2021-11-22T01:21:24.167Z</time>
      </trkpt>
      <trkpt lat="47.652053" lon="7.996547">
        <ele>875.828254</ele>
        <time>2021-11-22T01:21:27.013Z</time>
      </trkpt>
      <trkpt lat="47.651969" lon="7.996551">
        <ele>875.292748</ele>
        <time>2021-11-22T01:21:27.745Z</time>
      </trkpt>
      <trkpt lat="47.651930" lon="7.996553">
        <ele>875.044100</ele>
        <time>2021-11-22T01:21:28.097Z</time>
      </trkpt>
      <trkpt lat="47.651743" lon="7.996494">
        <ele>873.825961</ele>
        <time>2021-11-22T01:21:29.873Z</time>
      </trkpt>
      <trkpt lat="47.651491" lon="7.996362">
        <ele>872.123242</ele>
        <time>2021-11-22T01:21:32.244Z</time>
      </trkpt>
      <trkpt lat="47.651192" lon="7.996204">
        <ele>870.100970</ele>
        <time>2021-11-22T01:21:35.088Z</time>
      </trkpt>
      <trkpt lat="47.651064" lon="7.996154">
        <ele>869.257616</ele>
        <time>2021-11-22T01:21:36.269Z</time>
      </trkpt>
      <trkpt lat="47.650943" lon="7.996107">
        <ele>868.460673</ele>
        <time>2021-11-22T01:21:37.372Z</time>
      </trkpt>
      <trkpt lat="47.650884" lon="7.996084">
        <ele>868.062338</ele>
        <time>2021-11-22T01:21:37.915Z</time>
      </trkpt>
      <trkpt lat="47.650180" lon="7.995826">
        <ele>862.611530</ele>
        <time>2021-11-22T01:21:44.379Z</time>
      </trkpt>
      <trkpt lat="47.650100" lon="7.995767">
        <ele>861.940048</ele>
        <time>2021-11-22T01:21:45.161Z</time>
      </trkpt>
      <trkpt lat="47.649880" lon="7.995727">
        <ele>860.273963</ele>
        <time>2021-11-22T01:21:47.128Z</time>
      </trkpt>
      <trkpt lat="47.649633" lon="7.995910">
        <ele>858.198866</ele>
        <time>2021-11-22T01:21:49.580Z</time>
      </trkpt>
      <trkpt lat="47.649501" lon="7.996119">
        <ele>856.748128</ele>
        <time>2021-11-22T01:21:51.304Z</time>
      </trkpt>
      <trkpt lat="47.649446" lon="7.996217">
        <ele>856.102217</ele>
        <time>2021-11-22T01:21:52.065Z</time>
      </trkpt>
      <trkpt lat="47.649267" lon="7.996359">
        <ele>854.578340</ele>
        <time>2021-11-22T01:21:53.898Z</time>
      </trkpt>
      <trkpt lat="47.649036" lon="7.996383">
        <ele>852.943126</ele>
        <time>2021-11-22T01:21:55.964Z</time>
      </trkpt>
      <trkpt lat="47.649000" lon="7.996557">
        <ele>852.077220</ele>
        <time>2021-11-22T01:21:57.074Z</time>
      </trkpt>
      <trkpt lat="47.648943" lon="7.996727">
        <ele>851.173869</ele>
        <time>2021-11-22T01:21:58.209Z</time>
      </trkpt>
      <trkpt lat="47.648740" lon="7.996562">
        <ele>849.539535</ele>
        <time>2021-11-22T01:22:01.086Z</time>
      </trkpt>
      <trkpt lat="47.648000" lon="7.996491">
        <ele>844.303065</ele>
        <time>2021-11-22T01:22:10.538Z</time>
      </trkpt>
      <trkpt lat="47.647871" lon="7.996368">
        <ele>843.220378</ele>
        <time>2021-11-22T01:22:12.558Z</time>
      </trkpt>
      <trkpt lat="47.647514" lon="7.996025">
        <ele>841.211466</ele>
        <time>2021-11-22T01:22:18.205Z</time>
      </trkpt>
      <trkpt lat="47.647380" lon="7.995955">
        <ele>840.799515</ele>
        <time>2021-11-22T01:22:19.998Z</time>
      </trkpt>
      <trkpt lat="47.647323" lon="7.995930">
        <ele>840.627155</ele>
        <time>2021-11-22T01:22:20.753Z</time>
      </trkpt>
      <trkpt lat="47.647101" lon="7.995779">
        <ele>839.919001</ele>
        <time>2021-11-22T01:22:24.227Z</time>
      </trkpt>
      <trkpt lat="47.647045" lon="7.995675">
        <ele>839.658896</ele>
        <time>2021-11-22T01:22:25.409Z</time>
      </trkpt>
      <trkpt lat="47.647053" lon="7.995177">
        <ele>838.685695</ele>
        <time>2021-11-22T01:22:30.222Z</time>
      </trkpt>
      <trkpt lat="47.647038" lon="7.995032">
        <ele>838.399093</ele>
        <time>2021-11-22T01:22:32.216Z</time>
      </trkpt>
      <trkpt lat="47.646980" lon="7.994940">
        <ele>838.152933</ele>
        <time>2021-11-22T01:22:34.370Z</time>
      </trkpt>
      <trkpt lat="47.646888" lon="7.994902">
        <ele>837.876003</ele>
        <time>2021-11-22T01:22:35.751Z</time>
      </trkpt>
      <trkpt lat="47.646605" lon="7.994992">
        <ele>837.036702</ele>
        <time>2021-11-22T01:22:41.807Z</time>
      </trkpt>
      <trkpt lat="47.646196" lon="7.995247">
        <ele>837.973956</ele>
        <time>2021-11-22T01:22:51.563Z</time>
      </trkpt>
      <trkpt lat="47.645787" lon="7.995224">
        <ele>839.600888</ele>
        <time>2021-11-22T01:23:06.340Z</time>
      </trkpt>
      <trkpt lat="47.645698" lon="7.995252">
        <ele>839.962520</ele>
        <time>2021-11-22T01:23:10.634Z</time>
      </trkpt>
      <trkpt lat="47.645653" lon="7.995348">
        <ele>840.275713</ele>
        <time>2021-11-22T01:23:14.180Z</time>
      </trkpt>
      <trkpt lat="47.645591" lon="7.995851">
        <ele>841.645105</ele>
        <time>2021-11-22T01:23:28.520Z</time>
      </trkpt>
      <trkpt lat="47.645309" lon="7.996241">
        <ele>843.177206</ele>
        <time>2021-11-22T01:23:44.645Z</time>
      </trkpt>
      <trkpt lat="47.645055" lon="7.996521">
        <ele>844.349734</ele>
        <time>2021-11-22T01:23:57.940Z</time>
      </trkpt>
      <trkpt lat="47.644740" lon="7.996888">
        <ele>845.714606</ele>
        <time>2021-11-22T01:24:12.539Z</time>
      </trkpt>
      <trkpt lat="47.644596" lon="7.997035">
        <ele>846.310280</ele>
        <time>2021-11-22T01:24:17.675Z</time>
      </trkpt>
      <trkpt lat="47.644438" lon="7.997158">
        <ele>846.918372</ele>
        <time>2021-11-22T01:24:22.660Z</time>
      </trkpt>
      <trkpt lat="47.643844" lon="7.997483">
        <ele>849.076098</ele>
        <time>2021-11-22T01:24:39.707Z</time>
      </trkpt>
      <trkpt lat="47.642552" lon="7.998017">
        <ele>851.561836</ele>
        <time>2021-11-22T01:25:03.919Z</time>
      </trkpt>
      <trkpt lat="47.641770" lon="7.998048">
        <ele>852.827875</ele>
        <time>2021-11-22T01:25:21.122Z</time>
      </trkpt>
      <trkpt lat="47.641036" lon="7.997873">
        <ele>855.235142</ele>
        <time>2021-11-22T01:25:40.999Z</time>
      </trkpt>
      <trkpt lat="47.640815" lon="7.997823">
        <ele>855.959039</ele>
        <time>2021-11-22T01:25:47.336Z</time>
      </trkpt>
      <trkpt lat="47.640625" lon="7.997779">
        <ele>856.581730</ele>
        <time>2021-11-22T01:25:53.527Z</time>
      </trkpt>
      <trkpt lat="47.640155" lon="7.997748">
        <ele>858.105159</ele>
        <time>2021-11-22T01:26:08.230Z</time>
      </trkpt>
      <trkpt lat="47.639647" lon="7.997807">
        <ele>858.963158</ele>
        <time>2021-11-22T01:26:23.226Z</time>
      </trkpt>
      <trkpt lat="47.638986" lon="7.997647">
        <ele>859.817896</ele>
        <time>2021-11-22T01:26:40.120Z</time>
      </trkpt>
      <trkpt lat="47.638786" lon="7.997622">
        <ele>860.074047</ele>
        <time>2021-11-22T01:26:44.111Z</time>
      </trkpt>
      <trkpt lat="47.638668" lon="7.997624">
        <ele>860.224652</ele>
        <time>2021-11-22T01:26:45.453Z</time>
      </trkpt>
      <trkpt lat="47.637663" lon="7.997243">
        <ele>858.283907</ele>
        <time>2021-11-22T01:26:56.582Z</time>
      </trkpt>
      <trkpt lat="47.637224" lon="7.997041">
        <ele>856.491740</ele>
        <time>2021-11-22T01:27:01.004Z</time>
      </trkpt>
      <trkpt lat="47.637201" lon="7.997016">
        <ele>856.380575</ele>
        <time>2021-11-22T01:27:01.272Z</time>
      </trkpt>
      <trkpt lat="47.636864" lon="7.996812">
        <ele>854.961413</ele>
        <time>2021-11-22T01:27:04.703Z</time>
      </trkpt>
      <trkpt lat="47.636310" lon="7.996180">
        <ele>851.447375</ele>
        <time>2021-11-22T01:27:11.216Z</time>
      </trkpt>
      <trkpt lat="47.636073" lon="7.995739">
        <ele>849.181839</ele>
        <time>2021-11-22T01:27:14.734Z</time>
      </trkpt>
      <trkpt lat="47.635961" lon="7.995376">
        <ele>847.578336</ele>
        <time>2021-11-22T01:27:17.226Z</time>
      </trkpt>
      <trkpt lat="47.635644" lon="7.993534">
        <ele>838.959971</ele>
        <time>2021-11-22T01:27:28.838Z</time>
      </trkpt>
      <trkpt lat="47.635496" lon="7.992462">
        <ele>833.156545</ele>
        <time>2021-11-22T01:27:35.349Z</time>
      </trkpt>
      <trkpt lat="47.635416" lon="7.991898">
        <ele>830.099827</ele>
        <time>2021-11-22T01:27:38.720Z</time>
      </trkpt>
      <trkpt lat="47.635223" lon="7.991120">
        <ele>825.703589</ele>
        <time>2021-11-22T01:27:43.605Z</time>
      </trkpt>
      <trkpt lat="47.635172" lon="7.990723">
        <ele>823.560590</ele>
        <time>2021-11-22T01:27:45.983Z</time>
      </trkpt>
      <trkpt lat="47.635190" lon="7.990009">
        <ele>819.771964</ele>
        <time>2021-11-22T01:27:50.243Z</time>
      </trkpt>
      <trkpt lat="47.635202" lon="7.989852">
        <ele>818.934135</ele>
        <time>2021-11-22T01:27:51.161Z</time>
      </trkpt>
      <trkpt lat="47.635201" lon="7.989572">
        <ele>817.449418</ele>
        <time>2021-11-22T01:27:52.924Z</time>
      </trkpt>
      <trkpt lat="47.635279" lon="7.988526">
        <ele>812.119087</ele>
        <time>2021-11-22T01:27:59.347Z</time>
      </trkpt>
      <trkpt lat="47.635335" lon="7.988011">
        <ele>809.597214</ele>
        <time>2021-11-22T01:28:02.486Z</time>
      </trkpt>
      <trkpt lat="47.635440" lon="7.987355">
        <ele>806.337678</ele>
        <time>2021-11-22T01:28:08.282Z</time>
      </trkpt>
      <trkpt lat="47.635457" lon="7.987129">
        <ele>805.238342</ele>
        <time>2021-11-22T01:28:10.193Z</time>
      </trkpt>
      <trkpt lat="47.635422" lon="7.986299">
        <ele>801.165005</ele>
        <time>2021-11-22T01:28:17.533Z</time>
      </trkpt>
      <trkpt lat="47.635370" lon="7.985930">
        <ele>799.175346</ele>
        <time>2021-11-22T01:28:20.670Z</time>
      </trkpt>
      <trkpt lat="47.635166" lon="7.986036">
        <ele>797.482418</ele>
        <time>2021-11-22T01:28:22.535Z</time>
      </trkpt>
      <trkpt lat="47.634870" lon="7.986311">
        <ele>794.747169</ele>
        <time>2021-11-22T01:28:25.586Z</time>
      </trkpt>
      <trkpt lat="47.634415" lon="7.986884">
        <ele>790.073150</ele>
        <time>2021-11-22T01:28:30.866Z</time>
      </trkpt>
      <trkpt lat="47.634339" lon="7.986935">
        <ele>789.419854</ele>
        <time>2021-11-22T01:28:31.581Z</time>
      </trkpt>
      <trkpt lat="47.634251" lon="7.986971">
        <ele>788.704891</ele>
        <time>2021-11-22T01:28:32.389Z</time>
      </trkpt>
      <trkpt lat="47.634102" lon="7.987026">
        <ele>787.617418</ele>
        <time>2021-11-22T01:28:33.791Z</time>
      </trkpt>
      <trkpt lat="47.633835" lon="7.987140">
        <ele>786.657794</ele>
        <time>2021-11-22T01:28:36.328Z</time>
      </trkpt>
      <trkpt lat="47.633562" lon="7.987139">
        <ele>785.714856</ele>
        <time>2021-11-22T01:28:38.903Z</time>
      </trkpt>
      <trkpt lat="47.633095" lon="7.986989">
        <ele>784.064499</ele>
        <time>2021-11-22T01:28:43.667Z</time>
      </trkpt>
      <trkpt lat="47.633007" lon="7.986924">
        <ele>783.724978</ele>
        <time>2021-11-22T01:28:44.593Z</time>
      </trkpt>
      <trkpt lat="47.633442" lon="7.986219">
        <ele>781.500106</ele>
        <time>2021-11-22T01:28:51.986Z</time>
      </trkpt>
      <trkpt lat="47.633741" lon="7.985722">
        <ele>782.050789</ele>
        <time>2021-11-22T01:29:01.311Z</time>
      </trkpt>
      <trkpt lat="47.634382" lon="7.984814">
        <ele>783.149359</ele>
        <time>2021-11-22T01:29:21.838Z</time>
      </trkpt>
      <trkpt lat="47.634468" lon="7.984733">
        <ele>783.275634</ele>
        <time>2021-11-22T01:29:25.191Z</time>
      </trkpt>
      <trkpt lat="47.634506" lon="7.984696">
        <ele>783.331978</ele>
        <time>2021-11-22T01:29:25.704Z</time>
      </trkpt>
      <trkpt lat="47.634638" lon="7.984601">
        <ele>783.513849</ele>
        <time>2021-11-22T01:29:28.086Z</time>
      </trkpt>
      <trkpt lat="47.634817" lon="7.984495">
        <ele>783.715623</ele>
        <time>2021-11-22T01:29:32.681Z</time>
      </trkpt>
      <trkpt lat="47.635138" lon="7.984322">
        <ele>783.561039</ele>
        <time>2021-11-22T01:29:38.729Z</time>
      </trkpt>
      <trkpt lat="47.635100" lon="7.984285">
        <ele>783.540466</ele>
        <time>2021-11-22T01:29:43.084Z</time>
      </trkpt>
      <trkpt lat="47.634615" lon="7.984545">
        <ele>783.307048</ele>
        <time>2021-11-22T01:30:39.712Z</time>
      </trkpt>
      <trkpt lat="47.634230" lon="7.984918">
        <ele>783.098928</ele>
        <time>2021-11-22T01:31:29.370Z</time>
      </trkpt>
      <trkpt lat="47.633216" lon="7.986518">
        <ele>782.707493</ele>
        <time>2021-11-22T01:34:05.684Z</time>
      </trkpt>
      <trkpt lat="47.634230" lon="7.984918">
        <ele>783.902717</ele>
        <time>2021-11-22T01:37:00.500Z</time>
      </trkpt>
      <trkpt lat="47.634615" lon="7.984545">
        <ele>784.724377</ele>
        <time>2021-11-22T01:37:55.935Z</time>
      </trkpt>
      <trkpt lat="47.635100" lon="7.984285">
        <ele>785.645917</ele>
        <time>2021-11-22T01:38:56.826Z</time>
      </trkpt>
      <trkpt lat="47.635138" lon="7.984322">
        <ele>785.727138</ele>
        <time>2021-11-22T01:39:03.167Z</time>
      </trkpt>
      <trkpt lat="47.635311" lon="7.984184">
        <ele>785.864833</ele>
        <time>2021-11-22T01:39:06.350Z</time>
      </trkpt>
      <trkpt lat="47.635363" lon="7.984125">
        <ele>785.897676</ele>
        <time>2021-11-22T01:39:07.593Z</time>
      </trkpt>
      <trkpt lat="47.635550" lon="7.983913">
        <ele>786.015752</ele>
        <time>2021-11-22T01:39:12.117Z</time>
      </trkpt>
      <trkpt lat="47.636167" lon="7.983425">
        <ele>786.366562</ele>
        <time>2021-11-22T01:39:23.619Z</time>
      </trkpt>
      <trkpt lat="47.636362" lon="7.983140">
        <ele>786.503888</ele>
        <time>2021-11-22T01:39:27.758Z</time>
      </trkpt>
      <trkpt lat="47.636470" lon="7.982623">
        <ele>786.691172</ele>
        <time>2021-11-22T01:39:31.964Z</time>
      </trkpt>
      <trkpt lat="47.636685" lon="7.980585">
        <ele>788.438495</ele>
        <time>2021-11-22T01:39:57.392Z</time>
      </trkpt>
      <trkpt lat="47.636717" lon="7.980417">
        <ele>788.586376</ele>
        <time>2021-11-22T01:40:00.221Z</time>
      </trkpt>
      <trkpt lat="47.636749" lon="7.980255">
        <ele>788.729373</ele>
        <time>2021-11-22T01:40:03.649Z</time>
      </trkpt>
      <trkpt lat="47.636898" lon="7.979438">
        <ele>790.574320</ele>
        <time>2021-11-22T01:40:18.973Z</time>
      </trkpt>
      <trkpt lat="47.636860" lon="7.978383">
        <ele>793.483189</ele>
        <time>2021-11-22T01:40:41.731Z</time>
      </trkpt>
      <trkpt lat="47.637178" lon="7.977129">
        <ele>797.238108</ele>
        <time>2021-11-22T01:41:12.978Z</time>
      </trkpt>
      <trkpt lat="47.637166" lon="7.976669">
        <ele>798.600709</ele>
        <time>2021-11-22T01:41:23.049Z</time>
      </trkpt>
      <trkpt lat="47.637104" lon="7.976387">
        <ele>799.478726</ele>
        <time>2021-11-22T01:41:29.276Z</time>
      </trkpt>
      <trkpt lat="47.636964" lon="7.975901">
        <ele>801.043212</ele>
        <time>2021-11-22T01:41:40.386Z</time>
      </trkpt>
      <trkpt lat="47.636945" lon="7.975599">
        <ele>801.941011</ele>
        <time>2021-11-22T01:41:46.774Z</time>
      </trkpt>
      <trkpt lat="47.637015" lon="7.975296">
        <ele>802.889129</ele>
        <time>2021-11-22T01:41:53.506Z</time>
      </trkpt>
      <trkpt lat="47.637233" lon="7.974898">
        <ele>804.403834</ele>
        <time>2021-11-22T01:42:04.769Z</time>
      </trkpt>
      <trkpt lat="47.638035" lon="7.974142">
        <ele>808.508883</ele>
        <time>2021-11-22T01:42:36.932Z</time>
      </trkpt>
      <trkpt lat="47.638252" lon="7.973962">
        <ele>809.582968</ele>
        <time>2021-11-22T01:42:44.376Z</time>
      </trkpt>
      <trkpt lat="47.638636" lon="7.973699">
        <ele>811.410241</ele>
        <time>2021-11-22T01:42:57.067Z</time>
      </trkpt>
      <trkpt lat="47.638659" lon="7.973682">
        <ele>811.521257</ele>
        <time>2021-11-22T01:42:58.205Z</time>
      </trkpt>
      <trkpt lat="47.638981" lon="7.973418">
        <ele>812.980828</ele>
        <time>2021-11-22T01:43:09.424Z</time>
      </trkpt>
      <trkpt lat="47.639090" lon="7.973306">
        <ele>813.488614</ele>
        <time>2021-11-22T01:43:13.450Z</time>
      </trkpt>
      <trkpt lat="47.639276" lon="7.972938">
        <ele>814.675843</ele>
        <time>2021-11-22T01:43:23.086Z</time>
      </trkpt>
      <trkpt lat="47.639406" lon="7.972397">
        <ele>816.158168</ele>
        <time>2021-11-22T01:43:35.167Z</time>
      </trkpt>
      <trkpt lat="47.639559" lon="7.972018">
        <ele>817.298393</ele>
        <time>2021-11-22T01:43:43.981Z</time>
      </trkpt>
      <trkpt lat="47.640091" lon="7.971291">
        <ele>820.326880</ele>
        <time>2021-11-22T01:44:03.822Z</time>
      </trkpt>
      <trkpt lat="47.640810" lon="7.969935">
        <ele>825.729885</ele>
        <time>2021-11-22T01:44:43.108Z</time>
      </trkpt>
      <trkpt lat="47.640891" lon="7.969731">
        <ele>826.471310</ele>
        <time>2021-11-22T01:44:49.601Z</time>
      </trkpt>
      <trkpt lat="47.640944" lon="7.969376">
        <ele>827.741970</ele>
        <time>2021-11-22T01:44:57.755Z</time>
      </trkpt>
      <trkpt lat="47.640935" lon="7.969224">
        <ele>828.379456</ele>
        <time>2021-11-22T01:45:02.599Z</time>
      </trkpt>
      <trkpt lat="47.640883" lon="7.969015">
        <ele>829.310265</ele>
        <time>2021-11-22T01:45:07.883Z</time>
      </trkpt>
      <trkpt lat="47.640375" lon="7.968035">
        <ele>834.476111</ele>
        <time>2021-11-22T01:45:40.637Z</time>
      </trkpt>
      <trkpt lat="47.640078" lon="7.967066">
        <ele>838.881097</ele>
        <time>2021-11-22T01:46:11.014Z</time>
      </trkpt>
      <trkpt lat="47.639789" lon="7.965749">
        <ele>844.224483</ele>
        <time>2021-11-22T01:46:49.593Z</time>
      </trkpt>
      <trkpt lat="47.639729" lon="7.964910">
        <ele>847.479370</ele>
        <time>2021-11-22T01:47:10.579Z</time>
      </trkpt>
      <trkpt lat="47.639730" lon="7.964417">
        <ele>848.741480</ele>
        <time>2021-11-22T01:47:20.701Z</time>
      </trkpt>
      <trkpt lat="47.639767" lon="7.964127">
        <ele>848.862103</ele>
        <time>2021-11-22T01:47:25.822Z</time>
      </trkpt>
      <trkpt lat="47.639823" lon="7.963883">
        <ele>848.967447</ele>
        <time>2021-11-22T01:47:30.269Z</time>
      </trkpt>
      <trkpt lat="47.639917" lon="7.963604">
        <ele>849.094929</ele>
        <time>2021-11-22T01:47:34.900Z</time>
      </trkpt>
      <trkpt lat="47.640083" lon="7.963229">
        <ele>849.278299</ele>
        <time>2021-11-22T01:47:40.173Z</time>
      </trkpt>
      <trkpt lat="47.640149" lon="7.963092">
        <ele>849.347127</ele>
        <time>2021-11-22T01:47:42.212Z</time>
      </trkpt>
      <trkpt lat="47.640333" lon="7.962705">
        <ele>849.540696</ele>
        <time>2021-11-22T01:47:46.165Z</time>
      </trkpt>
      <trkpt lat="47.640479" lon="7.962399">
        <ele>849.693930</ele>
        <time>2021-11-22T01:47:48.968Z</time>
      </trkpt>
      <trkpt lat="47.640559" lon="7.962232">
        <ele>849.621244</ele>
        <time>2021-11-22T01:47:50.355Z</time>
      </trkpt>
      <trkpt lat="47.640752" lon="7.961642">
        <ele>847.897535</ele>
        <time>2021-11-22T01:47:54.770Z</time>
      </trkpt>
      <trkpt lat="47.640767" lon="7.961523">
        <ele>847.579357</ele>
        <time>2021-11-22T01:47:55.550Z</time>
      </trkpt>
      <trkpt lat="47.640787" lon="7.961359">
        <ele>847.141335</ele>
        <time>2021-11-22T01:47:56.571Z</time>
      </trkpt>
      <trkpt lat="47.640808" lon="7.961104">
        <ele>846.466165</ele>
        <time>2021-11-22T01:47:58.340Z</time>
      </trkpt>
      <trkpt lat="47.640798" lon="7.960852">
        <ele>845.802720</ele>
        <time>2021-11-22T01:47:59.901Z</time>
      </trkpt>
      <trkpt lat="47.640720" lon="7.960375">
        <ele>844.512693</ele>
        <time>2021-11-22T01:48:03.159Z</time>
      </trkpt>
      <trkpt lat="47.640711" lon="7.960295">
        <ele>844.299529</ele>
        <time>2021-11-22T01:48:03.634Z</time>
      </trkpt>
      <trkpt lat="47.640685" lon="7.960045">
        <ele>843.634705</ele>
        <time>2021-11-22T01:48:05.501Z</time>
      </trkpt>
      <trkpt lat="47.640685" lon="7.959821">
        <ele>843.045995</ele>
        <time>2021-11-22T01:48:06.911Z</time>
      </trkpt>
      <trkpt lat="47.640685" lon="7.959768">
        <ele>842.906702</ele>
        <time>2021-11-22T01:48:07.223Z</time>
      </trkpt>
      <trkpt lat="47.640717" lon="7.959400">
        <ele>841.978456</ele>
        <time>2021-11-22T01:48:09.818Z</time>
      </trkpt>
      <trkpt lat="47.640762" lon="7.959173">
        <ele>841.392649</ele>
        <time>2021-11-22T01:48:11.306Z</time>
      </trkpt>
      <trkpt lat="47.640856" lon="7.958970">
        <ele>840.782837</ele>
        <time>2021-11-22T01:48:13.077Z</time>
      </trkpt>
      <trkpt lat="47.640871" lon="7.958934">
        <ele>840.678046</ele>
        <time>2021-11-22T01:48:13.339Z</time>
      </trkpt>
      <trkpt lat="47.640964" lon="7.958802">
        <ele>840.205220</ele>
        <time>2021-11-22T01:48:14.489Z</time>
      </trkpt>
      <trkpt lat="47.641188" lon="7.958634">
        <ele>839.283039</ele>
        <time>2021-11-22T01:48:17.110Z</time>
      </trkpt>
      <trkpt lat="47.641294" lon="7.958578">
        <ele>838.869616</ele>
        <time>2021-11-22T01:48:18.128Z</time>
      </trkpt>
      <trkpt lat="47.641418" lon="7.958516">
        <ele>838.388833</ele>
        <time>2021-11-22T01:48:19.658Z</time>
      </trkpt>
      <trkpt lat="47.641512" lon="7.958460">
        <ele>838.016655</ele>
        <time>2021-11-22T01:48:20.676Z</time>
      </trkpt>
      <trkpt lat="47.641574" lon="7.958423">
        <ele>837.771118</ele>
        <time>2021-11-22T01:48:21.301Z</time>
      </trkpt>
      <trkpt lat="47.641842" lon="7.958150">
        <ele>836.576763</ele>
        <time>2021-11-22T01:48:24.630Z</time>
      </trkpt>
      <trkpt lat="47.641947" lon="7.957833">
        <ele>835.933485</ele>
        <time>2021-11-22T01:48:27.129Z</time>
      </trkpt>
      <trkpt lat="47.641955" lon="7.957683">
        <ele>835.761476</ele>
        <time>2021-11-22T01:48:28.138Z</time>
      </trkpt>
      <trkpt lat="47.641947" lon="7.957536">
        <ele>835.592884</ele>
        <time>2021-11-22T01:48:29.076Z</time>
      </trkpt>
      <trkpt lat="47.641798" lon="7.957096">
        <ele>835.029938</ele>
        <time>2021-11-22T01:48:32.619Z</time>
      </trkpt>
      <trkpt lat="47.641550" lon="7.956851">
        <ele>834.524474</ele>
        <time>2021-11-22T01:48:35.932Z</time>
      </trkpt>
      <trkpt lat="47.641084" lon="7.956545">
        <ele>833.659896</ele>
        <time>2021-11-22T01:48:41.588Z</time>
      </trkpt>
      <trkpt lat="47.640991" lon="7.956380">
        <ele>833.413975</ele>
        <time>2021-11-22T01:48:43.688Z</time>
      </trkpt>
      <trkpt lat="47.640998" lon="7.956247">
        <ele>833.261469</ele>
        <time>2021-11-22T01:48:44.756Z</time>
      </trkpt>
      <trkpt lat="47.641056" lon="7.956097">
        <ele>833.099135</ele>
        <time>2021-11-22T01:48:46.094Z</time>
      </trkpt>
      <trkpt lat="47.640501" lon="7.955695">
        <ele>834.315936</ele>
        <time>2021-11-22T01:48:59.690Z</time>
      </trkpt>
      <trkpt lat="47.640167" lon="7.955381">
        <ele>835.094937</ele>
        <time>2021-11-22T01:49:08.871Z</time>
      </trkpt>
      <trkpt lat="47.639795" lon="7.954985">
        <ele>835.996938</ele>
        <time>2021-11-22T01:49:20.144Z</time>
      </trkpt>
      <trkpt lat="47.639696" lon="7.954882">
        <ele>836.235154</ele>
        <time>2021-11-22T01:49:23.744Z</time>
      </trkpt>
      <trkpt lat="47.639497" lon="7.954714">
        <ele>836.735611</ele>
        <time>2021-11-22T01:49:30.004Z</time>
      </trkpt>
      <trkpt lat="47.639207" lon="7.954547">
        <ele>837.834802</ele>
        <time>2021-11-22T01:49:38.936Z</time>
      </trkpt>
      <trkpt lat="47.638760" lon="7.954525">
        <ele>839.415206</ele>
        <time>2021-11-22T01:49:51.910Z</time>
      </trkpt>
      <trkpt lat="47.637932" lon="7.954791">
        <ele>842.408820</ele>
        <time>2021-11-22T01:50:16.990Z</time>
      </trkpt>
      <trkpt lat="47.637714" lon="7.954725">
        <ele>843.277293</ele>
        <time>2021-11-22T01:50:23.271Z</time>
      </trkpt>
      <trkpt lat="47.637492" lon="7.954483">
        <ele>844.622683</ele>
        <time>2021-11-22T01:50:31.129Z</time>
      </trkpt>
      <trkpt lat="47.637400" lon="7.954079">
        <ele>846.026182</ele>
        <time>2021-11-22T01:50:39.880Z</time>
      </trkpt>
      <trkpt lat="47.637300" lon="7.951504">
        <ele>854.420474</ele>
        <time>2021-11-22T01:51:44.273Z</time>
      </trkpt>
      <trkpt lat="47.637306" lon="7.951326">
        <ele>854.986882</ele>
        <time>2021-11-22T01:51:49.555Z</time>
      </trkpt>
      <trkpt lat="47.637337" lon="7.951149">
        <ele>855.568096</ele>
        <time>2021-11-22T01:51:53.694Z</time>
      </trkpt>
      <trkpt lat="47.637383" lon="7.950993">
        <ele>856.109273</ele>
        <time>2021-11-22T01:51:56.977Z</time>
      </trkpt>
      <trkpt lat="47.637451" lon="7.950859">
        <ele>856.642399</ele>
        <time>2021-11-22T01:52:01.666Z</time>
      </trkpt>
      <trkpt lat="47.637598" lon="7.950642">
        <ele>857.620312</ele>
        <time>2021-11-22T01:52:07.951Z</time>
      </trkpt>
      <trkpt lat="47.637813" lon="7.950431">
        <ele>858.836030</ele>
        <time>2021-11-22T01:52:16.624Z</time>
      </trkpt>
      <trkpt lat="47.638433" lon="7.949786">
        <ele>860.764992</ele>
        <time>2021-11-22T01:52:37.961Z</time>
      </trkpt>
      <trkpt lat="47.638845" lon="7.949151">
        <ele>861.435566</ele>
        <time>2021-11-22T01:52:49.648Z</time>
      </trkpt>
      <trkpt lat="47.639038" lon="7.948758">
        <ele>861.805493</ele>
        <time>2021-11-22T01:52:54.542Z</time>
      </trkpt>
      <trkpt lat="47.639170" lon="7.948455">
        <ele>862.079959</ele>
        <time>2021-11-22T01:52:57.806Z</time>
      </trkpt>
      <trkpt lat="47.639254" lon="7.948202">
        <ele>862.258413</ele>
        <time>2021-11-22T01:53:00.355Z</time>
      </trkpt>
      <trkpt lat="47.639305" lon="7.947792">
        <ele>861.846640</ele>
        <time>2021-11-22T01:53:03.678Z</time>
      </trkpt>
      <trkpt lat="47.639245" lon="7.947417">
        <ele>861.465977</ele>
        <time>2021-11-22T01:53:06.632Z</time>
      </trkpt>
      <trkpt lat="47.639171" lon="7.947230">
        <ele>861.251793</ele>
        <time>2021-11-22T01:53:08.480Z</time>
      </trkpt>
      <trkpt lat="47.639079" lon="7.947097">
        <ele>861.063539</ele>
        <time>2021-11-22T01:53:09.741Z</time>
      </trkpt>
      <trkpt lat="47.638801" lon="7.946735">
        <ele>860.521441</ele>
        <time>2021-11-22T01:53:13.834Z</time>
      </trkpt>
      <trkpt lat="47.638633" lon="7.946522">
        <ele>860.197567</ele>
        <time>2021-11-22T01:53:16.581Z</time>
      </trkpt>
      <trkpt lat="47.638601" lon="7.946470">
        <ele>860.128013</ele>
        <time>2021-11-22T01:53:17.135Z</time>
      </trkpt>
      <trkpt lat="47.638490" lon="7.946296">
        <ele>859.891360</ele>
        <time>2021-11-22T01:53:18.802Z</time>
      </trkpt>
      <trkpt lat="47.638187" lon="7.945494">
        <ele>859.339115</ele>
        <time>2021-11-22T01:53:26.311Z</time>
      </trkpt>
      <trkpt lat="47.638180" lon="7.945471">
        <ele>859.327647</ele>
        <time>2021-11-22T01:53:26.453Z</time>
      </trkpt>
      <trkpt lat="47.638087" lon="7.945165">
        <ele>859.175102</ele>
        <time>2021-11-22T01:53:29.411Z</time>
      </trkpt>
      <trkpt lat="47.637977" lon="7.944887">
        <ele>859.028601</ele>
        <time>2021-11-22T01:53:31.877Z</time>
      </trkpt>
      <trkpt lat="47.637846" lon="7.944700">
        <ele>858.906018</ele>
        <time>2021-11-22T01:53:34.586Z</time>
      </trkpt>
      <trkpt lat="47.637690" lon="7.944520">
        <ele>858.772753</ele>
        <time>2021-11-22T01:53:37.121Z</time>
      </trkpt>
      <trkpt lat="47.637583" lon="7.944404">
        <ele>858.683388</ele>
        <time>2021-11-22T01:53:39.304Z</time>
      </trkpt>
      <trkpt lat="47.637442" lon="7.944256">
        <ele>858.566916</ele>
        <time>2021-11-22T01:53:41.864Z</time>
      </trkpt>
      <trkpt lat="47.637316" lon="7.944402">
        <ele>858.459107</ele>
        <time>2021-11-22T01:53:44.703Z</time>
      </trkpt>
      <trkpt lat="47.636926" lon="7.944520">
        <ele>858.436365</ele>
        <time>2021-11-22T01:53:51.003Z</time>
      </trkpt>
      <trkpt lat="47.636517" lon="7.944381">
        <ele>858.444662</ele>
        <time>2021-11-22T01:53:57.806Z</time>
      </trkpt>
      <trkpt lat="47.636440" lon="7.944352">
        <ele>858.446233</ele>
        <time>2021-11-22T01:53:59.259Z</time>
      </trkpt>
      <trkpt lat="47.636341" lon="7.944314">
        <ele>858.448255</ele>
        <time>2021-11-22T01:54:01.010Z</time>
      </trkpt>
      <trkpt lat="47.636224" lon="7.944307">
        <ele>858.450571</ele>
        <time>2021-11-22T01:54:02.497Z</time>
      </trkpt>
      <trkpt lat="47.636029" lon="7.944437">
        <ele>858.454798</ele>
        <time>2021-11-22T01:54:05.732Z</time>
      </trkpt>
      <trkpt lat="47.635520" lon="7.945990">
        <ele>858.595444</ele>
        <time>2021-11-22T01:54:21.341Z</time>
      </trkpt>
      <trkpt lat="47.635305" lon="7.946397">
        <ele>858.665292</ele>
        <time>2021-11-22T01:54:25.850Z</time>
      </trkpt>
      <trkpt lat="47.634967" lon="7.946762">
        <ele>858.749078</ele>
        <time>2021-11-22T01:54:31.508Z</time>
      </trkpt>
      <trkpt lat="47.634741" lon="7.946805">
        <ele>858.794747</ele>
        <time>2021-11-22T01:54:36.243Z</time>
      </trkpt>
      <trkpt lat="47.634598" lon="7.946753">
        <ele>858.824258</ele>
        <time>2021-11-22T01:54:39.435Z</time>
      </trkpt>
      <trkpt lat="47.634437" lon="7.946594">
        <ele>859.401752</ele>
        <time>2021-11-22T01:54:44.493Z</time>
      </trkpt>
      <trkpt lat="47.634304" lon="7.946352">
        <ele>860.048678</ele>
        <time>2021-11-22T01:54:49.605Z</time>
      </trkpt>
      <trkpt lat="47.633987" lon="7.945419">
        <ele>862.213290</ele>
        <time>2021-11-22T01:55:09.618Z</time>
      </trkpt>
      <trkpt lat="47.633902" lon="7.945296">
        <ele>862.578273</ele>
        <time>2021-11-22T01:55:12.675Z</time>
      </trkpt>
      <trkpt lat="47.633818" lon="7.945221">
        <ele>862.879649</ele>
        <time>2021-11-22T01:55:17.027Z</time>
      </trkpt>
      <trkpt lat="47.633720" lon="7.945173">
        <ele>863.196912</ele>
        <time>2021-11-22T01:55:19.411Z</time>
      </trkpt>
      <trkpt lat="47.633664" lon="7.945157">
        <ele>863.372233</ele>
        <time>2021-11-22T01:55:20.580Z</time>
      </trkpt>
      <trkpt lat="47.633591" lon="7.945179">
        <ele>863.601235</ele>
        <time>2021-11-22T01:55:22.354Z</time>
      </trkpt>
      <trkpt lat="47.633591" lon="7.945179">
        <ele>863.601235</ele>
        <time>2021-11-22T01:55:22.398Z</time>
      </trkpt>
      <trkpt lat="47.633498" lon="7.945219">
        <ele>863.898907</ele>
        <time>2021-11-22T01:55:26.436Z</time>
      </trkpt>
      <trkpt lat="47.632250" lon="7.946421">
        <ele>867.366182</ele>
        <time>2021-11-22T01:56:07.664Z</time>
      </trkpt>
      <trkpt lat="47.632015" lon="7.946574">
        <ele>867.943089</ele>
        <time>2021-11-22T01:56:11.448Z</time>
      </trkpt>
      <trkpt lat="47.631252" lon="7.946953">
        <ele>867.364768</ele>
        <time>2021-11-22T01:56:21.890Z</time>
      </trkpt>
      <trkpt lat="47.630971" lon="7.947084">
        <ele>866.859099</ele>
        <time>2021-11-22T01:56:25.327Z</time>
      </trkpt>
      <trkpt lat="47.630672" lon="7.947236">
        <ele>866.316487</ele>
        <time>2021-11-22T01:56:28.861Z</time>
      </trkpt>
      <trkpt lat="47.629991" lon="7.947744">
        <ele>864.567082</ele>
        <time>2021-11-22T01:56:36.553Z</time>
      </trkpt>
      <trkpt lat="47.629363" lon="7.948362">
        <ele>861.388462</ele>
        <time>2021-11-22T01:56:43.913Z</time>
      </trkpt>
      <trkpt lat="47.629285" lon="7.948439">
        <ele>860.993283</ele>
        <time>2021-11-22T01:56:44.787Z</time>
      </trkpt>
      <trkpt lat="47.629252" lon="7.948471">
        <ele>860.826995</ele>
        <time>2021-11-22T01:56:45.173Z</time>
      </trkpt>
      <trkpt lat="47.629112" lon="7.948574">
        <ele>860.167847</ele>
        <time>2021-11-22T01:56:46.713Z</time>
      </trkpt>
      <trkpt lat="47.629018" lon="7.948689">
        <ele>859.653947</ele>
        <time>2021-11-22T01:56:47.878Z</time>
      </trkpt>
      <trkpt lat="47.628909" lon="7.948921">
        <ele>858.849979</ele>
        <time>2021-11-22T01:56:49.705Z</time>
      </trkpt>
      <trkpt lat="47.628855" lon="7.948997">
        <ele>858.536033</ele>
        <time>2021-11-22T01:56:50.394Z</time>
      </trkpt>
      <trkpt lat="47.628255" lon="7.949609">
        <ele>855.698819</ele>
        <time>2021-11-22T01:56:57.230Z</time>
      </trkpt>
      <trkpt lat="47.628154" lon="7.949804">
        <ele>855.072103</ele>
        <time>2021-11-22T01:56:58.833Z</time>
      </trkpt>
      <trkpt lat="47.628018" lon="7.949775">
        <ele>854.552580</ele>
        <time>2021-11-22T01:57:00.227Z</time>
      </trkpt>
      <trkpt lat="47.627819" lon="7.949787">
        <ele>853.799503</ele>
        <time>2021-11-22T01:57:02.190Z</time>
      </trkpt>
      <trkpt lat="47.627702" lon="7.949801">
        <ele>853.355669</ele>
        <time>2021-11-22T01:57:03.499Z</time>
      </trkpt>
      <trkpt lat="47.627472" lon="7.949828">
        <ele>852.483279</ele>
        <time>2021-11-22T01:57:05.791Z</time>
      </trkpt>
      <trkpt lat="47.627309" lon="7.949824">
        <ele>851.866862</ele>
        <time>2021-11-22T01:57:07.609Z</time>
      </trkpt>
      <trkpt lat="47.627208" lon="7.949813">
        <ele>851.483935</ele>
        <time>2021-11-22T01:57:08.584Z</time>
      </trkpt>
      <trkpt lat="47.627110" lon="7.949777">
        <ele>851.102192</ele>
        <time>2021-11-22T01:57:09.759Z</time>
      </trkpt>
      <trkpt lat="47.626994" lon="7.949736">
        <ele>850.631759</ele>
        <time>2021-11-22T01:57:11.141Z</time>
      </trkpt>
      <trkpt lat="47.626859" lon="7.949688">
        <ele>850.069023</ele>
        <time>2021-11-22T01:57:12.494Z</time>
      </trkpt>
      <trkpt lat="47.626752" lon="7.949657">
        <ele>849.627090</ele>
        <time>2021-11-22T01:57:13.674Z</time>
      </trkpt>
      <trkpt lat="47.626683" lon="7.949637">
        <ele>849.342100</ele>
        <time>2021-11-22T01:57:14.341Z</time>
      </trkpt>
      <trkpt lat="47.626401" lon="7.949689">
        <ele>848.190174</ele>
        <time>2021-11-22T01:57:17.114Z</time>
      </trkpt>
      <trkpt lat="47.626137" lon="7.949956">
        <ele>846.895048</ele>
        <time>2021-11-22T01:57:20.192Z</time>
      </trkpt>
      <trkpt lat="47.626078" lon="7.950083">
        <ele>846.473637</ele>
        <time>2021-11-22T01:57:21.286Z</time>
      </trkpt>
      <trkpt lat="47.626026" lon="7.950244">
        <ele>845.985880</ele>
        <time>2021-11-22T01:57:22.392Z</time>
      </trkpt>
      <trkpt lat="47.625896" lon="7.950889">
        <ele>844.146608</ele>
        <time>2021-11-22T01:57:26.913Z</time>
      </trkpt>
      <trkpt lat="47.625850" lon="7.951040">
        <ele>843.693885</ele>
        <time>2021-11-22T01:57:27.926Z</time>
      </trkpt>
      <trkpt lat="47.625812" lon="7.951163">
        <ele>843.299769</ele>
        <time>2021-11-22T01:57:28.747Z</time>
      </trkpt>
      <trkpt lat="47.625460" lon="7.951852">
        <ele>840.749687</ele>
        <time>2021-11-22T01:57:34.166Z</time>
      </trkpt>
      <trkpt lat="47.625338" lon="7.952002">
        <ele>840.056287</ele>
        <time>2021-11-22T01:57:35.671Z</time>
      </trkpt>
      <trkpt lat="47.625089" lon="7.952131">
        <ele>838.902067</ele>
        <time>2021-11-22T01:57:38.147Z</time>
      </trkpt>
      <trkpt lat="47.624864" lon="7.952108">
        <ele>837.915062</ele>
        <time>2021-11-22T01:57:40.424Z</time>
      </trkpt>
      <trkpt lat="47.624794" lon="7.952070">
        <ele>837.588860</ele>
        <time>2021-11-22T01:57:41.056Z</time>
      </trkpt>
      <trkpt lat="47.624692" lon="7.951963">
        <ele>837.042175</ele>
        <time>2021-11-22T01:57:42.274Z</time>
      </trkpt>
      <trkpt lat="47.624014" lon="7.951018">
        <ele>835.947108</ele>
        <time>2021-11-22T01:57:52.454Z</time>
      </trkpt>
      <trkpt lat="47.623553" lon="7.950603">
        <ele>836.105448</ele>
        <time>2021-11-22T01:58:00.794Z</time>
      </trkpt>
      <trkpt lat="47.623105" lon="7.950303">
        <ele>836.249781</ele>
        <time>2021-11-22T01:58:13.657Z</time>
      </trkpt>
      <trkpt lat="47.622946" lon="7.950255">
        <ele>836.428635</ele>
        <time>2021-11-22T01:58:18.705Z</time>
      </trkpt>
      <trkpt lat="47.622642" lon="7.950331">
        <ele>837.798883</ele>
        <time>2021-11-22T01:58:27.400Z</time>
      </trkpt>
      <trkpt lat="47.622427" lon="7.950567">
        <ele>838.987610</ele>
        <time>2021-11-22T01:58:35.533Z</time>
      </trkpt>
      <trkpt lat="47.622278" lon="7.951027">
        <ele>840.516560</ele>
        <time>2021-11-22T01:58:45.991Z</time>
      </trkpt>
      <trkpt lat="47.622272" lon="7.951112">
        <ele>840.772597</ele>
        <time>2021-11-22T01:58:48.155Z</time>
      </trkpt>
      <trkpt lat="47.622265" lon="7.951206">
        <ele>841.055918</ele>
        <time>2021-11-22T01:58:49.738Z</time>
      </trkpt>
      <trkpt lat="47.622185" lon="7.951242">
        <ele>841.427493</ele>
        <time>2021-11-22T01:58:53.264Z</time>
      </trkpt>
      <trkpt lat="47.622076" lon="7.951302">
        <ele>841.944240</ele>
        <time>2021-11-22T01:58:56.321Z</time>
      </trkpt>
      <trkpt lat="47.621546" lon="7.951345">
        <ele>844.306828</ele>
        <time>2021-11-22T01:59:16.157Z</time>
      </trkpt>
      <trkpt lat="47.621172" lon="7.951487">
        <ele>846.299284</ele>
        <time>2021-11-22T01:59:31.945Z</time>
      </trkpt>
      <trkpt lat="47.620663" lon="7.951396">
        <ele>848.945288</ele>
        <time>2021-11-22T01:59:52.263Z</time>
      </trkpt>
      <trkpt lat="47.620471" lon="7.951390">
        <ele>849.936439</ele>
        <time>2021-11-22T01:59:59.065Z</time>
      </trkpt>
      <trkpt lat="47.620184" lon="7.951444">
        <ele>851.429539</ele>
        <time>2021-11-22T02:00:08.662Z</time>
      </trkpt>
      <trkpt lat="47.620031" lon="7.951434">
        <ele>852.219953</ele>
        <time>2021-11-22T02:00:14.414Z</time>
      </trkpt>
      <trkpt lat="47.618671" lon="7.951343">
        <ele>855.100788</ele>
        <time>2021-11-22T02:00:52.585Z</time>
      </trkpt>
      <trkpt lat="47.618483" lon="7.951366">
        <ele>855.363898</ele>
        <time>2021-11-22T02:00:55.640Z</time>
      </trkpt>
      <trkpt lat="47.618278" lon="7.951491">
        <ele>855.673039</ele>
        <time>2021-11-22T02:00:58.088Z</time>
      </trkpt>
      <trkpt lat="47.618199" lon="7.951419">
        <ele>855.802359</ele>
        <time>2021-11-22T02:00:59.234Z</time>
      </trkpt>
      <trkpt lat="47.617993" lon="7.951246">
        <ele>855.875280</ele>
        <time>2021-11-22T02:01:01.694Z</time>
      </trkpt>
      <trkpt lat="47.617931" lon="7.951183">
        <ele>855.516715</ele>
        <time>2021-11-22T02:01:02.624Z</time>
      </trkpt>
      <trkpt lat="47.617570" lon="7.950854">
        <ele>853.495190</ele>
        <time>2021-11-22T02:01:06.898Z</time>
      </trkpt>
      <trkpt lat="47.616863" lon="7.950415">
        <ele>849.838257</ele>
        <time>2021-11-22T02:01:14.108Z</time>
      </trkpt>
      <trkpt lat="47.616253" lon="7.949690">
        <ele>845.664793</ele>
        <time>2021-11-22T02:01:21.141Z</time>
      </trkpt>
      <trkpt lat="47.615966" lon="7.949509">
        <ele>843.699244</ele>
        <time>2021-11-22T02:01:23.948Z</time>
      </trkpt>
      <trkpt lat="47.615810" lon="7.949499">
        <ele>842.715107</ele>
        <time>2021-11-22T02:01:25.388Z</time>
      </trkpt>
      <trkpt lat="47.615702" lon="7.949521">
        <ele>842.028028</ele>
        <time>2021-11-22T02:01:26.357Z</time>
      </trkpt>
      <trkpt lat="47.614682" lon="7.949596">
        <ele>835.622903</ele>
        <time>2021-11-22T02:01:39.832Z</time>
      </trkpt>
      <trkpt lat="47.614487" lon="7.949642">
        <ele>834.447895</ele>
        <time>2021-11-22T02:01:42.394Z</time>
      </trkpt>
      <trkpt lat="47.613749" lon="7.950023">
        <ele>829.797758</ele>
        <time>2021-11-22T02:01:52.645Z</time>
      </trkpt>
      <trkpt lat="47.613296" lon="7.950348">
        <ele>826.803260</ele>
        <time>2021-11-22T02:01:59.281Z</time>
      </trkpt>
      <trkpt lat="47.612472" lon="7.951053">
        <ele>821.261158</ele>
        <time>2021-11-22T02:02:11.792Z</time>
      </trkpt>
      <trkpt lat="47.610709" lon="7.952777">
        <ele>810.376749</ele>
        <time>2021-11-22T02:02:39.733Z</time>
      </trkpt>
      <trkpt lat="47.610490" lon="7.952871">
        <ele>809.350990</ele>
        <time>2021-11-22T02:02:42.951Z</time>
      </trkpt>
      <trkpt lat="47.609926" lon="7.952845">
        <ele>806.907662</ele>
        <time>2021-11-22T02:02:51.317Z</time>
      </trkpt>
      <trkpt lat="47.609848" lon="7.952864">
        <ele>806.796658</ele>
        <time>2021-11-22T02:02:52.464Z</time>
      </trkpt>
      <trkpt lat="47.609390" lon="7.951204">
        <ele>805.098522</ele>
        <time>2021-11-22T02:03:06.457Z</time>
      </trkpt>
      <trkpt lat="47.609119" lon="7.950532">
        <ele>804.340017</ele>
        <time>2021-11-22T02:03:13.689Z</time>
      </trkpt>
      <trkpt lat="47.608916" lon="7.950126">
        <ele>803.740737</ele>
        <time>2021-11-22T02:03:18.186Z</time>
      </trkpt>
      <trkpt lat="47.608814" lon="7.949946">
        <ele>803.461960</ele>
        <time>2021-11-22T02:03:20.298Z</time>
      </trkpt>
      <trkpt lat="47.608598" lon="7.949608">
        <ele>802.909809</ele>
        <time>2021-11-22T02:03:24.039Z</time>
      </trkpt>
      <trkpt lat="47.608258" lon="7.949098">
        <ele>802.059454</ele>
        <time>2021-11-22T02:03:29.337Z</time>
      </trkpt>
      <trkpt lat="47.607428" lon="7.947861">
        <ele>798.576810</ele>
        <time>2021-11-22T02:03:41.235Z</time>
      </trkpt>
      <trkpt lat="47.607177" lon="7.947456">
        <ele>797.199686</ele>
        <time>2021-11-22T02:03:44.832Z</time>
      </trkpt>
      <trkpt lat="47.607053" lon="7.947037">
        <ele>796.054179</ele>
        <time>2021-11-22T02:03:47.806Z</time>
      </trkpt>
      <trkpt lat="47.607026" lon="7.946800">
        <ele>795.452472</ele>
        <time>2021-11-22T02:03:49.374Z</time>
      </trkpt>
      <trkpt lat="47.607053" lon="7.946387">
        <ele>794.437315</ele>
        <time>2021-11-22T02:03:52.098Z</time>
      </trkpt>
      <trkpt lat="47.607219" lon="7.945696">
        <ele>792.855718</ele>
        <time>2021-11-22T02:03:56.974Z</time>
      </trkpt>
      <trkpt lat="47.607532" lon="7.944721">
        <ele>790.527417</ele>
        <time>2021-11-22T02:04:04.609Z</time>
      </trkpt>
      <trkpt lat="47.607673" lon="7.944452">
        <ele>789.792779</ele>
        <time>2021-11-22T02:04:07.142Z</time>
      </trkpt>
      <trkpt lat="47.607934" lon="7.944298">
        <ele>788.894504</ele>
        <time>2021-11-22T02:04:10.314Z</time>
      </trkpt>
      <trkpt lat="47.608484" lon="7.944152">
        <ele>785.107205</ele>
        <time>2021-11-22T02:04:15.655Z</time>
      </trkpt>
      <trkpt lat="47.609294" lon="7.943637">
        <ele>779.018860</ele>
        <time>2021-11-22T02:04:23.613Z</time>
      </trkpt>
      <trkpt lat="47.609350" lon="7.943593">
        <ele>778.581055</ele>
        <time>2021-11-22T02:04:24.150Z</time>
      </trkpt>
      <trkpt lat="47.609814" lon="7.943160">
        <ele>773.878139</ele>
        <time>2021-11-22T02:04:28.842Z</time>
      </trkpt>
      <trkpt lat="47.610014" lon="7.942918">
        <ele>771.082045</ele>
        <time>2021-11-22T02:04:31.010Z</time>
      </trkpt>
      <trkpt lat="47.610065" lon="7.942722">
        <ele>769.547651</ele>
        <time>2021-11-22T02:04:32.203Z</time>
      </trkpt>
      <trkpt lat="47.610075" lon="7.942547">
        <ele>768.264968</ele>
        <time>2021-11-22T02:04:33.185Z</time>
      </trkpt>
      <trkpt lat="47.609950" lon="7.942351">
        <ele>766.294477</ele>
        <time>2021-11-22T02:04:34.777Z</time>
      </trkpt>
      <trkpt lat="47.609824" lon="7.942206">
        <ele>764.566861</ele>
        <time>2021-11-22T02:04:36.097Z</time>
      </trkpt>
      <trkpt lat="47.609660" lon="7.942072">
        <ele>762.538502</ele>
        <time>2021-11-22T02:04:37.721Z</time>
      </trkpt>
      <trkpt lat="47.609328" lon="7.941802">
        <ele>758.436767</ele>
        <time>2021-11-22T02:04:40.980Z</time>
      </trkpt>
      <trkpt lat="47.609231" lon="7.941717">
        <ele>757.216270</ele>
        <time>2021-11-22T02:04:41.931Z</time>
      </trkpt>
      <trkpt lat="47.608985" lon="7.941282">
        <ele>754.854784</ele>
        <time>2021-11-22T02:04:45.317Z</time>
      </trkpt>
      <trkpt lat="47.608976" lon="7.941180">
        <ele>754.451743</ele>
        <time>2021-11-22T02:04:45.904Z</time>
      </trkpt>
      <trkpt lat="47.608986" lon="7.941047">
        <ele>753.927423</ele>
        <time>2021-11-22T02:04:47.319Z</time>
      </trkpt>
      <trkpt lat="47.609156" lon="7.940638">
        <ele>752.044911</ele>
        <time>2021-11-22T02:04:50.193Z</time>
      </trkpt>
      <trkpt lat="47.609697" lon="7.940207">
        <ele>748.476158</ele>
        <time>2021-11-22T02:04:56.190Z</time>
      </trkpt>
      <trkpt lat="47.610427" lon="7.939448">
        <ele>743.533095</ele>
        <time>2021-11-22T02:05:05.225Z</time>
      </trkpt>
      <trkpt lat="47.610663" lon="7.939057">
        <ele>741.631000</ele>
        <time>2021-11-22T02:05:08.536Z</time>
      </trkpt>
      <trkpt lat="47.611668" lon="7.937036">
        <ele>732.299773</ele>
        <time>2021-11-22T02:05:23.823Z</time>
      </trkpt>
      <trkpt lat="47.612157" lon="7.936591">
        <ele>729.049883</ele>
        <time>2021-11-22T02:05:29.159Z</time>
      </trkpt>
      <trkpt lat="47.612760" lon="7.936192">
        <ele>725.494867</ele>
        <time>2021-11-22T02:05:35.570Z</time>
      </trkpt>
      <trkpt lat="47.613611" lon="7.935811">
        <ele>721.177329</ele>
        <time>2021-11-22T02:05:44.232Z</time>
      </trkpt>
      <trkpt lat="47.613843" lon="7.935758">
        <ele>720.037201</ele>
        <time>2021-11-22T02:05:46.484Z</time>
      </trkpt>
      <trkpt lat="47.614095" lon="7.935725">
        <ele>718.808455</ele>
        <time>2021-11-22T02:05:48.835Z</time>
      </trkpt>
      <trkpt lat="47.615166" lon="7.935713">
        <ele>710.813536</ele>
        <time>2021-11-22T02:05:58.453Z</time>
      </trkpt>
      <trkpt lat="47.615451" lon="7.935602">
        <ele>708.445587</ele>
        <time>2021-11-22T02:06:01.017Z</time>
      </trkpt>
      <trkpt lat="47.615705" lon="7.935396">
        <ele>706.119246</ele>
        <time>2021-11-22T02:06:03.522Z</time>
      </trkpt>
      <trkpt lat="47.616262" lon="7.934487">
        <ele>698.781685</ele>
        <time>2021-11-22T02:06:10.703Z</time>
      </trkpt>
      <trkpt lat="47.616672" lon="7.934051">
        <ele>694.027606</ele>
        <time>2021-11-22T02:06:15.076Z</time>
      </trkpt>
      <trkpt lat="47.616878" lon="7.934048">
        <ele>692.086146</ele>
        <time>2021-11-22T02:06:16.857Z</time>
      </trkpt>
      <trkpt lat="47.617409" lon="7.934240">
        <ele>686.935446</ele>
        <time>2021-11-22T02:06:21.608Z</time>
      </trkpt>
      <trkpt lat="47.617581" lon="7.934210">
        <ele>685.211320</ele>
        <time>2021-11-22T02:06:23.108Z</time>
      </trkpt>
      <trkpt lat="47.618969" lon="7.933585">
        <ele>670.461677</ele>
        <time>2021-11-22T02:06:35.599Z</time>
      </trkpt>
      <trkpt lat="47.619096" lon="7.933469">
        <ele>668.945151</ele>
        <time>2021-11-22T02:06:36.866Z</time>
      </trkpt>
      <trkpt lat="47.619255" lon="7.933163">
        <ele>666.016513</ele>
        <time>2021-11-22T02:06:39.098Z</time>
      </trkpt>
      <trkpt lat="47.619818" lon="7.932353">
        <ele>656.853359</ele>
        <time>2021-11-22T02:06:45.720Z</time>
      </trkpt>
      <trkpt lat="47.620106" lon="7.931975">
        <ele>652.360610</ele>
        <time>2021-11-22T02:06:48.954Z</time>
      </trkpt>
      <trkpt lat="47.620440" lon="7.931519">
        <ele>647.092383</ele>
        <time>2021-11-22T02:06:52.811Z</time>
      </trkpt>
      <trkpt lat="47.620523" lon="7.931338">
        <ele>645.936147</ele>
        <time>2021-11-22T02:06:54.052Z</time>
      </trkpt>
      <trkpt lat="47.620633" lon="7.930854">
        <ele>643.238428</ele>
        <time>2021-11-22T02:06:57.022Z</time>
      </trkpt>
      <trkpt lat="47.620770" lon="7.930392">
        <ele>640.572612</ele>
        <time>2021-11-22T02:06:59.992Z</time>
      </trkpt>
      <trkpt lat="47.621014" lon="7.929789">
        <ele>636.857973</ele>
        <time>2021-11-22T02:07:04.268Z</time>
      </trkpt>
      <trkpt lat="47.621153" lon="7.929574">
        <ele>635.284515</ele>
        <time>2021-11-22T02:07:06.115Z</time>
      </trkpt>
      <trkpt lat="47.621561" lon="7.929312">
        <ele>632.183063</ele>
        <time>2021-11-22T02:07:10.376Z</time>
      </trkpt>
      <trkpt lat="47.622199" lon="7.929159">
        <ele>628.643978</ele>
        <time>2021-11-22T02:07:16.651Z</time>
      </trkpt>
      <trkpt lat="47.622516" lon="7.929178">
        <ele>626.906645</ele>
        <time>2021-11-22T02:07:19.671Z</time>
      </trkpt>
      <trkpt lat="47.622878" lon="7.929322">
        <ele>624.854290</ele>
        <time>2021-11-22T02:07:23.167Z</time>
      </trkpt>
      <trkpt lat="47.622967" lon="7.929237">
        <ele>624.274673</ele>
        <time>2021-11-22T02:07:24.164Z</time>
      </trkpt>
      <trkpt lat="47.622989" lon="7.929175">
        <ele>624.016062</ele>
        <time>2021-11-22T02:07:24.652Z</time>
      </trkpt>
      <trkpt lat="47.622990" lon="7.929067">
        <ele>623.617406</ele>
        <time>2021-11-22T02:07:25.258Z</time>
      </trkpt>
      <trkpt lat="47.622913" lon="7.928884">
        <ele>622.505953</ele>
        <time>2021-11-22T02:07:26.601Z</time>
      </trkpt>
      <trkpt lat="47.621861" lon="7.928723">
        <ele>612.142917</ele>
        <time>2021-11-22T02:07:35.737Z</time>
      </trkpt>
      <trkpt lat="47.620569" lon="7.928919">
        <ele>599.385227</ele>
        <time>2021-11-22T02:07:46.784Z</time>
      </trkpt>
      <trkpt lat="47.619928" lon="7.929124">
        <ele>592.927028</ele>
        <time>2021-11-22T02:07:52.450Z</time>
      </trkpt>
      <trkpt lat="47.619604" lon="7.929315">
        <ele>589.493275</ele>
        <time>2021-11-22T02:07:55.488Z</time>
      </trkpt>
      <trkpt lat="47.619329" lon="7.929527">
        <ele>586.822407</ele>
        <time>2021-11-22T02:07:58.216Z</time>
      </trkpt>
      <trkpt lat="47.618921" lon="7.930073">
        <ele>582.844024</ele>
        <time>2021-11-22T02:08:03.110Z</time>
      </trkpt>
      <trkpt lat="47.618761" lon="7.930033">
        <ele>581.669219</ele>
        <time>2021-11-22T02:08:04.615Z</time>
      </trkpt>
      <trkpt lat="47.618733" lon="7.929945">
        <ele>581.194291</ele>
        <time>2021-11-22T02:08:05.205Z</time>
      </trkpt>
      <trkpt lat="47.618734" lon="7.929873">
        <ele>580.842820</ele>
        <time>2021-11-22T02:08:05.616Z</time>
      </trkpt>
      <trkpt lat="47.618861" lon="7.929607">
        <ele>579.251939</ele>
        <time>2021-11-22T02:08:07.687Z</time>
      </trkpt>
      <trkpt lat="47.619053" lon="7.929381">
        <ele>577.477356</ele>
        <time>2021-11-22T02:08:09.915Z</time>
      </trkpt>
      <trkpt lat="47.620384" lon="7.928242">
        <ele>564.231668</ele>
        <time>2021-11-22T02:08:23.589Z</time>
      </trkpt>
      <trkpt lat="47.620796" lon="7.927816">
        <ele>559.689213</ele>
        <time>2021-11-22T02:08:27.861Z</time>
      </trkpt>
      <trkpt lat="47.620873" lon="7.927631">
        <ele>558.276165</ele>
        <time>2021-11-22T02:08:29.101Z</time>
      </trkpt>
      <trkpt lat="47.620930" lon="7.927423">
        <ele>556.376045</ele>
        <time>2021-11-22T02:08:30.363Z</time>
      </trkpt>
      <trkpt lat="47.620993" lon="7.927078">
        <ele>553.351232</ele>
        <time>2021-11-22T02:08:32.399Z</time>
      </trkpt>
      <trkpt lat="47.621010" lon="7.926916">
        <ele>551.963792</ele>
        <time>2021-11-22T02:08:33.328Z</time>
      </trkpt>
      <trkpt lat="47.621008" lon="7.926716">
        <ele>550.271105</ele>
        <time>2021-11-22T02:08:34.465Z</time>
      </trkpt>
      <trkpt lat="47.621092" lon="7.926230">
        <ele>546.025269</ele>
        <time>2021-11-22T02:08:37.308Z</time>
      </trkpt>
      <trkpt lat="47.621290" lon="7.925709">
        <ele>540.963795</ele>
        <time>2021-11-22T02:08:40.693Z</time>
      </trkpt>
      <trkpt lat="47.621339" lon="7.925596">
        <ele>539.826740</ele>
        <time>2021-11-22T02:08:41.445Z</time>
      </trkpt>
      <trkpt lat="47.621723" lon="7.924936">
        <ele>532.960251</ele>
        <time>2021-11-22T02:08:46.385Z</time>
      </trkpt>
      <trkpt lat="47.623053" lon="7.924259">
        <ele>517.845328</ele>
        <time>2021-11-22T02:08:58.488Z</time>
      </trkpt>
      <trkpt lat="47.623206" lon="7.923969">
        <ele>515.085407</ele>
        <time>2021-11-22T02:09:00.653Z</time>
      </trkpt>
      <trkpt lat="47.623246" lon="7.923768">
        <ele>513.473889</ele>
        <time>2021-11-22T02:09:01.850Z</time>
      </trkpt>
      <trkpt lat="47.623227" lon="7.922954">
        <ele>507.211021</ele>
        <time>2021-11-22T02:09:06.519Z</time>
      </trkpt>
      <trkpt lat="47.623251" lon="7.922713">
        <ele>505.337774</ele>
        <time>2021-11-22T02:09:07.896Z</time>
      </trkpt>
      <trkpt lat="47.623298" lon="7.922501">
        <ele>503.621716</ele>
        <time>2021-11-22T02:09:09.179Z</time>
      </trkpt>
      <trkpt lat="47.623564" lon="7.921962">
        <ele>498.484959</ele>
        <time>2021-11-22T02:09:12.987Z</time>
      </trkpt>
      <trkpt lat="47.623626" lon="7.921633">
        <ele>495.877309</ele>
        <time>2021-11-22T02:09:14.947Z</time>
      </trkpt>
      <trkpt lat="47.623611" lon="7.921528">
        <ele>495.105685</ele>
        <time>2021-11-22T02:09:15.549Z</time>
      </trkpt>
      <trkpt lat="47.623588" lon="7.921368">
        <ele>493.929560</ele>
        <time>2021-11-22T02:09:16.483Z</time>
      </trkpt>
      <trkpt lat="47.623561" lon="7.920975">
        <ele>491.089606</ele>
        <time>2021-11-22T02:09:18.739Z</time>
      </trkpt>
      <trkpt lat="47.623430" lon="7.919875">
        <ele>483.059093</ele>
        <time>2021-11-22T02:09:25.205Z</time>
      </trkpt>
      <trkpt lat="47.623255" lon="7.919315">
        <ele>478.621504</ele>
        <time>2021-11-22T02:09:28.779Z</time>
      </trkpt>
      <trkpt lat="47.623010" lon="7.918947">
        <ele>475.089142</ele>
        <time>2021-11-22T02:09:31.762Z</time>
      </trkpt>
      <trkpt lat="47.622446" lon="7.918652">
        <ele>469.285945</ele>
        <time>2021-11-22T02:09:36.983Z</time>
      </trkpt>
      <trkpt lat="47.622366" lon="7.918470">
        <ele>467.864782</ele>
        <time>2021-11-22T02:09:38.237Z</time>
      </trkpt>
      <trkpt lat="47.622381" lon="7.918164">
        <ele>465.858066</ele>
        <time>2021-11-22T02:09:40.047Z</time>
      </trkpt>
      <trkpt lat="47.622424" lon="7.918069">
        <ele>465.109600</ele>
        <time>2021-11-22T02:09:40.704Z</time>
      </trkpt>
      <trkpt lat="47.622587" lon="7.917873">
        <ele>463.073587</ele>
        <time>2021-11-22T02:09:42.518Z</time>
      </trkpt>
      <trkpt lat="47.622656" lon="7.917625">
        <ele>461.318757</ele>
        <time>2021-11-22T02:09:44.080Z</time>
      </trkpt>
      <trkpt lat="47.622677" lon="7.917170">
        <ele>458.298243</ele>
        <time>2021-11-22T02:09:46.736Z</time>
      </trkpt>
      <trkpt lat="47.622647" lon="7.916647">
        <ele>454.755608</ele>
        <time>2021-11-22T02:09:49.772Z</time>
      </trkpt>
      <trkpt lat="47.622576" lon="7.916379">
        <ele>452.812089</ele>
        <time>2021-11-22T02:09:51.428Z</time>
      </trkpt>
      <trkpt lat="47.622393" lon="7.916077">
        <ele>450.071166</ele>
        <time>2021-11-22T02:09:53.763Z</time>
      </trkpt>
      <trkpt lat="47.621809" lon="7.915582">
        <ele>443.336154</ele>
        <time>2021-11-22T02:09:59.576Z</time>
      </trkpt>
      <trkpt lat="47.621530" lon="7.915222">
        <ele>439.630021</ele>
        <time>2021-11-22T02:10:02.782Z</time>
      </trkpt>
      <trkpt lat="47.621037" lon="7.914355">
        <ele>431.959504</ele>
        <time>2021-11-22T02:10:09.412Z</time>
      </trkpt>
      <trkpt lat="47.620869" lon="7.913635">
        <ele>426.807172</ele>
        <time>2021-11-22T02:10:13.775Z</time>
      </trkpt>
      <trkpt lat="47.620841" lon="7.913331">
        <ele>424.732327</ele>
        <time>2021-11-22T02:10:15.554Z</time>
      </trkpt>
      <trkpt lat="47.620822" lon="7.912670">
        <ele>420.608082</ele>
        <time>2021-11-22T02:10:19.383Z</time>
      </trkpt>
      <trkpt lat="47.620858" lon="7.912289">
        <ele>418.290835</ele>
        <time>2021-11-22T02:10:21.642Z</time>
      </trkpt>
      <trkpt lat="47.620910" lon="7.911951">
        <ele>416.202666</ele>
        <time>2021-11-22T02:10:23.657Z</time>
      </trkpt>
      <trkpt lat="47.620953" lon="7.911653">
        <ele>414.367111</ele>
        <time>2021-11-22T02:10:25.447Z</time>
      </trkpt>
      <trkpt lat="47.620946" lon="7.911321">
        <ele>412.366461</ele>
        <time>2021-11-22T02:10:27.418Z</time>
      </trkpt>
      <trkpt lat="47.620846" lon="7.911023">
        <ele>410.361435</ele>
        <time>2021-11-22T02:10:29.389Z</time>
      </trkpt>
      <trkpt lat="47.620625" lon="7.910808">
        <ele>407.999877</ele>
        <time>2021-11-22T02:10:31.719Z</time>
      </trkpt>
      <trkpt lat="47.620181" lon="7.910694">
        <ele>405.203039</ele>
        <time>2021-11-22T02:10:35.726Z</time>
      </trkpt>
      <trkpt lat="47.620162" lon="7.910587">
        <ele>404.776790</ele>
        <time>2021-11-22T02:10:36.394Z</time>
      </trkpt>
      <trkpt lat="47.620245" lon="7.910440">
        <ele>404.038090</ele>
        <time>2021-11-22T02:10:37.565Z</time>
      </trkpt>
      <trkpt lat="47.620712" lon="7.910483">
        <ele>401.364009</ele>
        <time>2021-11-22T02:10:42.020Z</time>
      </trkpt>
      <trkpt lat="47.621308" lon="7.910162">
        <ele>397.740312</ele>
        <time>2021-11-22T02:10:48.074Z</time>
      </trkpt>
      <trkpt lat="47.621461" lon="7.910146">
        <ele>396.900361</ele>
        <time>2021-11-22T02:10:49.486Z</time>
      </trkpt>
      <trkpt lat="47.622368" lon="7.910396">
        <ele>392.426442</ele>
        <time>2021-11-22T02:10:58.184Z</time>
      </trkpt>
      <trkpt lat="47.622666" lon="7.910254">
        <ele>390.908531</ele>
        <time>2021-11-22T02:11:01.199Z</time>
      </trkpt>
      <trkpt lat="47.622755" lon="7.910176">
        <ele>390.407231</ele>
        <time>2021-11-22T02:11:02.150Z</time>
      </trkpt>
      <trkpt lat="47.622850" lon="7.910055">
        <ele>389.800029</ele>
        <time>2021-11-22T02:11:03.363Z</time>
      </trkpt>
      <trkpt lat="47.623414" lon="7.909173">
        <ele>385.520098</ele>
        <time>2021-11-22T02:11:11.207Z</time>
      </trkpt>
      <trkpt lat="47.623851" lon="7.909030">
        <ele>383.090220</ele>
        <time>2021-11-22T02:11:15.379Z</time>
      </trkpt>
      <trkpt lat="47.624367" lon="7.909092">
        <ele>380.279236</ele>
        <time>2021-11-22T02:11:20.298Z</time>
      </trkpt>
      <trkpt lat="47.624823" lon="7.909229">
        <ele>377.210188</ele>
        <time>2021-11-22T02:11:24.510Z</time>
      </trkpt>
      <trkpt lat="47.624962" lon="7.909272">
        <ele>375.954542</ele>
        <time>2021-11-22T02:11:25.740Z</time>
      </trkpt>
      <trkpt lat="47.625366" lon="7.909623">
        <ele>371.814429</ele>
        <time>2021-11-22T02:11:29.859Z</time>
      </trkpt>
      <trkpt lat="47.625586" lon="7.909712">
        <ele>369.797895</ele>
        <time>2021-11-22T02:11:31.846Z</time>
      </trkpt>
      <trkpt lat="47.625630" lon="7.909700">
        <ele>369.402273</ele>
        <time>2021-11-22T02:11:32.219Z</time>
      </trkpt>
      <trkpt lat="47.625660" lon="7.909693">
        <ele>369.133715</ele>
        <time>2021-11-22T02:11:32.474Z</time>
      </trkpt>
      <trkpt lat="47.625738" lon="7.909657">
        <ele>368.411340</ele>
        <time>2021-11-22T02:11:33.221Z</time>
      </trkpt>
      <trkpt lat="47.625820" lon="7.909530">
        <ele>367.363111</ele>
        <time>2021-11-22T02:11:34.257Z</time>
      </trkpt>
      <trkpt lat="47.625875" lon="7.909372">
        <ele>366.303229</ele>
        <time>2021-11-22T02:11:35.263Z</time>
      </trkpt>
      <trkpt lat="47.626074" lon="7.908682">
        <ele>362.005808</ele>
        <time>2021-11-22T02:11:39.632Z</time>
      </trkpt>
      <trkpt lat="47.626373" lon="7.908242">
        <ele>359.025067</ele>
        <time>2021-11-22T02:11:43.264Z</time>
      </trkpt>
      <trkpt lat="47.626436" lon="7.907974">
        <ele>357.671057</ele>
        <time>2021-11-22T02:11:44.891Z</time>
      </trkpt>
      <trkpt lat="47.626446" lon="7.907798">
        <ele>356.828485</ele>
        <time>2021-11-22T02:11:45.973Z</time>
      </trkpt>
      <trkpt lat="47.626442" lon="7.907543">
        <ele>355.611698</ele>
        <time>2021-11-22T02:11:47.462Z</time>
      </trkpt>
      <trkpt lat="47.626436" lon="7.907187">
        <ele>353.912898</ele>
        <time>2021-11-22T02:11:49.692Z</time>
      </trkpt>
      <trkpt lat="47.626436" lon="7.907061">
        <ele>353.311825</ele>
        <time>2021-11-22T02:11:50.516Z</time>
      </trkpt>
      <trkpt lat="47.626436" lon="7.906623">
        <ele>351.222381</ele>
        <time>2021-11-22T02:11:53.381Z</time>
      </trkpt>
      <trkpt lat="47.626439" lon="7.906299">
        <ele>349.968595</ele>
        <time>2021-11-22T02:11:55.535Z</time>
      </trkpt>
      <trkpt lat="47.626443" lon="7.905945">
        <ele>349.908236</ele>
        <time>2021-11-22T02:11:58.087Z</time>
      </trkpt>
      <trkpt lat="47.626460" lon="7.905124">
        <ele>349.768206</ele>
        <time>2021-11-22T02:12:04.993Z</time>
      </trkpt>
      <trkpt lat="47.626440" lon="7.905007">
        <ele>349.747628</ele>
        <time>2021-11-22T02:12:06.790Z</time>
      </trkpt>
      <trkpt lat="47.626399" lon="7.904961">
        <ele>349.734626</ele>
        <time>2021-11-22T02:12:07.590Z</time>
      </trkpt>
      <trkpt lat="47.626221" lon="7.904920">
        <ele>349.689061</ele>
        <time>2021-11-22T02:12:10.622Z</time>
      </trkpt>
      <trkpt lat="47.626086" lon="7.904879">
        <ele>349.654204</ele>
        <time>2021-11-22T02:12:13.810Z</time>
      </trkpt>
      <trkpt lat="47.625742" lon="7.904774">
        <ele>349.565366</ele>
        <time>2021-11-22T02:12:21.434Z</time>
      </trkpt>
      <trkpt lat="47.625516" lon="7.904701">
        <ele>349.558581</ele>
        <time>2021-11-22T02:12:26.066Z</time>
      </trkpt>
      <trkpt lat="47.625088" lon="7.904563">
        <ele>349.773663</ele>
        <time>2021-11-22T02:12:35.389Z</time>
      </trkpt>
      <trkpt lat="47.624956" lon="7.904522">
        <ele>349.839889</ele>
        <time>2021-11-22T02:12:38.145Z</time>
      </trkpt>
      <trkpt lat="47.624761" lon="7.904481">
        <ele>349.936604</ele>
        <time>2021-11-22T02:12:41.316Z</time>
      </trkpt>
      <trkpt lat="47.624565" lon="7.904455">
        <ele>350.033238</ele>
        <time>2021-11-22T02:12:44.375Z</time>
      </trkpt>
      <trkpt lat="47.624472" lon="7.904367">
        <ele>350.087404</ele>
        <time>2021-11-22T02:12:46.061Z</time>
      </trkpt>
      <trkpt lat="47.624451" lon="7.904332">
        <ele>350.102913</ele>
        <time>2021-11-22T02:12:46.582Z</time>
      </trkpt>
      <trkpt lat="47.624399" lon="7.904386">
        <ele>350.134082</ele>
        <time>2021-11-22T02:12:47.500Z</time>
      </trkpt>
      <trkpt lat="47.624263" lon="7.904484">
        <ele>350.208327</ele>
        <time>2021-11-22T02:12:49.722Z</time>
      </trkpt>
      <trkpt lat="47.624120" lon="7.904530">
        <ele>350.280181</ele>
        <time>2021-11-22T02:12:51.894Z</time>
      </trkpt>
      <trkpt lat="47.623650" lon="7.904642">
        <ele>350.169491</ele>
        <time>2021-11-22T02:12:58.172Z</time>
      </trkpt>
      <trkpt lat="47.622648" lon="7.904863">
        <ele>349.054111</ele>
        <time>2021-11-22T02:13:10.582Z</time>
      </trkpt>
      <trkpt lat="47.622424" lon="7.904919">
        <ele>348.803998</ele>
        <time>2021-11-22T02:13:13.189Z</time>
      </trkpt>
      <trkpt lat="47.622235" lon="7.904957">
        <ele>348.593997</ele>
        <time>2021-11-22T02:13:15.351Z</time>
      </trkpt>
      <trkpt lat="47.621248" lon="7.905159">
        <ele>346.677128</ele>
        <time>2021-11-22T02:13:26.465Z</time>
      </trkpt>
      <trkpt lat="47.621107" lon="7.905191">
        <ele>346.381672</ele>
        <time>2021-11-22T02:13:28.029Z</time>
      </trkpt>
      <trkpt lat="47.620699" lon="7.905223">
        <ele>345.535387</ele>
        <time>2021-11-22T02:13:32.457Z</time>
      </trkpt>
      <trkpt lat="47.620699" lon="7.905223">
        <ele>345.535387</ele>
        <time>2021-11-22T02:13:32.462Z</time>
      </trkpt>
      <trkpt lat="47.620555" lon="7.905234">
        <ele>345.236719</ele>
        <time>2021-11-22T02:13:34.199Z</time>
      </trkpt>
      <trkpt lat="47.620426" lon="7.905244">
        <ele>344.969152</ele>
        <time>2021-11-22T02:13:35.531Z</time>
      </trkpt>
      <trkpt lat="47.619447" lon="7.905300">
        <ele>342.019688</ele>
        <time>2021-11-22T02:13:45.660Z</time>
      </trkpt>
      <trkpt lat="47.619299" lon="7.905308">
        <ele>341.552726</ele>
        <time>2021-11-22T02:13:47.061Z</time>
      </trkpt>
      <trkpt lat="47.619155" lon="7.905319">
        <ele>341.098084</ele>
        <time>2021-11-22T02:13:48.630Z</time>
      </trkpt>
      <trkpt lat="47.618976" lon="7.905535">
        <ele>340.370559</ele>
        <time>2021-11-22T02:13:50.881Z</time>
      </trkpt>
      <trkpt lat="47.618920" lon="7.906208">
        <ele>338.929141</ele>
        <time>2021-11-22T02:13:55.575Z</time>
      </trkpt>
      <trkpt lat="47.618888" lon="7.906392">
        <ele>338.524455</ele>
        <time>2021-11-22T02:13:56.834Z</time>
      </trkpt>
      <trkpt lat="47.618867" lon="7.906514">
        <ele>338.256302</ele>
        <time>2021-11-22T02:13:57.619Z</time>
      </trkpt>
      <trkpt lat="47.618719" lon="7.906838">
        <ele>337.422785</ele>
        <time>2021-11-22T02:14:00.332Z</time>
      </trkpt>
      <trkpt lat="47.618579" lon="7.906988">
        <ele>336.877172</ele>
        <time>2021-11-22T02:14:01.991Z</time>
      </trkpt>
      <trkpt lat="47.618470" lon="7.907083">
        <ele>336.477763</ele>
        <time>2021-11-22T02:14:03.290Z</time>
      </trkpt>
      <trkpt lat="47.617957" lon="7.907285">
        <ele>334.800859</ele>
        <time>2021-11-22T02:14:08.599Z</time>
      </trkpt>
      <trkpt lat="47.617238" lon="7.908130">
        <ele>332.633322</ele>
        <time>2021-11-22T02:14:18.418Z</time>
      </trkpt>
      <trkpt lat="47.617086" lon="7.908230">
        <ele>332.373571</ele>
        <time>2021-11-22T02:14:20.308Z</time>
      </trkpt>
      <trkpt lat="47.616832" lon="7.908284">
        <ele>331.972729</ele>
        <time>2021-11-22T02:14:23.185Z</time>
      </trkpt>
      <trkpt lat="47.616604" lon="7.908203">
        <ele>331.606485</ele>
        <time>2021-11-22T02:14:25.811Z</time>
      </trkpt>
      <trkpt lat="47.616124" lon="7.907729">
        <ele>330.705710</ele>
        <time>2021-11-22T02:14:32.632Z</time>
      </trkpt>
      <trkpt lat="47.616009" lon="7.907686">
        <ele>330.542258</ele>
        <time>2021-11-22T02:14:34.195Z</time>
      </trkpt>
      <trkpt lat="47.615946" lon="7.907692">
        <ele>330.565972</ele>
        <time>2021-11-22T02:14:34.962Z</time>
      </trkpt>
      <trkpt lat="47.615821" lon="7.907747">
        <ele>330.614949</ele>
        <time>2021-11-22T02:14:37.040Z</time>
      </trkpt>
      <trkpt lat="47.615669" lon="7.907870">
        <ele>330.679989</ele>
        <time>2021-11-22T02:14:39.720Z</time>
      </trkpt>
      <trkpt lat="47.615460" lon="7.908111">
        <ele>330.779426</ele>
        <time>2021-11-22T02:14:44.091Z</time>
      </trkpt>
      <trkpt lat="47.615374" lon="7.908222">
        <ele>330.822247</ele>
        <time>2021-11-22T02:14:46.010Z</time>
      </trkpt>
      <trkpt lat="47.615246" lon="7.908385">
        <ele>330.885615</ele>
        <time>2021-11-22T02:14:49.033Z</time>
      </trkpt>
      <trkpt lat="47.615085" lon="7.908567">
        <ele>330.961651</ele>
        <time>2021-11-22T02:14:52.444Z</time>
      </trkpt>
      <trkpt lat="47.614876" lon="7.908760">
        <ele>331.054128</ele>
        <time>2021-11-22T02:14:56.762Z</time>
      </trkpt>
      <trkpt lat="47.614784" lon="7.908839">
        <ele>331.094059</ele>
        <time>2021-11-22T02:14:58.567Z</time>
      </trkpt>
      <trkpt lat="47.614412" lon="7.909095">
        <ele>331.327874</ele>
        <time>2021-11-22T02:15:05.837Z</time>
      </trkpt>
      <trkpt lat="47.614063" lon="7.909285">
        <ele>331.791070</ele>
        <time>2021-11-22T02:15:12.903Z</time>
      </trkpt>
      <trkpt lat="47.613934" lon="7.909339">
        <ele>331.958074</ele>
        <time>2021-11-22T02:15:15.472Z</time>
      </trkpt>
      <trkpt lat="47.613360" lon="7.909602">
        <ele>332.706588</ele>
        <time>2021-11-22T02:15:28.271Z</time>
      </trkpt>
      <trkpt lat="47.613280" lon="7.909624">
        <ele>332.807963</ele>
        <time>2021-11-22T02:15:29.963Z</time>
      </trkpt>
      <trkpt lat="47.612897" lon="7.909812">
        <ele>333.310610</ele>
        <time>2021-11-22T02:15:38.521Z</time>
      </trkpt>
      <trkpt lat="47.612460" lon="7.910019">
        <ele>333.658132</ele>
        <time>2021-11-22T02:15:47.232Z</time>
      </trkpt>
      <trkpt lat="47.612216" lon="7.910134">
        <ele>333.809939</ele>
        <time>2021-11-22T02:15:51.532Z</time>
      </trkpt>
      <trkpt lat="47.612131" lon="7.910214">
        <ele>333.869629</ele>
        <time>2021-11-22T02:15:53.412Z</time>
      </trkpt>
      <trkpt lat="47.612082" lon="7.910269">
        <ele>333.906064</ele>
        <time>2021-11-22T02:15:54.494Z</time>
      </trkpt>
      <trkpt lat="47.612020" lon="7.910364">
        <ele>333.958918</ele>
        <time>2021-11-22T02:15:56.057Z</time>
      </trkpt>
      <trkpt lat="47.611986" lon="7.910466">
        <ele>334.004403</ele>
        <time>2021-11-22T02:15:57.331Z</time>
      </trkpt>
      <trkpt lat="47.611981" lon="7.910534">
        <ele>334.031746</ele>
        <time>2021-11-22T02:15:57.958Z</time>
      </trkpt>
      <trkpt lat="47.611988" lon="7.910610">
        <ele>334.062409</ele>
        <time>2021-11-22T02:15:58.910Z</time>
      </trkpt>
      <trkpt lat="47.611994" lon="7.910676">
        <ele>334.089030</ele>
        <time>2021-11-22T02:15:59.833Z</time>
      </trkpt>
      <trkpt lat="47.612005" lon="7.910790">
        <ele>334.135064</ele>
        <time>2021-11-22T02:16:01.101Z</time>
      </trkpt>
      <trkpt lat="47.612029" lon="7.910940">
        <ele>334.196690</ele>
        <time>2021-11-22T02:16:02.994Z</time>
      </trkpt>
      <trkpt lat="47.611260" lon="7.911383">
        <ele>334.311866</ele>
        <time>2021-11-22T02:16:16.166Z</time>
      </trkpt>
      <trkpt lat="47.610416" lon="7.911983">
        <ele>333.606330</ele>
        <time>2021-11-22T02:16:28.079Z</time>
      </trkpt>
      <trkpt lat="47.610054" lon="7.912196">
        <ele>333.312754</ele>
        <time>2021-11-22T02:16:32.552Z</time>
      </trkpt>
      <trkpt lat="47.609914" lon="7.912278">
        <ele>333.199287</ele>
        <time>2021-11-22T02:16:34.280Z</time>
      </trkpt>
      <trkpt lat="47.608679" lon="7.912703">
        <ele>331.386004</ele>
        <time>2021-11-22T02:16:49.008Z</time>
      </trkpt>
      <trkpt lat="47.607663" lon="7.913198">
        <ele>329.944551</ele>
        <time>2021-11-22T02:17:01.332Z</time>
      </trkpt>
      <trkpt lat="47.607292" lon="7.913435">
        <ele>329.450650</ele>
        <time>2021-11-22T02:17:06.030Z</time>
      </trkpt>
      <trkpt lat="47.606938" lon="7.913697">
        <ele>328.966924</ele>
        <time>2021-11-22T02:17:10.805Z</time>
      </trkpt>
      <trkpt lat="47.606706" lon="7.913869">
        <ele>328.649798</ele>
        <time>2021-11-22T02:17:13.992Z</time>
      </trkpt>
      <trkpt lat="47.606558" lon="7.913988">
        <ele>328.443960</ele>
        <time>2021-11-22T02:17:16.083Z</time>
      </trkpt>
      <trkpt lat="47.606450" lon="7.914067">
        <ele>328.283382</ele>
        <time>2021-11-22T02:17:17.583Z</time>
      </trkpt>
      <trkpt lat="47.606200" lon="7.914255">
        <ele>327.852787</ele>
        <time>2021-11-22T02:17:20.997Z</time>
      </trkpt>
      <trkpt lat="47.605929" lon="7.914457">
        <ele>327.386857</ele>
        <time>2021-11-22T02:17:24.680Z</time>
      </trkpt>
      <trkpt lat="47.605648" lon="7.914613">
        <ele>326.925933</ele>
        <time>2021-11-22T02:17:28.244Z</time>
      </trkpt>
      <trkpt lat="47.605408" lon="7.914750">
        <ele>326.530879</ele>
        <time>2021-11-22T02:17:31.195Z</time>
      </trkpt>
      <trkpt lat="47.605105" lon="7.914869">
        <ele>326.049365</ele>
        <time>2021-11-22T02:17:34.765Z</time>
      </trkpt>
      <trkpt lat="47.604722" lon="7.914915">
        <ele>325.261209</ele>
        <time>2021-11-22T02:17:38.937Z</time>
      </trkpt>
      <trkpt lat="47.604393" lon="7.914885">
        <ele>323.963398</ele>
        <time>2021-11-22T02:17:42.355Z</time>
      </trkpt>
      <trkpt lat="47.604062" lon="7.914772">
        <ele>322.626079</ele>
        <time>2021-11-22T02:17:45.745Z</time>
      </trkpt>
      <trkpt lat="47.603884" lon="7.914671">
        <ele>321.875704</ele>
        <time>2021-11-22T02:17:47.533Z</time>
      </trkpt>
      <trkpt lat="47.603615" lon="7.914449">
        <ele>320.663646</ele>
        <time>2021-11-22T02:17:50.481Z</time>
      </trkpt>
      <trkpt lat="47.603373" lon="7.914188">
        <ele>319.485528</ele>
        <time>2021-11-22T02:17:53.324Z</time>
      </trkpt>
      <trkpt lat="47.603038" lon="7.913754">
        <ele>317.690256</ele>
        <time>2021-11-22T02:17:57.516Z</time>
      </trkpt>
      <trkpt lat="47.602861" lon="7.913538">
        <ele>316.736262</ele>
        <time>2021-11-22T02:17:59.720Z</time>
      </trkpt>
      <trkpt lat="47.602742" lon="7.913448">
        <ele>316.180307</ele>
        <time>2021-11-22T02:18:00.956Z</time>
      </trkpt>
      <trkpt lat="47.602118" lon="7.913280">
        <ele>313.540791</ele>
        <time>2021-11-22T02:18:07.011Z</time>
      </trkpt>
      <trkpt lat="47.600086" lon="7.913316">
        <ele>307.017768</ele>
        <time>2021-11-22T02:18:27.824Z</time>
      </trkpt>
      <trkpt lat="47.599361" lon="7.913211">
        <ele>305.303302</ele>
        <time>2021-11-22T02:18:35.673Z</time>
      </trkpt>
      <trkpt lat="47.598263" lon="7.912768">
        <ele>303.163410</ele>
        <time>2021-11-22T02:18:48.309Z</time>
      </trkpt>
      <trkpt lat="47.597324" lon="7.912182">
        <ele>301.681484</ele>
        <time>2021-11-22T02:19:00.117Z</time>
      </trkpt>
      <trkpt lat="47.596928" lon="7.912047">
        <ele>301.164351</ele>
        <time>2021-11-22T02:19:04.943Z</time>
      </trkpt>
      <trkpt lat="47.596657" lon="7.912027">
        <ele>300.819024</ele>
        <time>2021-11-22T02:19:08.213Z</time>
      </trkpt>
      <trkpt lat="47.596383" lon="7.912050">
        <ele>300.469747</ele>
        <time>2021-11-22T02:19:11.542Z</time>
      </trkpt>
      <trkpt lat="47.595919" lon="7.912182">
        <ele>300.104098</ele>
        <time>2021-11-22T02:19:17.361Z</time>
      </trkpt>
      <trkpt lat="47.595049" lon="7.912419">
        <ele>299.591862</ele>
        <time>2021-11-22T02:19:28.648Z</time>
      </trkpt>
      <trkpt lat="47.594246" lon="7.912426">
        <ele>299.366269</ele>
        <time>2021-11-22T02:19:39.771Z</time>
      </trkpt>
      <trkpt lat="47.593192" lon="7.912179">
        <ele>299.865569</ele>
        <time>2021-11-22T02:19:57.658Z</time>
      </trkpt>
      <trkpt lat="47.592198" lon="7.912030">
        <ele>300.109883</ele>
        <time>2021-11-22T02:20:16.575Z</time>
      </trkpt>
      <trkpt lat="47.591524" lon="7.911777">
        <ele>300.122503</ele>
        <time>2021-11-22T02:20:27.873Z</time>
      </trkpt>
      <trkpt lat="47.591361" lon="7.911643">
        <ele>300.125886</ele>
        <time>2021-11-22T02:20:31.235Z</time>
      </trkpt>
      <trkpt lat="47.591227" lon="7.911486">
        <ele>300.128986</ele>
        <time>2021-11-22T02:20:33.244Z</time>
      </trkpt>
      <trkpt lat="47.590486" lon="7.910371">
        <ele>298.420901</ele>
        <time>2021-11-22T02:20:44.970Z</time>
      </trkpt>
      <trkpt lat="47.590199" lon="7.910097">
        <ele>297.695306</ele>
        <time>2021-11-22T02:20:48.551Z</time>
      </trkpt>
      <trkpt lat="47.589984" lon="7.909953">
        <ele>297.193821</ele>
        <time>2021-11-22T02:20:51.041Z</time>
      </trkpt>
      <trkpt lat="47.589984" lon="7.909953">
        <ele>297.193821</ele>
        <time>2021-11-22T02:20:51.053Z</time>
      </trkpt>
      <trkpt lat="47.589846" lon="7.909880">
        <ele>296.882367</ele>
        <time>2021-11-22T02:20:52.644Z</time>
      </trkpt>
      <trkpt lat="47.589453" lon="7.909790">
        <ele>296.108222</ele>
        <time>2021-11-22T02:20:56.868Z</time>
      </trkpt>
      <trkpt lat="47.589186" lon="7.909798">
        <ele>295.688449</ele>
        <time>2021-11-22T02:20:59.705Z</time>
      </trkpt>
      <trkpt lat="47.588985" lon="7.909827">
        <ele>295.371012</ele>
        <time>2021-11-22T02:21:01.991Z</time>
      </trkpt>
      <trkpt lat="47.587926" lon="7.910125">
        <ele>293.676693</ele>
        <time>2021-11-22T02:21:14.498Z</time>
      </trkpt>
      <trkpt lat="47.587479" lon="7.910228">
        <ele>293.204069</ele>
        <time>2021-11-22T02:21:20.556Z</time>
      </trkpt>
      <trkpt lat="47.587167" lon="7.910236">
        <ele>292.939646</ele>
        <time>2021-11-22T02:21:24.670Z</time>
      </trkpt>
      <trkpt lat="47.586813" lon="7.910134">
        <ele>292.634060</ele>
        <time>2021-11-22T02:21:29.104Z</time>
      </trkpt>
      <trkpt lat="47.586540" lon="7.909941">
        <ele>292.377771</ele>
        <time>2021-11-22T02:21:32.791Z</time>
      </trkpt>
      <trkpt lat="47.586265" lon="7.909589">
        <ele>292.069911</ele>
        <time>2021-11-22T02:21:37.170Z</time>
      </trkpt>
      <trkpt lat="47.586062" lon="7.909215">
        <ele>291.919088</ele>
        <time>2021-11-22T02:21:41.247Z</time>
      </trkpt>
      <trkpt lat="47.585956" lon="7.908983">
        <ele>291.880124</ele>
        <time>2021-11-22T02:21:43.691Z</time>
      </trkpt>
      <trkpt lat="47.585899" lon="7.908777">
        <ele>291.849164</ele>
        <time>2021-11-22T02:21:45.745Z</time>
      </trkpt>
      <trkpt lat="47.585750" lon="7.908439">
        <ele>291.793017</ele>
        <time>2021-11-22T02:21:49.350Z</time>
      </trkpt>
      <trkpt lat="47.585760" lon="7.908367">
        <ele>291.782795</ele>
        <time>2021-11-22T02:21:50.064Z</time>
      </trkpt>
      <trkpt lat="47.585751" lon="7.908295">
        <ele>291.772613</ele>
        <time>2021-11-22T02:21:50.842Z</time>
      </trkpt>
      <trkpt lat="47.585761" lon="7.908160">
        <ele>291.753729</ele>
        <time>2021-11-22T02:21:52.626Z</time>
      </trkpt>
      <trkpt lat="47.585759" lon="7.908093">
        <ele>291.744403</ele>
        <time>2021-11-22T02:21:53.420Z</time>
      </trkpt>
      <trkpt lat="47.585745" lon="7.907994">
        <ele>291.730338</ele>
        <time>2021-11-22T02:21:54.731Z</time>
      </trkpt>
      <trkpt lat="47.585709" lon="7.907887">
        <ele>291.713711</ele>
        <time>2021-11-22T02:21:56.276Z</time>
      </trkpt>
      <trkpt lat="47.585496" lon="7.906982">
        <ele>291.630989</ele>
        <time>2021-11-22T02:22:06.417Z</time>
      </trkpt>
      <trkpt lat="47.585477" lon="7.906769">
        <ele>291.800394</ele>
        <time>2021-11-22T02:22:08.962Z</time>
      </trkpt>
      <trkpt lat="47.585522" lon="7.905992">
        <ele>292.415287</ele>
        <time>2021-11-22T02:22:19.146Z</time>
      </trkpt>
      <trkpt lat="47.585585" lon="7.905551">
        <ele>292.770714</ele>
        <time>2021-11-22T02:22:25.477Z</time>
      </trkpt>
      <trkpt lat="47.585693" lon="7.905272">
        <ele>293.024350</ele>
        <time>2021-11-22T02:22:30.078Z</time>
      </trkpt>
      <trkpt lat="47.585762" lon="7.905099">
        <ele>293.182818</ele>
        <time>2021-11-22T02:22:32.905Z</time>
      </trkpt>
      <trkpt lat="47.585958" lon="7.904606">
        <ele>293.634030</ele>
        <time>2021-11-22T02:22:40.867Z</time>
      </trkpt>
      <trkpt lat="47.586407" lon="7.903407">
        <ele>294.614374</ele>
        <time>2021-11-22T02:22:58.802Z</time>
      </trkpt>
      <trkpt lat="47.586847" lon="7.902221">
        <ele>295.576465</ele>
        <time>2021-11-22T02:23:15.806Z</time>
      </trkpt>
      <trkpt lat="47.587029" lon="7.901746">
        <ele>295.870416</ele>
        <time>2021-11-22T02:23:22.419Z</time>
      </trkpt>
      <trkpt lat="47.587506" lon="7.900489">
        <ele>296.640183</ele>
        <time>2021-11-22T02:23:39.451Z</time>
      </trkpt>
      <trkpt lat="47.587961" lon="7.899254">
        <ele>297.479495</ele>
        <time>2021-11-22T02:23:56.892Z</time>
      </trkpt>
      <trkpt lat="47.588436" lon="7.898021">
        <ele>298.412466</ele>
        <time>2021-11-22T02:24:14.960Z</time>
      </trkpt>
      <trkpt lat="47.588506" lon="7.897839">
        <ele>298.550124</ele>
        <time>2021-11-22T02:24:17.433Z</time>
      </trkpt>
      <trkpt lat="47.588808" lon="7.897009">
        <ele>299.136420</ele>
        <time>2021-11-22T02:24:29.717Z</time>
      </trkpt>
      <trkpt lat="47.589118" lon="7.896174">
        <ele>299.711523</ele>
        <time>2021-11-22T02:24:42.114Z</time>
      </trkpt>
      <trkpt lat="47.589590" lon="7.894990">
        <ele>300.370681</ele>
        <time>2021-11-22T02:24:58.536Z</time>
      </trkpt>
      <trkpt lat="47.589932" lon="7.894260">
        <ele>300.370855</ele>
        <time>2021-11-22T02:25:08.101Z</time>
      </trkpt>
      <trkpt lat="47.589960" lon="7.894201">
        <ele>300.370869</ele>
        <time>2021-11-22T02:25:08.793Z</time>
      </trkpt>
      <trkpt lat="47.590704" lon="7.892594">
        <ele>300.080927</ele>
        <time>2021-11-22T02:25:26.890Z</time>
      </trkpt>
      <trkpt lat="47.591003" lon="7.891941">
        <ele>299.645680</ele>
        <time>2021-11-22T02:25:33.563Z</time>
      </trkpt>
      <trkpt lat="47.591247" lon="7.891264">
        <ele>299.222386</ele>
        <time>2021-11-22T02:25:40.056Z</time>
      </trkpt>
      <trkpt lat="47.591381" lon="7.890797">
        <ele>298.942522</ele>
        <time>2021-11-22T02:25:44.087Z</time>
      </trkpt>
      <trkpt lat="47.591692" lon="7.889232">
        <ele>297.607318</ele>
        <time>2021-11-22T02:25:56.975Z</time>
      </trkpt>
      <trkpt lat="47.591728" lon="7.889070">
        <ele>297.465496</ele>
        <time>2021-11-22T02:25:58.285Z</time>
      </trkpt>
      <trkpt lat="47.591763" lon="7.888925">
        <ele>297.337444</ele>
        <time>2021-11-22T02:25:59.492Z</time>
      </trkpt>
      <trkpt lat="47.591866" lon="7.888529">
        <ele>296.984546</ele>
        <time>2021-11-22T02:26:02.874Z</time>
      </trkpt>
      <trkpt lat="47.592202" lon="7.887383">
        <ele>296.294114</ele>
        <time>2021-11-22T02:26:13.344Z</time>
      </trkpt>
      <trkpt lat="47.592409" lon="7.886663">
        <ele>295.950958</ele>
        <time>2021-11-22T02:26:20.705Z</time>
      </trkpt>
      <trkpt lat="47.592409" lon="7.886663">
        <ele>295.950958</ele>
        <time>2021-11-22T02:26:20.707Z</time>
      </trkpt>
      <trkpt lat="47.592651" lon="7.885826">
        <ele>295.551693</ele>
        <time>2021-11-22T02:26:28.999Z</time>
      </trkpt>
      <trkpt lat="47.592802" lon="7.885426">
        <ele>295.265339</ele>
        <time>2021-11-22T02:26:32.804Z</time>
      </trkpt>
      <trkpt lat="47.593166" lon="7.884637">
        <ele>294.626617</ele>
        <time>2021-11-22T02:26:40.615Z</time>
      </trkpt>
      <trkpt lat="47.593037" lon="7.884537">
        <ele>294.482399</ele>
        <time>2021-11-22T02:26:42.440Z</time>
      </trkpt>
      <trkpt lat="47.592977" lon="7.884463">
        <ele>294.405079</ele>
        <time>2021-11-22T02:26:43.318Z</time>
      </trkpt>
      <trkpt lat="47.592959" lon="7.884237">
        <ele>294.253027</ele>
        <time>2021-11-22T02:26:45.227Z</time>
      </trkpt>
      <trkpt lat="47.592917" lon="7.883969">
        <ele>294.069191</ele>
        <time>2021-11-22T02:26:47.491Z</time>
      </trkpt>
      <trkpt lat="47.592842" lon="7.883686">
        <ele>293.866027</ele>
        <time>2021-11-22T02:26:49.990Z</time>
      </trkpt>
      <trkpt lat="47.592487" lon="7.882778">
        <ele>293.126343</ele>
        <time>2021-11-22T02:26:58.513Z</time>
      </trkpt>
      <trkpt lat="47.592493" lon="7.882622">
        <ele>293.014865</ele>
        <time>2021-11-22T02:26:59.787Z</time>
      </trkpt>
      <trkpt lat="47.592531" lon="7.882114">
        <ele>292.650215</ele>
        <time>2021-11-22T02:27:03.841Z</time>
      </trkpt>
      <trkpt lat="47.592592" lon="7.881680">
        <ele>292.333929</ele>
        <time>2021-11-22T02:27:07.568Z</time>
      </trkpt>
      <trkpt lat="47.592680" lon="7.881162">
        <ele>291.952822</ele>
        <time>2021-11-22T02:27:12.130Z</time>
      </trkpt>
      <trkpt lat="47.592855" lon="7.880299">
        <ele>290.991684</ele>
        <time>2021-11-22T02:27:19.510Z</time>
      </trkpt>
      <trkpt lat="47.592558" lon="7.880084">
        <ele>290.427672</ele>
        <time>2021-11-22T02:27:23.265Z</time>
      </trkpt>
      <trkpt lat="47.592176" lon="7.879859">
        <ele>289.726233</ele>
        <time>2021-11-22T02:27:27.828Z</time>
      </trkpt>
      <trkpt lat="47.591747" lon="7.879696">
        <ele>288.970482</ele>
        <time>2021-11-22T02:27:32.594Z</time>
      </trkpt>
      <trkpt lat="47.591433" lon="7.879589">
        <ele>288.356748</ele>
        <time>2021-11-22T02:27:36.027Z</time>
      </trkpt>
      <trkpt lat="47.591348" lon="7.879568">
        <ele>288.181950</ele>
        <time>2021-11-22T02:27:36.942Z</time>
      </trkpt>
      <trkpt lat="47.591318" lon="7.879563">
        <ele>288.120713</ele>
        <time>2021-11-22T02:27:37.268Z</time>
      </trkpt>
      <trkpt lat="47.591234" lon="7.879550">
        <ele>287.949395</ele>
        <time>2021-11-22T02:27:38.152Z</time>
      </trkpt>
      <trkpt lat="47.591201" lon="7.878391">
        <ele>286.362427</ele>
        <time>2021-11-22T02:27:46.588Z</time>
      </trkpt>
      <trkpt lat="47.591165" lon="7.877839">
        <ele>285.603748</ele>
        <time>2021-11-22T02:27:50.692Z</time>
      </trkpt>
      <trkpt lat="47.591021" lon="7.877714">
        <ele>285.265272</ele>
        <time>2021-11-22T02:27:52.608Z</time>
      </trkpt>
      <trkpt lat="47.590631" lon="7.877615">
        <ele>284.777548</ele>
        <time>2021-11-22T02:27:57.303Z</time>
      </trkpt>
      <trkpt lat="47.590500" lon="7.877526">
        <ele>284.627227</ele>
        <time>2021-11-22T02:27:58.982Z</time>
      </trkpt>
      <trkpt lat="47.590479" lon="7.877434">
        <ele>284.558893</ele>
        <time>2021-11-22T02:27:59.755Z</time>
      </trkpt>
      <trkpt lat="47.590532" lon="7.877177">
        <ele>284.369815</ele>
        <time>2021-11-22T02:28:02.061Z</time>
      </trkpt>
      <trkpt lat="47.590592" lon="7.876946">
        <ele>284.195657</ele>
        <time>2021-11-22T02:28:04.017Z</time>
      </trkpt>
      <trkpt lat="47.590643" lon="7.876593">
        <ele>283.941667</ele>
        <time>2021-11-22T02:28:07.087Z</time>
      </trkpt>
      <trkpt lat="47.590771" lon="7.875667">
        <ele>283.276633</ele>
        <time>2021-11-22T02:28:15.116Z</time>
      </trkpt>
      <trkpt lat="47.590851" lon="7.875195">
        <ele>283.078225</ele>
        <time>2021-11-22T02:28:19.284Z</time>
      </trkpt>
      <trkpt lat="47.591067" lon="7.874101">
        <ele>282.660689</ele>
        <time>2021-11-22T02:28:29.614Z</time>
      </trkpt>
      <trkpt lat="47.591105" lon="7.873760">
        <ele>282.534092</ele>
        <time>2021-11-22T02:28:32.802Z</time>
      </trkpt>
      <trkpt lat="47.591074" lon="7.872343">
        <ele>281.932770</ele>
        <time>2021-11-22T02:28:45.291Z</time>
      </trkpt>
      <trkpt lat="47.590993" lon="7.871168">
        <ele>281.354082</ele>
        <time>2021-11-22T02:28:55.228Z</time>
      </trkpt>
      <trkpt lat="47.590885" lon="7.870375">
        <ele>280.957710</ele>
        <time>2021-11-22T02:29:02.047Z</time>
      </trkpt>
      <trkpt lat="47.590882" lon="7.870356">
        <ele>280.950149</ele>
        <time>2021-11-22T02:29:02.229Z</time>
      </trkpt>
      <trkpt lat="47.590872" lon="7.870300">
        <ele>280.941156</ele>
        <time>2021-11-22T02:29:02.814Z</time>
      </trkpt>
      <trkpt lat="47.590870" lon="7.870288">
        <ele>280.939237</ele>
        <time>2021-11-22T02:29:02.961Z</time>
      </trkpt>
      <trkpt lat="47.590773" lon="7.869984">
        <ele>280.887030</ele>
        <time>2021-11-22T02:29:05.860Z</time>
      </trkpt>
      <trkpt lat="47.590705" lon="7.869768">
        <ele>280.850025</ele>
        <time>2021-11-22T02:29:08.079Z</time>
      </trkpt>
      <trkpt lat="47.590470" lon="7.869069">
        <ele>280.728780</ele>
        <time>2021-11-22T02:29:15.111Z</time>
      </trkpt>
      <trkpt lat="47.590421" lon="7.868927">
        <ele>280.704018</ele>
        <time>2021-11-22T02:29:16.578Z</time>
      </trkpt>
      <trkpt lat="47.590348" lon="7.868680">
        <ele>280.662154</ele>
        <time>2021-11-22T02:29:19.452Z</time>
      </trkpt>
      <trkpt lat="47.590292" lon="7.868520">
        <ele>280.634171</ele>
        <time>2021-11-22T02:29:21.080Z</time>
      </trkpt>
      <trkpt lat="47.590365" lon="7.868441">
        <ele>280.613368</ele>
        <time>2021-11-22T02:29:22.470Z</time>
      </trkpt>
      <trkpt lat="47.590348" lon="7.868400">
        <ele>280.605897</ele>
        <time>2021-11-22T02:29:23.135Z</time>
      </trkpt>
      <trkpt lat="47.590333" lon="7.867008">
        <ele>280.742852</ele>
        <time>2021-11-22T02:29:38.128Z</time>
      </trkpt>
      <trkpt lat="47.590274" lon="7.866644">
        <ele>280.824048</ele>
        <time>2021-11-22T02:29:42.626Z</time>
      </trkpt>
      <trkpt lat="47.590266" lon="7.866595">
        <ele>280.834982</ele>
        <time>2021-11-22T02:29:43.163Z</time>
      </trkpt>
      <trkpt lat="47.590251" lon="7.866509">
        <ele>280.854248</ele>
        <time>2021-11-22T02:29:44.041Z</time>
      </trkpt>
      <trkpt lat="47.589823" lon="7.864422">
        <ele>281.144505</ele>
        <time>2021-11-22T02:30:07.312Z</time>
      </trkpt>
      <trkpt lat="47.589471" lon="7.862994">
        <ele>281.189662</ele>
        <time>2021-11-22T02:30:22.058Z</time>
      </trkpt>
      <trkpt lat="47.587447" lon="7.853842">
        <ele>280.837803</ele>
        <time>2021-11-22T02:31:56.706Z</time>
      </trkpt>
      <trkpt lat="47.587300" lon="7.853345">
        <ele>280.860811</ele>
        <time>2021-11-22T02:32:02.276Z</time>
      </trkpt>
      <trkpt lat="47.586757" lon="7.850579">
        <ele>281.278579</ele>
        <time>2021-11-22T02:32:33.032Z</time>
      </trkpt>
      <trkpt lat="47.586522" lon="7.848600">
        <ele>281.703032</ele>
        <time>2021-11-22T02:32:55.183Z</time>
      </trkpt>
      <trkpt lat="47.586484" lon="7.848370">
        <ele>281.755471</ele>
        <time>2021-11-22T02:32:57.833Z</time>
      </trkpt>
      <trkpt lat="47.586486" lon="7.847936">
        <ele>281.851583</ele>
        <time>2021-11-22T02:33:02.543Z</time>
      </trkpt>
      <trkpt lat="47.586452" lon="7.845634">
        <ele>282.060601</ele>
        <time>2021-11-22T02:33:26.800Z</time>
      </trkpt>
      <trkpt lat="47.586790" lon="7.842637">
        <ele>281.862933</ele>
        <time>2021-11-22T02:33:56.094Z</time>
      </trkpt>
      <trkpt lat="47.586802" lon="7.842180">
        <ele>281.809961</ele>
        <time>2021-11-22T02:34:00.370Z</time>
      </trkpt>
      <trkpt lat="47.586809" lon="7.842018">
        <ele>281.777160</ele>
        <time>2021-11-22T02:34:01.873Z</time>
      </trkpt>
      <trkpt lat="47.586920" lon="7.841604">
        <ele>281.687141</ele>
        <time>2021-11-22T02:34:06.045Z</time>
      </trkpt>
      <trkpt lat="47.587628" lon="7.835942">
        <ele>280.496782</ele>
        <time>2021-11-22T02:34:59.455Z</time>
      </trkpt>
      <trkpt lat="47.587848" lon="7.834235">
        <ele>280.168390</ele>
        <time>2021-11-22T02:35:15.313Z</time>
      </trkpt>
      <trkpt lat="47.586496" lon="7.833050">
        <ele>280.347370</ele>
        <time>2021-11-22T02:35:37.680Z</time>
      </trkpt>
      <trkpt lat="47.586276" lon="7.833601">
        <ele>281.139973</ele>
        <time>2021-11-22T02:35:45.933Z</time>
      </trkpt>
      <trkpt lat="47.585278" lon="7.832688">
        <ele>284.238844</ele>
        <time>2021-11-22T02:36:17.385Z</time>
      </trkpt>
      <trkpt lat="47.585247" lon="7.832651">
        <ele>284.344009</ele>
        <time>2021-11-22T02:36:18.686Z</time>
      </trkpt>
      <trkpt lat="47.585195" lon="7.832588">
        <ele>284.521464</ele>
        <time>2021-11-22T02:36:20.867Z</time>
      </trkpt>
      <trkpt lat="47.585027" lon="7.832425">
        <ele>285.052020</ele>
        <time>2021-11-22T02:36:26.290Z</time>
      </trkpt>
      <trkpt lat="47.584717" lon="7.832264">
        <ele>286.412700</ele>
        <time>2021-11-22T02:36:35.955Z</time>
      </trkpt>
      <trkpt lat="47.584540" lon="7.832255">
        <ele>287.167497</ele>
        <time>2021-11-22T02:36:41.555Z</time>
      </trkpt>
      <trkpt lat="47.584427" lon="7.832250">
        <ele>287.649305</ele>
        <time>2021-11-22T02:36:44.870Z</time>
      </trkpt>
      <trkpt lat="47.584367" lon="7.832247">
        <ele>287.905163</ele>
        <time>2021-11-22T02:36:47.057Z</time>
      </trkpt>
      <trkpt lat="47.584156" lon="7.832334">
        <ele>288.838551</ele>
        <time>2021-11-22T02:36:54.728Z</time>
      </trkpt>
      <trkpt lat="47.584029" lon="7.832543">
        <ele>289.647210</ele>
        <time>2021-11-22T02:37:01.499Z</time>
      </trkpt>
      <trkpt lat="47.583849" lon="7.832883">
        <ele>290.889707</ele>
        <time>2021-11-22T02:37:11.850Z</time>
      </trkpt>
      <trkpt lat="47.583696" lon="7.833171">
        <ele>291.943571</ele>
        <time>2021-11-22T02:37:20.549Z</time>
      </trkpt>
      <trkpt lat="47.583523" lon="7.833509">
        <ele>293.000879</ele>
        <time>2021-11-22T02:37:29.052Z</time>
      </trkpt>
      <trkpt lat="47.583401" lon="7.833658">
        <ele>293.387865</ele>
        <time>2021-11-22T02:37:32.832Z</time>
      </trkpt>
      <trkpt lat="47.583327" lon="7.833750">
        <ele>293.624308</ele>
        <time>2021-11-22T02:37:36.053Z</time>
      </trkpt>
      <trkpt lat="47.583163" lon="7.833942">
        <ele>294.135919</ele>
        <time>2021-11-22T02:37:41.545Z</time>
      </trkpt>
      <trkpt lat="47.582828" lon="7.834117">
        <ele>295.005512</ele>
        <time>2021-11-22T02:37:49.992Z</time>
      </trkpt>
      <trkpt lat="47.580816" lon="7.834599">
        <ele>298.388845</ele>
        <time>2021-11-22T02:38:33.872Z</time>
      </trkpt>
      <trkpt lat="47.580667" lon="7.834627">
        <ele>298.546347</ele>
        <time>2021-11-22T02:38:36.254Z</time>
      </trkpt>
      <trkpt lat="47.579073" lon="7.834987">
        <ele>298.490436</ele>
        <time>2021-11-22T02:39:00.215Z</time>
      </trkpt>
      <trkpt lat="47.576219" lon="7.835650">
        <ele>295.417592</ele>
        <time>2021-11-22T02:39:33.875Z</time>
      </trkpt>
      <trkpt lat="47.575959" lon="7.835718">
        <ele>295.241884</ele>
        <time>2021-11-22T02:39:37.030Z</time>
      </trkpt>
      <trkpt lat="47.575033" lon="7.835907">
        <ele>294.619798</ele>
        <time>2021-11-22T02:39:49.484Z</time>
      </trkpt>
      <trkpt lat="47.574568" lon="7.836025">
        <ele>294.580272</ele>
        <time>2021-11-22T02:39:56.470Z</time>
      </trkpt>
      <trkpt lat="47.574158" lon="7.836106">
        <ele>294.717529</ele>
        <time>2021-11-22T02:40:03.143Z</time>
      </trkpt>
      <trkpt lat="47.573815" lon="7.836215">
        <ele>294.833936</ele>
        <time>2021-11-22T02:40:10.822Z</time>
      </trkpt>
      <trkpt lat="47.573348" lon="7.836386">
        <ele>294.993564</ele>
        <time>2021-11-22T02:40:21.674Z</time>
      </trkpt>
      <trkpt lat="47.572760" lon="7.836606">
        <ele>295.278564</ele>
        <time>2021-11-22T02:40:35.285Z</time>
      </trkpt>
      <trkpt lat="47.572296" lon="7.836777">
        <ele>295.559163</ele>
        <time>2021-11-22T02:40:45.711Z</time>
      </trkpt>
      <trkpt lat="47.572139" lon="7.836834">
        <ele>295.654025</ele>
        <time>2021-11-22T02:40:49.197Z</time>
      </trkpt>
      <trkpt lat="47.571871" lon="7.836932">
        <ele>295.816021</ele>
        <time>2021-11-22T02:40:55.234Z</time>
      </trkpt>
      <trkpt lat="47.571771" lon="7.836971">
        <ele>295.876706</ele>
        <time>2021-11-22T02:40:57.470Z</time>
      </trkpt>
      <trkpt lat="47.571254" lon="7.837161">
        <ele>296.247715</ele>
        <time>2021-11-22T02:41:09.921Z</time>
      </trkpt>
      <trkpt lat="47.570985" lon="7.837265">
        <ele>296.609750</ele>
        <time>2021-11-22T02:41:16.874Z</time>
      </trkpt>
      <trkpt lat="47.570872" lon="7.837307">
        <ele>296.761464</ele>
        <time>2021-11-22T02:41:19.891Z</time>
      </trkpt>
      <trkpt lat="47.570298" lon="7.837528">
        <ele>297.533782</ele>
        <time>2021-11-22T02:41:35.212Z</time>
      </trkpt>
      <trkpt lat="47.570038" lon="7.837643">
        <ele>297.887130</ele>
        <time>2021-11-22T02:41:42.336Z</time>
      </trkpt>
      <trkpt lat="47.569907" lon="7.837696">
        <ele>298.063970</ele>
        <time>2021-11-22T02:41:45.857Z</time>
      </trkpt>
      <trkpt lat="47.569814" lon="7.837733">
        <ele>298.189370</ele>
        <time>2021-11-22T02:41:48.419Z</time>
      </trkpt>
      <trkpt lat="47.569665" lon="7.837789">
        <ele>298.389551</ele>
        <time>2021-11-22T02:41:52.382Z</time>
      </trkpt>
      <trkpt lat="47.569522" lon="7.837844">
        <ele>298.578518</ele>
        <time>2021-11-22T02:41:56.237Z</time>
      </trkpt>
      <trkpt lat="47.569310" lon="7.837922">
        <ele>298.853055</ele>
        <time>2021-11-22T02:42:01.984Z</time>
      </trkpt>
      <trkpt lat="47.568988" lon="7.838054">
        <ele>299.272952</ele>
        <time>2021-11-22T02:42:10.761Z</time>
      </trkpt>
      <trkpt lat="47.568420" lon="7.838300">
        <ele>300.016693</ele>
        <time>2021-11-22T02:42:26.020Z</time>
      </trkpt>
      <trkpt lat="47.568160" lon="7.838415">
        <ele>300.357712</ele>
        <time>2021-11-22T02:42:32.775Z</time>
      </trkpt>
      <trkpt lat="47.568042" lon="7.838436">
        <ele>300.507085</ele>
        <time>2021-11-22T02:42:35.528Z</time>
      </trkpt>
      <trkpt lat="47.567936" lon="7.838380">
        <ele>300.648521</ele>
        <time>2021-11-22T02:42:38.342Z</time>
      </trkpt>
      <trkpt lat="47.567936" lon="7.838380">
        <ele>300.648521</ele>
        <time>2021-11-22T02:42:38.346Z</time>
      </trkpt>
      <trkpt lat="47.567936" lon="7.838380">
        <ele>300.648521</ele>
        <time>2021-11-22T02:42:38.354Z</time>
      </trkpt>
      <trkpt lat="47.567880" lon="7.838522">
        <ele>300.770250</ele>
        <time>2021-11-22T02:42:40.167Z</time>
      </trkpt>
      <trkpt lat="47.567846" lon="7.838609">
        <ele>300.820851</ele>
        <time>2021-11-22T02:42:41.233Z</time>
      </trkpt>
      <trkpt lat="47.567823" lon="7.838648">
        <ele>300.846921</ele>
        <time>2021-11-22T02:42:41.851Z</time>
      </trkpt>
      <trkpt lat="47.567634" lon="7.839037">
        <ele>301.088180</ele>
        <time>2021-11-22T02:42:47.306Z</time>
      </trkpt>
      <trkpt lat="47.567626" lon="7.839064">
        <ele>301.103022</ele>
        <time>2021-11-22T02:42:47.698Z</time>
      </trkpt>
      <trkpt lat="47.567564" lon="7.839283">
        <ele>301.222553</ele>
        <time>2021-11-22T02:42:50.580Z</time>
      </trkpt>
      <trkpt lat="47.567530" lon="7.839459">
        <ele>301.314692</ele>
        <time>2021-11-22T02:42:52.682Z</time>
      </trkpt>
      <trkpt lat="47.567510" lon="7.839548">
        <ele>301.361904</ele>
        <time>2021-11-22T02:42:53.740Z</time>
      </trkpt>
      <trkpt lat="47.567481" lon="7.839664">
        <ele>301.424165</ele>
        <time>2021-11-22T02:42:54.990Z</time>
      </trkpt>
      <trkpt lat="47.567406" lon="7.839778">
        <ele>301.504302</ele>
        <time>2021-11-22T02:42:57.315Z</time>
      </trkpt>
      <trkpt lat="47.567111" lon="7.839998">
        <ele>301.750639</ele>
        <time>2021-11-22T02:43:03.241Z</time>
      </trkpt>
      <trkpt lat="47.566826" lon="7.840179">
        <ele>301.981926</ele>
        <time>2021-11-22T02:43:08.599Z</time>
      </trkpt>
      <trkpt lat="47.566592" lon="7.840279">
        <ele>302.197856</ele>
        <time>2021-11-22T02:43:13.267Z</time>
      </trkpt>
      <trkpt lat="47.566515" lon="7.840312">
        <ele>302.284058</ele>
        <time>2021-11-22T02:43:14.469Z</time>
      </trkpt>
      <trkpt lat="47.566450" lon="7.840326">
        <ele>302.354695</ele>
        <time>2021-11-22T02:43:15.852Z</time>
      </trkpt>
      <trkpt lat="47.566350" lon="7.840350">
        <ele>302.463640</ele>
        <time>2021-11-22T02:43:17.825Z</time>
      </trkpt>
      <trkpt lat="47.566221" lon="7.840340">
        <ele>302.602560</ele>
        <time>2021-11-22T02:43:20.018Z</time>
      </trkpt>
      <trkpt lat="47.566142" lon="7.840322">
        <ele>302.688518</ele>
        <time>2021-11-22T02:43:21.190Z</time>
      </trkpt>
      <trkpt lat="47.566081" lon="7.840309">
        <ele>302.754794</ele>
        <time>2021-11-22T02:43:22.579Z</time>
      </trkpt>
      <trkpt lat="47.565906" lon="7.840272">
        <ele>302.944901</ele>
        <time>2021-11-22T02:43:25.960Z</time>
      </trkpt>
      <trkpt lat="47.565343" lon="7.840185">
        <ele>303.553653</ele>
        <time>2021-11-22T02:43:36.760Z</time>
      </trkpt>
      <trkpt lat="47.565233" lon="7.840176">
        <ele>303.672131</ele>
        <time>2021-11-22T02:43:39.098Z</time>
      </trkpt>
      <trkpt lat="47.565168" lon="7.840179">
        <ele>303.742068</ele>
        <time>2021-11-22T02:43:40.474Z</time>
      </trkpt>
      <trkpt lat="47.565057" lon="7.840213">
        <ele>303.863964</ele>
        <time>2021-11-22T02:43:42.717Z</time>
      </trkpt>
      <trkpt lat="47.564936" lon="7.840261">
        <ele>303.998673</ele>
        <time>2021-11-22T02:43:45.433Z</time>
      </trkpt>
      <trkpt lat="47.564558" lon="7.840516">
        <ele>304.441769</ele>
        <time>2021-11-22T02:43:53.715Z</time>
      </trkpt>
      <trkpt lat="47.564534" lon="7.840532">
        <ele>304.469834</ele>
        <time>2021-11-22T02:43:54.212Z</time>
      </trkpt>
      <trkpt lat="47.564463" lon="7.840580">
        <ele>304.553058</ele>
        <time>2021-11-22T02:43:55.826Z</time>
      </trkpt>
      <trkpt lat="47.564094" lon="7.840838">
        <ele>304.988173</ele>
        <time>2021-11-22T02:44:03.496Z</time>
      </trkpt>
      <trkpt lat="47.563986" lon="7.840916">
        <ele>305.116298</ele>
        <time>2021-11-22T02:44:05.779Z</time>
      </trkpt>
      <trkpt lat="47.563941" lon="7.840948">
        <ele>305.169527</ele>
        <time>2021-11-22T02:44:06.704Z</time>
      </trkpt>
      <trkpt lat="47.563805" lon="7.841046">
        <ele>305.330800</ele>
        <time>2021-11-22T02:44:09.517Z</time>
      </trkpt>
      <trkpt lat="47.563659" lon="7.841150">
        <ele>305.503553</ele>
        <time>2021-11-22T02:44:12.402Z</time>
      </trkpt>
      <trkpt lat="47.563483" lon="7.841269">
        <ele>305.709860</ele>
        <time>2021-11-22T02:44:16.137Z</time>
      </trkpt>
      <trkpt lat="47.563300" lon="7.841391">
        <ele>305.923857</ele>
        <time>2021-11-22T02:44:19.690Z</time>
      </trkpt>
      <trkpt lat="47.563016" lon="7.841568">
        <ele>306.295494</ele>
        <time>2021-11-22T02:44:25.549Z</time>
      </trkpt>
      <trkpt lat="47.562965" lon="7.841597">
        <ele>306.361742</ele>
        <time>2021-11-22T02:44:26.525Z</time>
      </trkpt>
      <trkpt lat="47.562904" lon="7.841632">
        <ele>306.441072</ele>
        <time>2021-11-22T02:44:27.765Z</time>
      </trkpt>
      <trkpt lat="47.562574" lon="7.841873">
        <ele>306.887242</ele>
        <time>2021-11-22T02:44:34.731Z</time>
      </trkpt>
      <trkpt lat="47.562440" lon="7.842083">
        <ele>307.123767</ele>
        <time>2021-11-22T02:44:38.343Z</time>
      </trkpt>
      <trkpt lat="47.562385" lon="7.842183">
        <ele>307.229343</ele>
        <time>2021-11-22T02:44:39.906Z</time>
      </trkpt>
      <trkpt lat="47.562300" lon="7.842326">
        <ele>307.385296</ele>
        <time>2021-11-22T02:44:42.815Z</time>
      </trkpt>
      <trkpt lat="47.562179" lon="7.842500">
        <ele>307.589772</ele>
        <time>2021-11-22T02:44:46.287Z</time>
      </trkpt>
      <trkpt lat="47.561498" lon="7.843130">
        <ele>308.493642</ele>
        <time>2021-11-22T02:45:02.995Z</time>
      </trkpt>
      <trkpt lat="47.561434" lon="7.843181">
        <ele>308.567913</ele>
        <time>2021-11-22T02:45:04.798Z</time>
      </trkpt>
      <trkpt lat="47.561038" lon="7.843502">
        <ele>309.029254</ele>
        <time>2021-11-22T02:45:13.499Z</time>
      </trkpt>
      <trkpt lat="47.560934" lon="7.843550">
        <ele>309.140587</ele>
        <time>2021-11-22T02:45:15.653Z</time>
      </trkpt>
      <trkpt lat="47.560812" lon="7.843560">
        <ele>309.265472</ele>
        <time>2021-11-22T02:45:17.897Z</time>
      </trkpt>
      <trkpt lat="47.560515" lon="7.843379">
        <ele>309.593700</ele>
        <time>2021-11-22T02:45:23.634Z</time>
      </trkpt>
      <trkpt lat="47.560430" lon="7.843341">
        <ele>309.684445</ele>
        <time>2021-11-22T02:45:25.435Z</time>
      </trkpt>
      <trkpt lat="47.560338" lon="7.843341">
        <ele>309.778477</ele>
        <time>2021-11-22T02:45:26.658Z</time>
      </trkpt>
      <trkpt lat="47.560209" lon="7.843393">
        <ele>309.915117</ele>
        <time>2021-11-22T02:45:29.134Z</time>
      </trkpt>
      <trkpt lat="47.560139" lon="7.843433">
        <ele>309.956376</ele>
        <time>2021-11-22T02:45:30.453Z</time>
      </trkpt>
      <trkpt lat="47.559847" lon="7.843604">
        <ele>309.939071</ele>
        <time>2021-11-22T02:45:35.621Z</time>
      </trkpt>
      <trkpt lat="47.559583" lon="7.843813">
        <ele>309.922574</ele>
        <time>2021-11-22T02:45:40.112Z</time>
      </trkpt>
      <trkpt lat="47.559158" lon="7.844233">
        <ele>309.894418</ele>
        <time>2021-11-22T02:45:47.321Z</time>
      </trkpt>
      <trkpt lat="47.559109" lon="7.844229">
        <ele>309.891714</ele>
        <time>2021-11-22T02:45:47.911Z</time>
      </trkpt>
      <trkpt lat="47.559060" lon="7.844197">
        <ele>309.888762</ele>
        <time>2021-11-22T02:45:48.543Z</time>
      </trkpt>
      <trkpt lat="47.558884" lon="7.843836">
        <ele>309.872198</ele>
        <time>2021-11-22T02:45:52.695Z</time>
      </trkpt>
      <trkpt lat="47.558555" lon="7.843392">
        <ele>309.875062</ele>
        <time>2021-11-22T02:45:58.731Z</time>
      </trkpt>
      <trkpt lat="47.558471" lon="7.843365">
        <ele>309.881724</ele>
        <time>2021-11-22T02:45:59.988Z</time>
      </trkpt>
      <trkpt lat="47.558405" lon="7.843371">
        <ele>309.886850</ele>
        <time>2021-11-22T02:46:01.157Z</time>
      </trkpt>
      <trkpt lat="47.558136" lon="7.843582">
        <ele>309.910442</ele>
        <time>2021-11-22T02:46:05.364Z</time>
      </trkpt>
      <trkpt lat="47.557967" lon="7.843683">
        <ele>309.924567</ele>
        <time>2021-11-22T02:46:08.082Z</time>
      </trkpt>
      <trkpt lat="47.557846" lon="7.843756">
        <ele>309.934694</ele>
        <time>2021-11-22T02:46:09.926Z</time>
      </trkpt>
      <trkpt lat="47.557759" lon="7.843839">
        <ele>309.942714</ele>
        <time>2021-11-22T02:46:11.703Z</time>
      </trkpt>
      <trkpt lat="47.557715" lon="7.843940">
        <ele>309.949002</ele>
        <time>2021-11-22T02:46:12.931Z</time>
      </trkpt>
      <trkpt lat="47.557560" lon="7.844433">
        <ele>309.977453</ele>
        <time>2021-11-22T02:46:18.891Z</time>
      </trkpt>
      <trkpt lat="47.557282" lon="7.844832">
        <ele>310.081959</ele>
        <time>2021-11-22T02:46:25.323Z</time>
      </trkpt>
      <trkpt lat="47.557134" lon="7.845095">
        <ele>310.248508</ele>
        <time>2021-11-22T02:46:29.098Z</time>
      </trkpt>
      <trkpt lat="47.556636" lon="7.845928">
        <ele>310.789756</ele>
        <time>2021-11-22T02:46:41.949Z</time>
      </trkpt>
      <trkpt lat="47.556060" lon="7.846859">
        <ele>311.482473</ele>
        <time>2021-11-22T02:46:58.076Z</time>
      </trkpt>
      <trkpt lat="47.555990" lon="7.846965">
        <ele>311.606351</ele>
        <time>2021-11-22T02:47:00.060Z</time>
      </trkpt>
      <trkpt lat="47.555966" lon="7.846932">
        <ele>311.646875</ele>
        <time>2021-11-22T02:47:00.648Z</time>
      </trkpt>
      <trkpt lat="47.555892" lon="7.846856">
        <ele>311.758314</ele>
        <time>2021-11-22T02:47:02.203Z</time>
      </trkpt>
      <trkpt lat="47.555855" lon="7.846815">
        <ele>311.815499</ele>
        <time>2021-11-22T02:47:03.113Z</time>
      </trkpt>
      <trkpt lat="47.555727" lon="7.846715">
        <ele>311.994596</ele>
        <time>2021-11-22T02:47:06.117Z</time>
      </trkpt>
      <trkpt lat="47.555199" lon="7.846687">
        <ele>312.648524</ele>
        <time>2021-11-22T02:47:16.083Z</time>
      </trkpt>
      <trkpt lat="47.555068" lon="7.846672">
        <ele>312.811146</ele>
        <time>2021-11-22T02:47:18.945Z</time>
      </trkpt>
      <trkpt lat="47.554995" lon="7.846915">
        <ele>313.033327</ele>
        <time>2021-11-22T02:47:22.669Z</time>
      </trkpt>
      <trkpt lat="47.554930" lon="7.847063">
        <ele>313.180824</ele>
        <time>2021-11-22T02:47:25.054Z</time>
      </trkpt>
      <trkpt lat="47.554903" lon="7.847123">
        <ele>313.241063</ele>
        <time>2021-11-22T02:47:26.173Z</time>
      </trkpt>
      <trkpt lat="47.554892" lon="7.847148">
        <ele>313.265991</ele>
        <time>2021-11-22T02:47:26.640Z</time>
      </trkpt>
      <trkpt lat="47.554759" lon="7.847388">
        <ele>313.525951</ele>
        <time>2021-11-22T02:47:30.960Z</time>
      </trkpt>
      <trkpt lat="47.554618" lon="7.847626">
        <ele>313.823694</ele>
        <time>2021-11-22T02:47:35.520Z</time>
      </trkpt>
      <trkpt lat="47.554465" lon="7.847858">
        <ele>314.128661</ele>
        <time>2021-11-22T02:47:40.154Z</time>
      </trkpt>
      <trkpt lat="47.554351" lon="7.848049">
        <ele>314.368384</ele>
        <time>2021-11-22T02:47:43.449Z</time>
      </trkpt>
      <trkpt lat="47.554269" lon="7.848188">
        <ele>314.541956</ele>
        <time>2021-11-22T02:47:45.939Z</time>
      </trkpt>
      <trkpt lat="47.554209" lon="7.848300">
        <ele>314.676398</ele>
        <time>2021-11-22T02:47:48.079Z</time>
      </trkpt>
      <trkpt lat="47.554055" lon="7.848586">
        <ele>315.020384</ele>
        <time>2021-11-22T02:47:52.879Z</time>
      </trkpt>
      <trkpt lat="47.553725" lon="7.849291">
        <ele>315.827031</ele>
        <time>2021-11-22T02:48:04.254Z</time>
      </trkpt>
      <trkpt lat="47.553605" lon="7.849629">
        <ele>316.259886</ele>
        <time>2021-11-22T02:48:09.773Z</time>
      </trkpt>
      <trkpt lat="47.553537" lon="7.849904">
        <ele>316.662602</ele>
        <time>2021-11-22T02:48:13.839Z</time>
      </trkpt>
      <trkpt lat="47.553380" lon="7.850453">
        <ele>317.482473</ele>
        <time>2021-11-22T02:48:22.743Z</time>
      </trkpt>
      <trkpt lat="47.553344" lon="7.850525">
        <ele>317.605685</ele>
        <time>2021-11-22T02:48:24.046Z</time>
      </trkpt>
      <trkpt lat="47.553283" lon="7.850634">
        <ele>317.800390</ele>
        <time>2021-11-22T02:48:26.112Z</time>
      </trkpt>
      <trkpt lat="47.552876" lon="7.851300">
        <ele>319.035811</ele>
        <time>2021-11-22T02:48:39.922Z</time>
      </trkpt>
      <trkpt lat="47.552678" lon="7.851709">
        <ele>319.749941</ele>
        <time>2021-11-22T02:48:48.591Z</time>
      </trkpt>
      <trkpt lat="47.552449" lon="7.852231">
        <ele>321.117954</ele>
        <time>2021-11-22T02:49:00.096Z</time>
      </trkpt>
      <trkpt lat="47.552272" lon="7.852167">
        <ele>321.711124</ele>
        <time>2021-11-22T02:49:05.496Z</time>
      </trkpt>
      <trkpt lat="47.552097" lon="7.852063">
        <ele>322.324993</ele>
        <time>2021-11-22T02:49:10.743Z</time>
      </trkpt>
      <trkpt lat="47.552042" lon="7.852007">
        <ele>322.542261</ele>
        <time>2021-11-22T02:49:13.143Z</time>
      </trkpt>
      <trkpt lat="47.551925" lon="7.851845">
        <ele>323.063617</ele>
        <time>2021-11-22T02:49:17.409Z</time>
      </trkpt>
      <trkpt lat="47.551830" lon="7.851603">
        <ele>323.678781</ele>
        <time>2021-11-22T02:49:23.231Z</time>
      </trkpt>
      <trkpt lat="47.551660" lon="7.851725">
        <ele>324.293755</ele>
        <time>2021-11-22T02:49:28.464Z</time>
      </trkpt>
      <trkpt lat="47.551516" lon="7.851950">
        <ele>324.975099</ele>
        <time>2021-11-22T02:49:35.023Z</time>
      </trkpt>
      <trkpt lat="47.550221" lon="7.853833">
        <ele>329.764499</ele>
        <time>2021-11-22T02:50:22.314Z</time>
      </trkpt>
      <trkpt lat="47.549883" lon="7.854434">
        <ele>330.360817</ele>
        <time>2021-11-22T02:50:32.434Z</time>
      </trkpt>
      <trkpt lat="47.549566" lon="7.855225">
        <ele>330.672731</ele>
        <time>2021-11-22T02:50:46.294Z</time>
      </trkpt>
      <trkpt lat="47.549362" lon="7.855774">
        <ele>330.885224</ele>
        <time>2021-11-22T02:50:54.782Z</time>
      </trkpt>
      <trkpt lat="47.548887" lon="7.857308">
        <ele>331.184457</ele>
        <time>2021-11-22T02:51:16.890Z</time>
      </trkpt>
      <trkpt lat="47.548743" lon="7.857692">
        <ele>331.225838</ele>
        <time>2021-11-22T02:51:22.862Z</time>
      </trkpt>
      <trkpt lat="47.548701" lon="7.857893">
        <ele>331.245659</ele>
        <time>2021-11-22T02:51:25.833Z</time>
      </trkpt>
      <trkpt lat="47.548686" lon="7.857973">
        <ele>331.253481</ele>
        <time>2021-11-22T02:51:26.957Z</time>
      </trkpt>
      <trkpt lat="47.548611" lon="7.858381">
        <ele>331.293314</ele>
        <time>2021-11-22T02:51:33.171Z</time>
      </trkpt>
      <trkpt lat="47.548334" lon="7.859801">
        <ele>332.186558</ele>
        <time>2021-11-22T02:51:56.208Z</time>
      </trkpt>
      <trkpt lat="47.548049" lon="7.860929">
        <ele>333.137907</ele>
        <time>2021-11-22T02:52:17.226Z</time>
      </trkpt>
      <trkpt lat="47.547930" lon="7.861711">
        <ele>333.899394</ele>
        <time>2021-11-22T02:52:31.990Z</time>
      </trkpt>
      <trkpt lat="47.547568" lon="7.863151">
        <ele>335.576881</ele>
        <time>2021-11-22T02:53:01.118Z</time>
      </trkpt>
      <trkpt lat="47.547320" lon="7.863864">
        <ele>336.342315</ele>
        <time>2021-11-22T02:53:15.058Z</time>
      </trkpt>
      <trkpt lat="47.546974" lon="7.864423">
        <ele>336.327166</ele>
        <time>2021-11-22T02:53:25.881Z</time>
      </trkpt>
      <trkpt lat="47.546885" lon="7.864500">
        <ele>336.324116</ele>
        <time>2021-11-22T02:53:28.966Z</time>
      </trkpt>
      <trkpt lat="47.546894" lon="7.864837">
        <ele>336.317379</ele>
        <time>2021-11-22T02:53:32.850Z</time>
      </trkpt>
      <trkpt lat="47.546889" lon="7.865225">
        <ele>336.309628</ele>
        <time>2021-11-22T02:53:38.275Z</time>
      </trkpt>
      <trkpt lat="47.546819" lon="7.865489">
        <ele>336.303962</ele>
        <time>2021-11-22T02:53:42.220Z</time>
      </trkpt>
      <trkpt lat="47.546510" lon="7.865766">
        <ele>336.293275</ele>
        <time>2021-11-22T02:53:48.854Z</time>
      </trkpt>
      <trkpt lat="47.546327" lon="7.865959">
        <ele>336.182652</ele>
        <time>2021-11-22T02:53:52.369Z</time>
      </trkpt>
      <trkpt lat="47.546096" lon="7.866147">
        <ele>335.992298</ele>
        <time>2021-11-22T02:53:56.925Z</time>
      </trkpt>
      <trkpt lat="47.545240" lon="7.866887">
        <ele>335.276503</ele>
        <time>2021-11-22T02:54:13.598Z</time>
      </trkpt>
      <trkpt lat="47.545160" lon="7.866985">
        <ele>335.201529</ele>
        <time>2021-11-22T02:54:15.554Z</time>
      </trkpt>
      <trkpt lat="47.545003" lon="7.867278">
        <ele>335.019151</ele>
        <time>2021-11-22T02:54:21.222Z</time>
      </trkpt>
      <trkpt lat="47.544568" lon="7.867693">
        <ele>334.992020</ele>
        <time>2021-11-22T02:54:33.795Z</time>
      </trkpt>
      <trkpt lat="47.544469" lon="7.867776">
        <ele>334.992020</ele>
        <time>2021-11-22T02:54:36.385Z</time>
      </trkpt>
      <trkpt lat="47.544410" lon="7.867825">
        <ele>334.992020</ele>
        <time>2021-11-22T02:54:38.180Z</time>
      </trkpt>
      <trkpt lat="47.544246" lon="7.867967">
        <ele>334.992020</ele>
        <time>2021-11-22T02:54:42.815Z</time>
      </trkpt>
      <trkpt lat="47.544214" lon="7.867988">
        <ele>334.992020</ele>
        <time>2021-11-22T02:54:43.619Z</time>
      </trkpt>
      <trkpt lat="47.543801" lon="7.868269">
        <ele>334.992020</ele>
        <time>2021-11-22T02:54:54.660Z</time>
      </trkpt>
      <trkpt lat="47.543657" lon="7.868359">
        <ele>334.992020</ele>
        <time>2021-11-22T02:54:58.917Z</time>
      </trkpt>
      <trkpt lat="47.543397" lon="7.868529">
        <ele>334.992020</ele>
        <time>2021-11-22T02:55:04.833Z</time>
      </trkpt>
      <trkpt lat="47.543235" lon="7.868635">
        <ele>334.992020</ele>
        <time>2021-11-22T02:55:08.531Z</time>
      </trkpt>
    </trkseg>
  </trk>
</gpx>